Wetterdaten: Sonntag, 03.12.2023
Datum Zeit Temp. I. Temp. A. Feuchte I. Feuchte A. Luftdruck Regen Wind Richtung Richtung Sonnenschein Solar Taupunkt Windchill Windböen
03.12.2023 00:00 21,4 °C -2,2 °C 42 % 91 % 1017,5 hPa 0,0 l/m² 2,7 km/h (1 Bft) SW 233 ° 0 min 0 W/m² -3,5 °C -2,2 °C 4,8 km/h (1 Bft)
03.12.2023 00:02 21,4 °C -2,2 °C 42 % 91 % 1017,5 hPa 0,0 l/m² 2,6 km/h (1 Bft) SW 233 ° 0 min 0 W/m² -3,5 °C -2,2 °C 3,2 km/h (1 Bft)
03.12.2023 00:03 21,4 °C -2,2 °C 42 % 91 % 1017,5 hPa 0,0 l/m² 3,4 km/h (1 Bft) SW 233 ° 0 min 0 W/m² -3,5 °C -2,2 °C 4,8 km/h (1 Bft)
03.12.2023 00:05 21,4 °C -2,2 °C 42 % 91 % 1017,6 hPa 0,0 l/m² 2,0 km/h (1 Bft) SW 233 ° 0 min 0 W/m² -3,5 °C -2,2 °C 4,8 km/h (1 Bft)
03.12.2023 00:07 21,4 °C -2,2 °C 42 % 91 % 1017,6 hPa 0,0 l/m² 2,7 km/h (1 Bft) SW 233 ° 0 min 0 W/m² -3,5 °C -2,2 °C 4,8 km/h (1 Bft)
03.12.2023 00:09 21,4 °C -2,2 °C 42 % 91 % 1017,6 hPa 0,0 l/m² 2,1 km/h (1 Bft) SW 233 ° 0 min 0 W/m² -3,5 °C -2,2 °C 4,8 km/h (1 Bft)
03.12.2023 00:11 21,4 °C -2,2 °C 42 % 91 % 1017,6 hPa 0,0 l/m² 1,7 km/h (1 Bft) SW 233 ° 0 min 0 W/m² -3,5 °C -2,2 °C 3,2 km/h (1 Bft)
03.12.2023 00:12 21,4 °C -2,2 °C 42 % 91 % 1017,6 hPa 0,0 l/m² 2,3 km/h (1 Bft) SW 233 ° 0 min 0 W/m² -3,5 °C -2,2 °C 3,2 km/h (1 Bft)
03.12.2023 00:13 21,4 °C -2,1 °C 42 % 91 % 1017,6 hPa 0,0 l/m² 1,9 km/h (1 Bft) SW 233 ° 0 min 0 W/m² -3,4 °C -2,1 °C 3,2 km/h (1 Bft)
03.12.2023 00:14 21,4 °C -2,1 °C 42 % 91 % 1017,6 hPa 0,0 l/m² 0,5 km/h (0 Bft) SW 233 ° 0 min 0 W/m² -3,4 °C -2,1 °C 1,6 km/h (1 Bft)
03.12.2023 00:15 21,4 °C -2,1 °C 42 % 91 % 1017,6 hPa 0,0 l/m² 0,1 km/h (0 Bft) SW 233 ° 0 min 0 W/m² -3,4 °C -2,1 °C 1,6 km/h (1 Bft)
03.12.2023 00:17 21,4 °C -2,1 °C 42 % 92 % 1017,7 hPa 0,0 l/m² 1,2 km/h (1 Bft) SW 233 ° 0 min 0 W/m² -3,2 °C -2,1 °C 3,2 km/h (1 Bft)
03.12.2023 00:19 21,4 °C -2,1 °C 42 % 92 % 1017,7 hPa 0,0 l/m² 0,1 km/h (0 Bft) SW 233 ° 0 min 0 W/m² -3,2 °C -2,1 °C 1,6 km/h (1 Bft)
03.12.2023 00:21 21,4 °C -2,1 °C 42 % 92 % 1017,8 hPa 0,0 l/m² 0,0 km/h (0 Bft) SW 233 ° 0 min 0 W/m² -3,2 °C -2,1 °C 0,0 km/h (0 Bft)
03.12.2023 00:22 21,4 °C -2,1 °C 42 % 92 % 1017,7 hPa 0,0 l/m² 0,0 km/h (0 Bft) SW 233 ° 0 min 0 W/m² -3,2 °C -2,1 °C 0,0 km/h (0 Bft)
03.12.2023 00:23 21,4 °C -2,1 °C 42 % 92 % 1017,8 hPa 0,0 l/m² 0,0 km/h (0 Bft) SW 233 ° 0 min 0 W/m² -3,2 °C -2,1 °C 0,0 km/h (0 Bft)
03.12.2023 00:25 21,4 °C -2,1 °C 42 % 92 % 1017,8 hPa 0,0 l/m² 0,7 km/h (0 Bft) SW 233 ° 0 min 0 W/m² -3,2 °C -2,1 °C 1,6 km/h (1 Bft)
03.12.2023 00:27 21,5 °C -2,1 °C 42 % 92 % 1017,8 hPa 0,0 l/m² 1,0 km/h (0 Bft) SW 233 ° 0 min 0 W/m² -3,2 °C -2,1 °C 1,6 km/h (1 Bft)
03.12.2023 00:29 21,5 °C -2,1 °C 42 % 91 % 1017,8 hPa 0,0 l/m² 0,5 km/h (0 Bft) SW 233 ° 0 min 0 W/m² -3,4 °C -2,1 °C 1,6 km/h (1 Bft)
03.12.2023 00:31 21,5 °C -2,1 °C 42 % 92 % 1017,9 hPa 0,0 l/m² 1,1 km/h (1 Bft) SW 233 ° 0 min 0 W/m² -3,2 °C -2,1 °C 3,2 km/h (1 Bft)
03.12.2023 00:32 21,5 °C -2,1 °C 42 % 92 % 1017,9 hPa 0,0 l/m² 3,8 km/h (1 Bft) SW 233 ° 0 min 0 W/m² -3,2 °C -2,1 °C 4,8 km/h (1 Bft)
03.12.2023 00:33 21,4 °C -2,1 °C 42 % 92 % 1017,9 hPa 0,0 l/m² 2,7 km/h (1 Bft) SW 233 ° 0 min 0 W/m² -3,2 °C -2,1 °C 3,2 km/h (1 Bft)
03.12.2023 00:35 21,5 °C -2,1 °C 42 % 92 % 1017,9 hPa 0,0 l/m² 0,2 km/h (0 Bft) SW 233 ° 0 min 0 W/m² -3,2 °C -2,1 °C 1,6 km/h (1 Bft)
03.12.2023 00:37 21,5 °C -2,1 °C 42 % 92 % 1017,9 hPa 0,0 l/m² 0,2 km/h (0 Bft) SW 233 ° 0 min 0 W/m² -3,2 °C -2,1 °C 1,6 km/h (1 Bft)
03.12.2023 00:39 21,4 °C -2,1 °C 42 % 92 % 1017,9 hPa 0,0 l/m² 0,5 km/h (0 Bft) SW 233 ° 0 min 0 W/m² -3,2 °C -2,1 °C 3,2 km/h (1 Bft)
03.12.2023 00:41 21,5 °C -2,1 °C 42 % 92 % 1017,9 hPa 0,0 l/m² 2,4 km/h (1 Bft) SW 233 ° 0 min 0 W/m² -3,2 °C -2,1 °C 4,8 km/h (1 Bft)
03.12.2023 00:42 21,5 °C -2,1 °C 42 % 92 % 1017,8 hPa 0,0 l/m² 2,2 km/h (1 Bft) SW 233 ° 0 min 0 W/m² -3,2 °C -2,1 °C 3,2 km/h (1 Bft)
03.12.2023 00:43 21,5 °C -2,1 °C 42 % 92 % 1017,9 hPa 0,0 l/m² 0,3 km/h (0 Bft) SW 233 ° 0 min 0 W/m² -3,2 °C -2,1 °C 1,6 km/h (1 Bft)
03.12.2023 00:45 21,5 °C -2,0 °C 42 % 92 % 1017,9 hPa 0,0 l/m² 2,0 km/h (1 Bft) SW 233 ° 0 min 0 W/m² -3,1 °C -2,0 °C 4,8 km/h (1 Bft)
03.12.2023 00:47 21,5 °C -2,0 °C 42 % 92 % 1017,9 hPa 0,0 l/m² 1,7 km/h (1 Bft) SW 233 ° 0 min 0 W/m² -3,1 °C -2,0 °C 3,2 km/h (1 Bft)
03.12.2023 00:48 21,5 °C -2,0 °C 42 % 92 % 1018,0 hPa 0,0 l/m² 1,3 km/h (1 Bft) SW 233 ° 0 min 0 W/m² -3,1 °C -2,0 °C 3,2 km/h (1 Bft)
03.12.2023 00:50 21,5 °C -2,0 °C 42 % 92 % 1017,9 hPa 0,0 l/m² 1,4 km/h (1 Bft) SW 233 ° 0 min 0 W/m² -3,1 °C -2,0 °C 3,2 km/h (1 Bft)
03.12.2023 00:52 21,5 °C -1,9 °C 42 % 92 % 1017,9 hPa 0,0 l/m² 3,7 km/h (1 Bft) W-SW 246 ° 0 min 0 W/m² -3,0 °C -1,9 °C 6,4 km/h (2 Bft)
03.12.2023 00:53 21,5 °C -1,9 °C 42 % 92 % 1017,9 hPa 0,0 l/m² 7,0 km/h (2 Bft) W-SW 240 ° 0 min 0 W/m² -3,0 °C -2,6 °C 11,3 km/h (2 Bft)
03.12.2023 00:54 21,5 °C -1,9 °C 42 % 92 % 1017,9 hPa 0,0 l/m² 6,2 km/h (2 Bft) W-SW 248 ° 0 min 0 W/m² -3,0 °C -1,9 °C 8,0 km/h (2 Bft)
03.12.2023 00:56 21,6 °C -1,9 °C 42 % 92 % 1018,0 hPa 0,0 l/m² 6,6 km/h (2 Bft) W-SW 242 ° 0 min 0 W/m² -3,0 °C -2,1 °C 9,7 km/h (2 Bft)
03.12.2023 00:57 21,5 °C -1,9 °C 42 % 92 % 1018,0 hPa 0,0 l/m² 5,8 km/h (2 Bft) W-SW 246 ° 0 min 0 W/m² -3,0 °C -1,9 °C 8,0 km/h (2 Bft)
03.12.2023 00:59 21,6 °C -1,9 °C 42 % 92 % 1018,0 hPa 0,0 l/m² 5,2 km/h (1 Bft) W-SW 247 ° 0 min 0 W/m² -3,0 °C -1,9 °C 6,4 km/h (2 Bft)
03.12.2023 01:00 21,5 °C -1,8 °C 42 % 92 % 1018,0 hPa 0,0 l/m² 5,0 km/h (1 Bft) W-SW 247 ° 0 min 0 W/m² -2,9 °C -1,8 °C 8,0 km/h (2 Bft)
03.12.2023 01:01 21,5 °C -1,8 °C 42 % 92 % 1018,0 hPa 0,0 l/m² 4,4 km/h (1 Bft) W-SW 246 ° 0 min 0 W/m² -2,9 °C -1,8 °C 6,4 km/h (2 Bft)
03.12.2023 01:02 21,6 °C -1,8 °C 42 % 92 % 1018,0 hPa 0,0 l/m² 2,2 km/h (1 Bft) W-SW 246 ° 0 min 0 W/m² -2,9 °C -1,8 °C 4,8 km/h (1 Bft)
03.12.2023 01:03 21,6 °C -1,8 °C 42 % 92 % 1018,0 hPa 0,0 l/m² 4,3 km/h (1 Bft) W-SW 246 ° 0 min 0 W/m² -2,9 °C -1,8 °C 6,4 km/h (2 Bft)
03.12.2023 01:05 21,5 °C -1,8 °C 42 % 92 % 1018,0 hPa 0,0 l/m² 5,0 km/h (1 Bft) W-SW 248 ° 0 min 0 W/m² -2,9 °C -1,8 °C 8,0 km/h (2 Bft)
03.12.2023 01:07 21,5 °C -1,8 °C 42 % 92 % 1018,1 hPa 0,0 l/m² 5,2 km/h (1 Bft) W-SW 240 ° 0 min 0 W/m² -2,9 °C -1,8 °C 6,4 km/h (2 Bft)
03.12.2023 01:09 21,5 °C -1,8 °C 42 % 92 % 1018,1 hPa 0,0 l/m² 6,1 km/h (2 Bft) W-SW 238 ° 0 min 0 W/m² -2,9 °C -1,8 °C 8,0 km/h (2 Bft)
03.12.2023 01:11 21,5 °C -1,8 °C 42 % 92 % 1018,1 hPa 0,0 l/m² 7,4 km/h (2 Bft) W-SW 247 ° 0 min 0 W/m² -2,9 °C -2,9 °C 9,7 km/h (2 Bft)
03.12.2023 01:12 21,5 °C -1,8 °C 42 % 92 % 1018,0 hPa 0,0 l/m² 5,9 km/h (2 Bft) W-SW 249 ° 0 min 0 W/m² -2,9 °C -1,8 °C 8,0 km/h (2 Bft)
03.12.2023 01:13 21,5 °C -1,8 °C 42 % 92 % 1018,1 hPa 0,0 l/m² 5,5 km/h (2 Bft) W-SW 242 ° 0 min 0 W/m² -2,9 °C -1,8 °C 8,0 km/h (2 Bft)
03.12.2023 01:15 21,5 °C -1,7 °C 42 % 92 % 1018,1 hPa 0,0 l/m² 5,9 km/h (2 Bft) W-SW 244 ° 0 min 0 W/m² -2,8 °C -1,7 °C 8,0 km/h (2 Bft)
03.12.2023 01:17 21,5 °C -1,7 °C 42 % 92 % 1018,1 hPa 0,0 l/m² 4,2 km/h (1 Bft) W-SW 243 ° 0 min 0 W/m² -2,8 °C -1,7 °C 6,4 km/h (2 Bft)
03.12.2023 01:19 21,5 °C -1,7 °C 42 % 92 % 1018,2 hPa 0,0 l/m² 5,0 km/h (1 Bft) W-SW 241 ° 0 min 0 W/m² -2,8 °C -1,7 °C 6,4 km/h (2 Bft)
03.12.2023 01:21 21,5 °C -1,7 °C 42 % 92 % 1018,2 hPa 0,0 l/m² 5,5 km/h (2 Bft) W-SW 241 ° 0 min 0 W/m² -2,8 °C -1,7 °C 8,0 km/h (2 Bft)
03.12.2023 01:22 21,5 °C -1,7 °C 42 % 92 % 1018,2 hPa 0,0 l/m² 5,4 km/h (2 Bft) W-SW 239 ° 0 min 0 W/m² -2,8 °C -1,7 °C 6,4 km/h (2 Bft)
03.12.2023 01:23 21,5 °C -1,7 °C 42 % 92 % 1018,1 hPa 0,0 l/m² 4,1 km/h (1 Bft) W-SW 241 ° 0 min 0 W/m² -2,8 °C -1,7 °C 4,8 km/h (1 Bft)
03.12.2023 01:25 21,4 °C -1,7 °C 42 % 92 % 1018,2 hPa 0,0 l/m² 4,7 km/h (1 Bft) SW 236 ° 0 min 0 W/m² -2,8 °C -1,7 °C 6,4 km/h (2 Bft)
03.12.2023 01:27 21,5 °C -1,7 °C 42 % 92 % 1018,2 hPa 0,0 l/m² 4,5 km/h (1 Bft) W-SW 254 ° 0 min 0 W/m² -2,8 °C -1,7 °C 6,4 km/h (2 Bft)
03.12.2023 01:29 21,5 °C -1,7 °C 42 % 92 % 1018,2 hPa 0,0 l/m² 3,8 km/h (1 Bft) W-SW 244 ° 0 min 0 W/m² -2,8 °C -1,7 °C 6,4 km/h (2 Bft)
03.12.2023 01:31 21,5 °C -1,7 °C 42 % 92 % 1018,2 hPa 0,0 l/m² 5,6 km/h (2 Bft) W-SW 255 ° 0 min 0 W/m² -2,8 °C -1,7 °C 8,0 km/h (2 Bft)
03.12.2023 01:32 21,5 °C -1,7 °C 42 % 92 % 1018,2 hPa 0,0 l/m² 3,7 km/h (1 Bft) W-SW 244 ° 0 min 0 W/m² -2,8 °C -1,7 °C 4,8 km/h (1 Bft)
03.12.2023 01:33 21,5 °C -1,7 °C 42 % 92 % 1018,3 hPa 0,0 l/m² 5,4 km/h (2 Bft) W-SW 243 ° 0 min 0 W/m² -2,8 °C -1,7 °C 6,4 km/h (2 Bft)
03.12.2023 01:35 21,5 °C -1,7 °C 42 % 92 % 1018,2 hPa 0,0 l/m² 4,6 km/h (1 Bft) W-SW 252 ° 0 min 0 W/m² -2,8 °C -1,7 °C 6,4 km/h (2 Bft)
03.12.2023 01:37 21,5 °C -1,7 °C 42 % 92 % 1018,2 hPa 0,0 l/m² 5,4 km/h (2 Bft) SW 236 ° 0 min 0 W/m² -2,8 °C -1,7 °C 8,0 km/h (2 Bft)
03.12.2023 01:39 21,5 °C -1,7 °C 42 % 93 % 1018,2 hPa 0,0 l/m² 6,5 km/h (2 Bft) SW 234 ° 0 min 0 W/m² -2,7 °C -1,8 °C 11,3 km/h (2 Bft)
03.12.2023 01:41 21,5 °C -1,7 °C 42 % 93 % 1018,3 hPa 0,0 l/m² 5,9 km/h (2 Bft) W-SW 248 ° 0 min 0 W/m² -2,7 °C -1,7 °C 8,0 km/h (2 Bft)
03.12.2023 01:42 21,5 °C -1,7 °C 42 % 92 % 1018,2 hPa 0,0 l/m² 6,1 km/h (2 Bft) W-SW 240 ° 0 min 0 W/m² -2,8 °C -1,7 °C 8,0 km/h (2 Bft)
03.12.2023 01:43 21,5 °C -1,7 °C 42 % 93 % 1018,2 hPa 0,0 l/m² 4,8 km/h (1 Bft) SW 235 ° 0 min 0 W/m² -2,7 °C -1,7 °C 6,4 km/h (2 Bft)
03.12.2023 01:45 21,5 °C -1,7 °C 42 % 93 % 1018,3 hPa 0,0 l/m² 6,0 km/h (2 Bft) W-SW 246 ° 0 min 0 W/m² -2,7 °C -1,7 °C 8,0 km/h (2 Bft)
03.12.2023 01:47 21,5 °C -1,7 °C 42 % 93 % 1018,3 hPa 0,0 l/m² 5,3 km/h (1 Bft) W-SW 247 ° 0 min 0 W/m² -2,7 °C -1,7 °C 8,0 km/h (2 Bft)
03.12.2023 01:49 21,5 °C -1,7 °C 42 % 93 % 1018,4 hPa 0,0 l/m² 7,0 km/h (2 Bft) W-SW 250 ° 0 min 0 W/m² -2,7 °C -2,4 °C 11,3 km/h (2 Bft)
03.12.2023 01:51 21,4 °C -1,7 °C 42 % 93 % 1018,4 hPa 0,0 l/m² 6,2 km/h (2 Bft) W-SW 251 ° 0 min 0 W/m² -2,7 °C -1,7 °C 11,3 km/h (2 Bft)
03.12.2023 01:52 21,4 °C -1,7 °C 42 % 93 % 1018,3 hPa 0,0 l/m² 4,5 km/h (1 Bft) W-SW 245 ° 0 min 0 W/m² -2,7 °C -1,7 °C 6,4 km/h (2 Bft)
03.12.2023 01:53 21,5 °C -1,7 °C 42 % 93 % 1018,3 hPa 0,0 l/m² 4,9 km/h (1 Bft) W-SW 246 ° 0 min 0 W/m² -2,7 °C -1,7 °C 6,4 km/h (2 Bft)
03.12.2023 01:55 21,5 °C -1,7 °C 42 % 93 % 1018,3 hPa 0,0 l/m² 4,9 km/h (1 Bft) W-SW 250 ° 0 min 0 W/m² -2,7 °C -1,7 °C 8,0 km/h (2 Bft)
03.12.2023 01:57 21,4 °C -1,7 °C 42 % 93 % 1018,4 hPa 0,0 l/m² 4,4 km/h (1 Bft) W-SW 254 ° 0 min 0 W/m² -2,7 °C -1,7 °C 6,4 km/h (2 Bft)
03.12.2023 01:59 21,4 °C -1,7 °C 42 % 93 % 1018,4 hPa 0,0 l/m² 5,4 km/h (2 Bft) W-SW 248 ° 0 min 0 W/m² -2,7 °C -1,7 °C 9,7 km/h (2 Bft)
03.12.2023 02:01 21,5 °C -1,7 °C 42 % 93 % 1018,3 hPa 0,0 l/m² 5,1 km/h (1 Bft) W-SW 250 ° 0 min 0 W/m² -2,7 °C -1,7 °C 6,4 km/h (2 Bft)
03.12.2023 02:02 21,5 °C -1,7 °C 42 % 93 % 1018,4 hPa 0,0 l/m² 8,0 km/h (2 Bft) W-SW 252 ° 0 min 0 W/m² -2,7 °C -3,4 °C 11,3 km/h (2 Bft)
03.12.2023 02:03 21,5 °C -1,7 °C 42 % 93 % 1018,3 hPa 0,0 l/m² 7,0 km/h (2 Bft) W-SW 255 ° 0 min 0 W/m² -2,7 °C -2,4 °C 9,7 km/h (2 Bft)
03.12.2023 02:05 21,4 °C -1,7 °C 42 % 93 % 1018,3 hPa 0,0 l/m² 6,6 km/h (2 Bft) W-SW 252 ° 0 min 0 W/m² -2,7 °C -1,9 °C 9,7 km/h (2 Bft)
03.12.2023 02:07 21,5 °C -1,7 °C 42 % 93 % 1018,3 hPa 0,0 l/m² 7,0 km/h (2 Bft) W-SW 246 ° 0 min 0 W/m² -2,7 °C -2,4 °C 11,3 km/h (2 Bft)
03.12.2023 02:09 21,4 °C -1,7 °C 42 % 93 % 1018,3 hPa 0,0 l/m² 6,6 km/h (2 Bft) W 259 ° 0 min 0 W/m² -2,7 °C -1,9 °C 9,7 km/h (2 Bft)
03.12.2023 02:11 21,5 °C -1,8 °C 42 % 93 % 1018,4 hPa 0,0 l/m² 5,1 km/h (1 Bft) W-SW 257 ° 0 min 0 W/m² -2,8 °C -1,8 °C 6,4 km/h (2 Bft)
03.12.2023 02:12 21,5 °C -1,8 °C 42 % 93 % 1018,3 hPa 0,0 l/m² 4,5 km/h (1 Bft) W 259 ° 0 min 0 W/m² -2,8 °C -1,8 °C 4,8 km/h (1 Bft)
03.12.2023 02:13 21,4 °C -1,8 °C 42 % 92 % 1018,4 hPa 0,0 l/m² 4,1 km/h (1 Bft) W 259 ° 0 min 0 W/m² -2,9 °C -1,8 °C 4,8 km/h (1 Bft)
03.12.2023 02:15 21,5 °C -1,8 °C 42 % 92 % 1018,5 hPa 0,0 l/m² 3,3 km/h (1 Bft) W 261 ° 0 min 0 W/m² -2,9 °C -1,8 °C 4,8 km/h (1 Bft)
03.12.2023 02:17 21,4 °C -1,9 °C 42 % 92 % 1018,6 hPa 0,0 l/m² 4,5 km/h (1 Bft) W-SW 252 ° 0 min 0 W/m² -3,0 °C -1,9 °C 6,4 km/h (2 Bft)
03.12.2023 02:19 21,5 °C -1,9 °C 42 % 92 % 1018,6 hPa 0,0 l/m² 3,5 km/h (1 Bft) W-SW 252 ° 0 min 0 W/m² -3,0 °C -1,9 °C 4,8 km/h (1 Bft)
03.12.2023 02:21 21,5 °C -2,0 °C 42 % 92 % 1018,6 hPa 0,0 l/m² 3,2 km/h (1 Bft) W 259 ° 0 min 0 W/m² -3,1 °C -2,0 °C 6,4 km/h (2 Bft)
03.12.2023 02:22 21,5 °C -2,0 °C 42 % 92 % 1018,7 hPa 0,0 l/m² 3,2 km/h (1 Bft) W 259 ° 0 min 0 W/m² -3,1 °C -2,0 °C 4,8 km/h (1 Bft)
03.12.2023 02:23 21,5 °C -2,1 °C 42 % 92 % 1018,7 hPa 0,0 l/m² 3,2 km/h (1 Bft) W 262 ° 0 min 0 W/m² -3,2 °C -2,1 °C 4,8 km/h (1 Bft)
03.12.2023 02:24 21,5 °C -2,0 °C 42 % 92 % 1018,7 hPa 0,0 l/m² 4,8 km/h (1 Bft) W 268 ° 0 min 0 W/m² -3,1 °C -2,0 °C 6,4 km/h (2 Bft)
03.12.2023 02:26 21,5 °C -2,2 °C 42 % 92 % 1018,8 hPa 0,0 l/m² 4,4 km/h (1 Bft) W 270 ° 0 min 0 W/m² -3,3 °C -2,2 °C 6,4 km/h (2 Bft)
03.12.2023 02:28 21,5 °C -2,2 °C 42 % 92 % 1018,8 hPa 0,0 l/m² 4,0 km/h (1 Bft) W 262 ° 0 min 0 W/m² -3,3 °C -2,2 °C 6,4 km/h (2 Bft)
03.12.2023 02:30 21,5 °C -2,3 °C 42 % 92 % 1018,8 hPa 0,0 l/m² 4,0 km/h (1 Bft) W-SW 254 ° 0 min 0 W/m² -3,4 °C -2,3 °C 6,4 km/h (2 Bft)
03.12.2023 02:32 21,5 °C -2,3 °C 42 % 92 % 1018,9 hPa 0,0 l/m² 4,0 km/h (1 Bft) W 262 ° 0 min 0 W/m² -3,4 °C -2,3 °C 6,4 km/h (2 Bft)
03.12.2023 02:33 21,5 °C -2,3 °C 42 % 92 % 1018,8 hPa 0,0 l/m² 3,4 km/h (1 Bft) W 266 ° 0 min 0 W/m² -3,4 °C -2,3 °C 4,8 km/h (1 Bft)
03.12.2023 02:34 21,5 °C -2,3 °C 42 % 92 % 1018,8 hPa 0,0 l/m² 3,6 km/h (1 Bft) W 267 ° 0 min 0 W/m² -3,4 °C -2,3 °C 4,8 km/h (1 Bft)
03.12.2023 02:35 21,6 °C -2,4 °C 43 % 92 % 1018,9 hPa 0,0 l/m² 4,3 km/h (1 Bft) W 268 ° 0 min 0 W/m² -3,5 °C -2,4 °C 6,4 km/h (2 Bft)
03.12.2023 02:37 21,5 °C -2,4 °C 42 % 92 % 1018,8 hPa 0,0 l/m² 4,2 km/h (1 Bft) W-SW 255 ° 0 min 0 W/m² -3,5 °C -2,4 °C 6,4 km/h (2 Bft)
03.12.2023 02:39 21,5 °C -2,5 °C 43 % 92 % 1018,9 hPa 0,0 l/m² 4,4 km/h (1 Bft) W-SW 254 ° 0 min 0 W/m² -3,6 °C -2,5 °C 6,4 km/h (2 Bft)
03.12.2023 02:42 21,5 °C -2,6 °C 43 % 92 % 1018,9 hPa 0,0 l/m² 4,0 km/h (1 Bft) W-SW 258 ° 0 min 0 W/m² -3,7 °C -2,6 °C 6,4 km/h (2 Bft)
03.12.2023 02:43 21,6 °C -2,6 °C 43 % 92 % 1018,9 hPa 0,0 l/m² 3,5 km/h (1 Bft) W 261 ° 0 min 0 W/m² -3,7 °C -2,6 °C 8,0 km/h (2 Bft)
03.12.2023 02:44 21,6 °C -2,7 °C 43 % 92 % 1018,9 hPa 0,0 l/m² 3,4 km/h (1 Bft) W 262 ° 0 min 0 W/m² -3,8 °C -2,7 °C 4,8 km/h (1 Bft)
03.12.2023 02:45 21,6 °C -2,7 °C 43 % 92 % 1018,9 hPa 0,0 l/m² 3,6 km/h (1 Bft) W 266 ° 0 min 0 W/m² -3,8 °C -2,7 °C 4,8 km/h (1 Bft)
03.12.2023 02:47 21,6 °C -2,7 °C 43 % 92 % 1019,0 hPa 0,0 l/m² 3,8 km/h (1 Bft) W 260 ° 0 min 0 W/m² -3,8 °C -2,7 °C 4,8 km/h (1 Bft)
03.12.2023 02:49 21,6 °C -2,8 °C 43 % 92 % 1019,0 hPa 0,0 l/m² 2,7 km/h (1 Bft) W 261 ° 0 min 0 W/m² -3,9 °C -2,8 °C 4,8 km/h (1 Bft)
03.12.2023 02:51 21,6 °C -2,8 °C 43 % 92 % 1019,0 hPa 0,0 l/m² 3,8 km/h (1 Bft) W 263 ° 0 min 0 W/m² -3,9 °C -2,8 °C 4,8 km/h (1 Bft)
03.12.2023 02:52 21,6 °C -2,9 °C 42 % 92 % 1019,0 hPa 0,0 l/m² 1,3 km/h (1 Bft) W 267 ° 0 min 0 W/m² -4,0 °C -2,9 °C 3,2 km/h (1 Bft)
03.12.2023 02:53 21,6 °C -2,9 °C 43 % 92 % 1019,0 hPa 0,0 l/m² 1,2 km/h (1 Bft) W 266 ° 0 min 0 W/m² -4,0 °C -2,9 °C 3,2 km/h (1 Bft)
03.12.2023 02:54 21,6 °C -2,9 °C 43 % 92 % 1019,1 hPa 0,0 l/m² 0,5 km/h (0 Bft) W 266 ° 0 min 0 W/m² -4,0 °C -2,9 °C 1,6 km/h (1 Bft)
03.12.2023 02:56 21,6 °C -3,0 °C 43 % 92 % 1019,1 hPa 0,0 l/m² 2,0 km/h (1 Bft) W 263 ° 0 min 0 W/m² -4,1 °C -3,0 °C 4,8 km/h (1 Bft)
03.12.2023 02:58 21,6 °C -3,1 °C 43 % 92 % 1019,1 hPa 0,0 l/m² 2,6 km/h (1 Bft) W-SW 257 ° 0 min 0 W/m² -4,2 °C -3,1 °C 4,8 km/h (1 Bft)
03.12.2023 03:00 21,6 °C -3,1 °C 43 % 92 % 1019,1 hPa 0,0 l/m² 2,8 km/h (1 Bft) W-SW 256 ° 0 min 0 W/m² -4,2 °C -3,1 °C 4,8 km/h (1 Bft)
03.12.2023 03:01 21,6 °C -3,1 °C 43 % 92 % 1019,1 hPa 0,0 l/m² 3,2 km/h (1 Bft) W-SW 247 ° 0 min 0 W/m² -4,2 °C -3,1 °C 3,2 km/h (1 Bft)
03.12.2023 03:07 21,6 °C -3,2 °C 43 % 92 % 1019,1 hPa 0,0 l/m² 2,6 km/h (1 Bft) W-SW 257 ° 0 min 0 W/m² -4,3 °C -3,2 °C 3,2 km/h (1 Bft)
03.12.2023 03:09 21,6 °C -3,3 °C 43 % 92 % 1019,1 hPa 0,0 l/m² 3,1 km/h (1 Bft) W-SW 257 ° 0 min 0 W/m² -4,4 °C -3,3 °C 4,8 km/h (1 Bft)
03.12.2023 03:10 21,6 °C -3,3 °C 43 % 92 % 1019,1 hPa 0,0 l/m² 4,0 km/h (1 Bft) W 266 ° 0 min 0 W/m² -4,4 °C -3,3 °C 6,4 km/h (2 Bft)
03.12.2023 03:12 21,6 °C -3,3 °C 43 % 92 % 1019,2 hPa 0,0 l/m² 3,7 km/h (1 Bft) W 262 ° 0 min 0 W/m² -4,4 °C -3,3 °C 6,4 km/h (2 Bft)
03.12.2023 03:13 21,6 °C -3,4 °C 43 % 92 % 1019,2 hPa 0,0 l/m² 2,9 km/h (1 Bft) W 269 ° 0 min 0 W/m² -4,5 °C -3,4 °C 4,8 km/h (1 Bft)
03.12.2023 03:15 21,6 °C -3,4 °C 43 % 91 % 1019,1 hPa 0,0 l/m² 1,1 km/h (1 Bft) W 270 ° 0 min 0 W/m² -4,7 °C -3,4 °C 3,2 km/h (1 Bft)
03.12.2023 03:17 21,6 °C -3,5 °C 43 % 91 % 1019,1 hPa 0,0 l/m² 0,1 km/h (0 Bft) W 270 ° 0 min 0 W/m² -4,8 °C -3,5 °C 1,6 km/h (1 Bft)
03.12.2023 03:19 21,6 °C -3,5 °C 43 % 91 % 1019,2 hPa 0,0 l/m² 0,0 km/h (0 Bft) W 270 ° 0 min 0 W/m² -4,8 °C -3,5 °C 0,0 km/h (0 Bft)
03.12.2023 03:20 21,6 °C -3,5 °C 43 % 91 % 1019,1 hPa 0,0 l/m² 0,0 km/h (0 Bft) W 270 ° 0 min 0 W/m² -4,8 °C -3,5 °C 0,0 km/h (0 Bft)
03.12.2023 03:22 21,6 °C -3,6 °C 43 % 91 % 1019,1 hPa 0,0 l/m² 0,0 km/h (0 Bft) W 270 ° 0 min 0 W/m² -4,8 °C -3,6 °C 0,0 km/h (0 Bft)
03.12.2023 03:23 21,6 °C -3,6 °C 43 % 91 % 1019,2 hPa 0,0 l/m² 0,0 km/h (0 Bft) W 270 ° 0 min 0 W/m² -4,8 °C -3,6 °C 0,0 km/h (0 Bft)
03.12.2023 03:25 21,6 °C -3,7 °C 43 % 92 % 1019,2 hPa 0,0 l/m² 0,0 km/h (0 Bft) W 270 ° 0 min 0 W/m² -4,8 °C -3,7 °C 0,0 km/h (0 Bft)
03.12.2023 03:27 21,6 °C -3,7 °C 43 % 92 % 1019,2 hPa 0,0 l/m² 1,3 km/h (1 Bft) W 270 ° 0 min 0 W/m² -4,8 °C -3,7 °C 1,6 km/h (1 Bft)
03.12.2023 03:29 21,6 °C -3,7 °C 43 % 91 % 1019,2 hPa 0,0 l/m² 0,8 km/h (0 Bft) W 269 ° 0 min 0 W/m² -4,9 °C -3,7 °C 1,6 km/h (1 Bft)
03.12.2023 03:30 21,6 °C -3,7 °C 43 % 92 % 1019,2 hPa 0,0 l/m² 0,0 km/h (0 Bft) W 269 ° 0 min 0 W/m² -4,8 °C -3,7 °C 0,0 km/h (0 Bft)
03.12.2023 03:32 21,6 °C -3,7 °C 43 % 92 % 1019,2 hPa 0,0 l/m² 0,0 km/h (0 Bft) W 269 ° 0 min 0 W/m² -4,8 °C -3,7 °C 0,0 km/h (0 Bft)
03.12.2023 03:34 21,6 °C -3,8 °C 43 % 91 % 1019,1 hPa 0,0 l/m² 0,1 km/h (0 Bft) W 269 ° 0 min 0 W/m² -5,0 °C -3,8 °C 1,6 km/h (1 Bft)
03.12.2023 03:36 21,6 °C -3,8 °C 43 % 91 % 1019,2 hPa 0,0 l/m² 0,2 km/h (0 Bft) W 269 ° 0 min 0 W/m² -5,0 °C -3,8 °C 1,6 km/h (1 Bft)
03.12.2023 03:38 21,6 °C -3,8 °C 43 % 91 % 1019,1 hPa 0,0 l/m² 1,8 km/h (1 Bft) W 269 ° 0 min 0 W/m² -5,0 °C -3,8 °C 3,2 km/h (1 Bft)
03.12.2023 03:40 21,6 °C -3,9 °C 43 % 91 % 1019,2 hPa 0,0 l/m² 0,4 km/h (0 Bft) W 269 ° 0 min 0 W/m² -5,1 °C -3,9 °C 1,6 km/h (1 Bft)
03.12.2023 03:41 21,6 °C -3,9 °C 43 % 91 % 1019,2 hPa 0,0 l/m² 0,1 km/h (0 Bft) W 269 ° 0 min 0 W/m² -5,1 °C -3,9 °C 1,6 km/h (1 Bft)
03.12.2023 03:43 21,6 °C -3,9 °C 43 % 91 % 1019,2 hPa 0,0 l/m² 0,0 km/h (0 Bft) W 269 ° 0 min 0 W/m² -5,1 °C -3,9 °C 0,0 km/h (0 Bft)
03.12.2023 03:45 21,6 °C -4,0 °C 43 % 91 % 1019,1 hPa 0,0 l/m² 0,0 km/h (0 Bft) W 269 ° 0 min 0 W/m² -5,2 °C -4,0 °C 0,0 km/h (0 Bft)
03.12.2023 03:46 21,6 °C -4,1 °C 43 % 91 % 1019,1 hPa 0,0 l/m² 0,0 km/h (0 Bft) W 269 ° 0 min 0 W/m² -5,3 °C -4,1 °C 0,0 km/h (0 Bft)
03.12.2023 03:47 21,6 °C -4,1 °C 43 % 91 % 1019,2 hPa 0,0 l/m² 0,0 km/h (0 Bft) W 269 ° 0 min 0 W/m² -5,3 °C -4,1 °C 0,0 km/h (0 Bft)
03.12.2023 03:48 21,6 °C -4,1 °C 43 % 91 % 1019,1 hPa 0,0 l/m² 0,0 km/h (0 Bft) W 269 ° 0 min 0 W/m² -5,3 °C -4,1 °C 0,0 km/h (0 Bft)
03.12.2023 03:50 21,6 °C -4,2 °C 43 % 91 % 1019,1 hPa 0,0 l/m² 0,0 km/h (0 Bft) W 269 ° 0 min 0 W/m² -5,4 °C -4,2 °C 0,0 km/h (0 Bft)
03.12.2023 03:51 21,6 °C -4,2 °C 43 % 91 % 1019,1 hPa 0,0 l/m² 0,0 km/h (0 Bft) W 269 ° 0 min 0 W/m² -5,4 °C -4,2 °C 0,0 km/h (0 Bft)
03.12.2023 03:53 21,6 °C -4,3 °C 43 % 91 % 1019,1 hPa 0,0 l/m² 0,0 km/h (0 Bft) W 269 ° 0 min 0 W/m² -5,5 °C -4,3 °C 0,0 km/h (0 Bft)
03.12.2023 03:55 21,6 °C -4,3 °C 43 % 91 % 1019,1 hPa 0,0 l/m² 0,0 km/h (0 Bft) W 269 ° 0 min 0 W/m² -5,5 °C -4,3 °C 0,0 km/h (0 Bft)
03.12.2023 03:57 21,6 °C -4,3 °C 43 % 91 % 1019,2 hPa 0,0 l/m² 0,0 km/h (0 Bft) W 269 ° 0 min 0 W/m² -5,5 °C -4,3 °C 0,0 km/h (0 Bft)
03.12.2023 03:59 21,6 °C -4,4 °C 43 % 91 % 1019,2 hPa 0,0 l/m² 0,0 km/h (0 Bft) W 269 ° 0 min 0 W/m² -5,6 °C -4,4 °C 0,0 km/h (0 Bft)
03.12.2023 04:00 21,6 °C -4,4 °C 43 % 91 % 1019,2 hPa 0,0 l/m² 0,0 km/h (0 Bft) W 269 ° 0 min 0 W/m² -5,6 °C -4,4 °C 0,0 km/h (0 Bft)
03.12.2023 04:02 21,6 °C -4,4 °C 43 % 91 % 1019,2 hPa 0,0 l/m² 0,0 km/h (0 Bft) W 269 ° 0 min 0 W/m² -5,6 °C -4,4 °C 0,0 km/h (0 Bft)
03.12.2023 04:04 21,6 °C -4,6 °C 43 % 91 % 1019,2 hPa 0,0 l/m² 0,0 km/h (0 Bft) W 269 ° 0 min 0 W/m² -5,8 °C -4,6 °C 0,0 km/h (0 Bft)
03.12.2023 04:06 21,6 °C -4,6 °C 43 % 91 % 1019,2 hPa 0,0 l/m² 0,0 km/h (0 Bft) W 269 ° 0 min 0 W/m² -5,8 °C -4,6 °C 0,0 km/h (0 Bft)
03.12.2023 04:08 21,6 °C -4,6 °C 43 % 91 % 1019,2 hPa 0,0 l/m² 0,0 km/h (0 Bft) W 269 ° 0 min 0 W/m² -5,8 °C -4,6 °C 0,0 km/h (0 Bft)
03.12.2023 04:10 21,6 °C -4,7 °C 43 % 91 % 1019,2 hPa 0,0 l/m² 0,0 km/h (0 Bft) W 269 ° 0 min 0 W/m² -5,9 °C -4,7 °C 0,0 km/h (0 Bft)
03.12.2023 04:11 21,6 °C -4,7 °C 43 % 91 % 1019,2 hPa 0,0 l/m² 0,0 km/h (0 Bft) W 269 ° 0 min 0 W/m² -5,9 °C -4,7 °C 0,0 km/h (0 Bft)
03.12.2023 04:13 21,6 °C -4,8 °C 43 % 91 % 1019,2 hPa 0,0 l/m² 0,0 km/h (0 Bft) W 269 ° 0 min 0 W/m² -6,0 °C -4,8 °C 0,0 km/h (0 Bft)
03.12.2023 04:15 21,6 °C -4,8 °C 43 % 91 % 1019,2 hPa 0,0 l/m² 0,1 km/h (0 Bft) W 269 ° 0 min 0 W/m² -6,0 °C -4,8 °C 1,6 km/h (1 Bft)
03.12.2023 04:17 21,6 °C -4,8 °C 43 % 91 % 1019,2 hPa 0,0 l/m² 0,0 km/h (0 Bft) W 269 ° 0 min 0 W/m² -6,0 °C -4,8 °C 0,0 km/h (0 Bft)
03.12.2023 04:19 21,6 °C -4,9 °C 43 % 91 % 1019,3 hPa 0,0 l/m² 0,0 km/h (0 Bft) W 269 ° 0 min 0 W/m² -6,1 °C -4,9 °C 0,0 km/h (0 Bft)
03.12.2023 04:20 21,6 °C -4,9 °C 43 % 91 % 1019,2 hPa 0,0 l/m² 0,1 km/h (0 Bft) W 269 ° 0 min 0 W/m² -6,1 °C -4,9 °C 1,6 km/h (1 Bft)
03.12.2023 04:22 21,6 °C -5,0 °C 43 % 91 % 1019,2 hPa 0,0 l/m² 0,0 km/h (0 Bft) W 269 ° 0 min 0 W/m² -6,2 °C -5,0 °C 0,0 km/h (0 Bft)
03.12.2023 04:24 21,6 °C -5,0 °C 43 % 91 % 1019,2 hPa 0,0 l/m² 0,0 km/h (0 Bft) W 269 ° 0 min 0 W/m² -6,2 °C -5,0 °C 0,0 km/h (0 Bft)
03.12.2023 04:26 21,6 °C -5,1 °C 43 % 91 % 1019,3 hPa 0,0 l/m² 0,0 km/h (0 Bft) W 269 ° 0 min 0 W/m² -6,3 °C -5,1 °C 0,0 km/h (0 Bft)
03.12.2023 04:28 21,6 °C -5,1 °C 43 % 91 % 1019,3 hPa 0,0 l/m² 0,0 km/h (0 Bft) W 269 ° 0 min 0 W/m² -6,3 °C -5,1 °C 0,0 km/h (0 Bft)
03.12.2023 04:30 21,6 °C -5,1 °C 43 % 91 % 1019,2 hPa 0,0 l/m² 0,0 km/h (0 Bft) W 269 ° 0 min 0 W/m² -6,3 °C -5,1 °C 0,0 km/h (0 Bft)
03.12.2023 04:31 21,6 °C -5,1 °C 43 % 91 % 1019,2 hPa 0,0 l/m² 0,0 km/h (0 Bft) W 269 ° 0 min 0 W/m² -6,3 °C -5,1 °C 0,0 km/h (0 Bft)
03.12.2023 04:33 21,6 °C -5,2 °C 43 % 91 % 1019,3 hPa 0,0 l/m² 0,0 km/h (0 Bft) W 269 ° 0 min 0 W/m² -6,4 °C -5,2 °C 0,0 km/h (0 Bft)
03.12.2023 04:35 21,6 °C -5,2 °C 43 % 91 % 1019,2 hPa 0,0 l/m² 0,0 km/h (0 Bft) W 269 ° 0 min 0 W/m² -6,4 °C -5,2 °C 0,0 km/h (0 Bft)
03.12.2023 04:37 21,6 °C -5,2 °C 43 % 91 % 1019,2 hPa 0,0 l/m² 0,0 km/h (0 Bft) W 269 ° 0 min 0 W/m² -6,4 °C -5,2 °C 0,0 km/h (0 Bft)
03.12.2023 04:39 21,6 °C -5,3 °C 43 % 91 % 1019,3 hPa 0,0 l/m² 0,0 km/h (0 Bft) W 269 ° 0 min 0 W/m² -6,5 °C -5,3 °C 0,0 km/h (0 Bft)
03.12.2023 04:40 21,6 °C -5,2 °C 43 % 91 % 1019,3 hPa 0,0 l/m² 0,0 km/h (0 Bft) W 269 ° 0 min 0 W/m² -6,4 °C -5,2 °C 0,0 km/h (0 Bft)
03.12.2023 04:42 21,6 °C -5,3 °C 43 % 91 % 1019,2 hPa 0,0 l/m² 0,0 km/h (0 Bft) W 269 ° 0 min 0 W/m² -6,5 °C -5,3 °C 0,0 km/h (0 Bft)
03.12.2023 04:44 21,6 °C -5,3 °C 43 % 91 % 1019,3 hPa 0,0 l/m² 0,0 km/h (0 Bft) W 269 ° 0 min 0 W/m² -6,5 °C -5,3 °C 0,0 km/h (0 Bft)
03.12.2023 04:46 21,6 °C -5,3 °C 43 % 91 % 1019,2 hPa 0,0 l/m² 0,0 km/h (0 Bft) W 269 ° 0 min 0 W/m² -6,5 °C -5,3 °C 0,0 km/h (0 Bft)
03.12.2023 04:48 21,6 °C -5,3 °C 43 % 91 % 1019,2 hPa 0,0 l/m² 0,0 km/h (0 Bft) W 269 ° 0 min 0 W/m² -6,5 °C -5,3 °C 0,0 km/h (0 Bft)
03.12.2023 04:50 21,6 °C -5,2 °C 43 % 91 % 1019,3 hPa 0,0 l/m² 0,0 km/h (0 Bft) W 269 ° 0 min 0 W/m² -6,4 °C -5,2 °C 0,0 km/h (0 Bft)
03.12.2023 04:51 21,6 °C -5,2 °C 43 % 91 % 1019,3 hPa 0,0 l/m² 0,0 km/h (0 Bft) W 269 ° 0 min 0 W/m² -6,4 °C -5,2 °C 0,0 km/h (0 Bft)
03.12.2023 04:53 21,6 °C -5,2 °C 43 % 91 % 1019,3 hPa 0,0 l/m² 0,0 km/h (0 Bft) W 269 ° 0 min 0 W/m² -6,4 °C -5,2 °C 0,0 km/h (0 Bft)
03.12.2023 04:55 21,6 °C -5,2 °C 43 % 91 % 1019,3 hPa 0,0 l/m² 0,0 km/h (0 Bft) W 269 ° 0 min 0 W/m² -6,4 °C -5,2 °C 0,0 km/h (0 Bft)
03.12.2023 04:57 21,6 °C -5,2 °C 43 % 91 % 1019,3 hPa 0,0 l/m² 0,0 km/h (0 Bft) W 269 ° 0 min 0 W/m² -6,4 °C -5,2 °C 0,0 km/h (0 Bft)
03.12.2023 04:59 21,6 °C -5,2 °C 43 % 91 % 1019,3 hPa 0,0 l/m² 0,0 km/h (0 Bft) W 269 ° 0 min 0 W/m² -6,4 °C -5,2 °C 0,0 km/h (0 Bft)
03.12.2023 05:01 21,6 °C -5,2 °C 43 % 91 % 1019,2 hPa 0,0 l/m² 0,0 km/h (0 Bft) W 269 ° 0 min 0 W/m² -6,4 °C -5,2 °C 0,0 km/h (0 Bft)
03.12.2023 05:02 21,6 °C -5,2 °C 43 % 91 % 1019,2 hPa 0,0 l/m² 0,0 km/h (0 Bft) W 269 ° 0 min 0 W/m² -6,4 °C -5,2 °C 0,0 km/h (0 Bft)
03.12.2023 05:03 21,6 °C -5,1 °C 43 % 91 % 1019,2 hPa 0,0 l/m² 0,1 km/h (0 Bft) W 269 ° 0 min 0 W/m² -6,3 °C -5,1 °C 1,6 km/h (1 Bft)
03.12.2023 05:04 21,6 °C -5,1 °C 43 % 91 % 1019,2 hPa 0,0 l/m² 0,0 km/h (0 Bft) W 269 ° 0 min 0 W/m² -6,3 °C -5,1 °C 0,0 km/h (0 Bft)
03.12.2023 05:06 21,6 °C -5,1 °C 43 % 92 % 1019,4 hPa 0,0 l/m² 0,0 km/h (0 Bft) W 269 ° 0 min 0 W/m² -6,2 °C -5,1 °C 0,0 km/h (0 Bft)
03.12.2023 05:08 21,6 °C -5,1 °C 43 % 92 % 1019,3 hPa 0,0 l/m² 0,0 km/h (0 Bft) W 269 ° 0 min 0 W/m² -6,2 °C -5,1 °C 0,0 km/h (0 Bft)
03.12.2023 05:10 21,6 °C -5,0 °C 43 % 92 % 1019,3 hPa 0,0 l/m² 0,0 km/h (0 Bft) W 270 ° 0 min 0 W/m² -6,1 °C -5,0 °C 0,0 km/h (0 Bft)
03.12.2023 05:11 21,6 °C -5,0 °C 43 % 92 % 1019,3 hPa 0,0 l/m² 0,0 km/h (0 Bft) W 270 ° 0 min 0 W/m² -6,1 °C -5,0 °C 0,0 km/h (0 Bft)
03.12.2023 05:13 21,6 °C -4,9 °C 43 % 92 % 1019,4 hPa 0,0 l/m² 0,0 km/h (0 Bft) W 270 ° 0 min 0 W/m² -6,0 °C -4,9 °C 0,0 km/h (0 Bft)
03.12.2023 05:15 21,6 °C -4,9 °C 43 % 92 % 1019,3 hPa 0,0 l/m² 0,0 km/h (0 Bft) W 270 ° 0 min 0 W/m² -6,0 °C -4,9 °C 0,0 km/h (0 Bft)
03.12.2023 05:17 21,6 °C -4,9 °C 43 % 92 % 1019,5 hPa 0,0 l/m² 0,0 km/h (0 Bft) W 270 ° 0 min 0 W/m² -6,0 °C -4,9 °C 0,0 km/h (0 Bft)
03.12.2023 05:19 21,6 °C -4,9 °C 43 % 92 % 1019,4 hPa 0,0 l/m² 0,0 km/h (0 Bft) W 270 ° 0 min 0 W/m² -6,0 °C -4,9 °C 0,0 km/h (0 Bft)
03.12.2023 05:21 21,6 °C -4,9 °C 43 % 92 % 1019,4 hPa 0,0 l/m² 0,0 km/h (0 Bft) W 270 ° 0 min 0 W/m² -6,0 °C -4,9 °C 0,0 km/h (0 Bft)
03.12.2023 05:22 21,6 °C -4,9 °C 43 % 92 % 1019,5 hPa 0,0 l/m² 0,0 km/h (0 Bft) W 270 ° 0 min 0 W/m² -6,0 °C -4,9 °C 0,0 km/h (0 Bft)
03.12.2023 05:23 21,6 °C -4,8 °C 43 % 92 % 1019,5 hPa 0,0 l/m² 0,0 km/h (0 Bft) W 270 ° 0 min 0 W/m² -5,9 °C -4,8 °C 0,0 km/h (0 Bft)
03.12.2023 05:24 21,6 °C -4,8 °C 43 % 92 % 1019,4 hPa 0,0 l/m² 0,0 km/h (0 Bft) W 270 ° 0 min 0 W/m² -5,9 °C -4,8 °C 0,0 km/h (0 Bft)
03.12.2023 05:26 21,6 °C -4,8 °C 43 % 92 % 1019,4 hPa 0,0 l/m² 0,0 km/h (0 Bft) W 270 ° 0 min 0 W/m² -5,9 °C -4,8 °C 0,0 km/h (0 Bft)
03.12.2023 05:28 21,6 °C -4,8 °C 43 % 92 % 1019,4 hPa 0,0 l/m² 0,0 km/h (0 Bft) W 270 ° 0 min 0 W/m² -5,9 °C -4,8 °C 0,0 km/h (0 Bft)
03.12.2023 05:30 21,6 °C -4,8 °C 43 % 92 % 1019,4 hPa 0,0 l/m² 0,0 km/h (0 Bft) W 270 ° 0 min 0 W/m² -5,9 °C -4,8 °C 0,0 km/h (0 Bft)
03.12.2023 05:31 21,6 °C -4,8 °C 43 % 92 % 1019,4 hPa 0,0 l/m² 0,0 km/h (0 Bft) W 270 ° 0 min 0 W/m² -5,9 °C -4,8 °C 0,0 km/h (0 Bft)
03.12.2023 05:33 21,6 °C -4,7 °C 43 % 92 % 1019,4 hPa 0,0 l/m² 0,0 km/h (0 Bft) W 270 ° 0 min 0 W/m² -5,8 °C -4,7 °C 0,0 km/h (0 Bft)
03.12.2023 05:35 21,6 °C -4,7 °C 43 % 92 % 1019,5 hPa 0,0 l/m² 0,0 km/h (0 Bft) W 270 ° 0 min 0 W/m² -5,8 °C -4,7 °C 0,0 km/h (0 Bft)
03.12.2023 05:37 21,6 °C -4,7 °C 43 % 92 % 1019,5 hPa 0,0 l/m² 0,0 km/h (0 Bft) W 270 ° 0 min 0 W/m² -5,8 °C -4,7 °C 0,0 km/h (0 Bft)
03.12.2023 05:39 21,6 °C -4,7 °C 43 % 92 % 1019,4 hPa 0,0 l/m² 0,0 km/h (0 Bft) W 270 ° 0 min 0 W/m² -5,8 °C -4,7 °C 0,0 km/h (0 Bft)
03.12.2023 05:41 21,6 °C -4,7 °C 43 % 92 % 1019,6 hPa 0,0 l/m² 0,0 km/h (0 Bft) W 270 ° 0 min 0 W/m² -5,8 °C -4,7 °C 0,0 km/h (0 Bft)
03.12.2023 05:42 21,6 °C -4,7 °C 43 % 92 % 1019,6 hPa 0,0 l/m² 0,0 km/h (0 Bft) W 270 ° 0 min 0 W/m² -5,8 °C -4,7 °C 0,0 km/h (0 Bft)
03.12.2023 05:43 21,6 °C -4,6 °C 43 % 92 % 1019,6 hPa 0,0 l/m² 0,0 km/h (0 Bft) W 270 ° 0 min 0 W/m² -5,7 °C -4,6 °C 0,0 km/h (0 Bft)
03.12.2023 05:44 21,6 °C -4,6 °C 43 % 92 % 1019,5 hPa 0,0 l/m² 0,0 km/h (0 Bft) W 270 ° 0 min 0 W/m² -5,7 °C -4,6 °C 0,0 km/h (0 Bft)
03.12.2023 05:46 21,6 °C -4,6 °C 43 % 92 % 1019,5 hPa 0,0 l/m² 0,0 km/h (0 Bft) W 270 ° 0 min 0 W/m² -5,7 °C -4,6 °C 0,0 km/h (0 Bft)
03.12.2023 05:48 21,6 °C -4,6 °C 43 % 92 % 1019,7 hPa 0,0 l/m² 0,0 km/h (0 Bft) W 270 ° 0 min 0 W/m² -5,7 °C -4,6 °C 0,0 km/h (0 Bft)
03.12.2023 05:50 21,6 °C -4,6 °C 43 % 92 % 1019,6 hPa 0,0 l/m² 0,0 km/h (0 Bft) W 270 ° 0 min 0 W/m² -5,7 °C -4,6 °C 0,0 km/h (0 Bft)
03.12.2023 05:51 21,6 °C -4,6 °C 43 % 92 % 1019,6 hPa 0,0 l/m² 0,0 km/h (0 Bft) W 270 ° 0 min 0 W/m² -5,7 °C -4,6 °C 0,0 km/h (0 Bft)
03.12.2023 05:52 21,6 °C -4,6 °C 43 % 92 % 1019,6 hPa 0,0 l/m² 0,0 km/h (0 Bft) W 270 ° 0 min 0 W/m² -5,7 °C -4,6 °C 0,0 km/h (0 Bft)
03.12.2023 05:53 21,6 °C -4,5 °C 43 % 92 % 1019,6 hPa 0,0 l/m² 0,0 km/h (0 Bft) W 270 ° 0 min 0 W/m² -5,6 °C -4,5 °C 0,0 km/h (0 Bft)
03.12.2023 05:54 21,6 °C -4,5 °C 43 % 92 % 1019,6 hPa 0,0 l/m² 0,0 km/h (0 Bft) W 270 ° 0 min 0 W/m² -5,6 °C -4,5 °C 0,0 km/h (0 Bft)
03.12.2023 05:56 21,6 °C -4,4 °C 43 % 92 % 1019,6 hPa 0,0 l/m² 0,0 km/h (0 Bft) W 270 ° 0 min 0 W/m² -5,5 °C -4,4 °C 0,0 km/h (0 Bft)
03.12.2023 05:58 21,6 °C -4,4 °C 43 % 92 % 1019,7 hPa 0,0 l/m² 0,0 km/h (0 Bft) W 270 ° 0 min 0 W/m² -5,5 °C -4,4 °C 0,0 km/h (0 Bft)
03.12.2023 06:00 21,6 °C -4,4 °C 43 % 92 % 1019,7 hPa 0,0 l/m² 0,0 km/h (0 Bft) W 270 ° 0 min 0 W/m² -5,5 °C -4,4 °C 0,0 km/h (0 Bft)
03.12.2023 06:01 21,7 °C -4,3 °C 43 % 92 % 1019,8 hPa 0,0 l/m² 0,6 km/h (0 Bft) W 270 ° 0 min 0 W/m² -5,4 °C -4,3 °C 1,6 km/h (1 Bft)
03.12.2023 06:03 21,7 °C -4,3 °C 43 % 92 % 1019,7 hPa 0,0 l/m² 0,9 km/h (0 Bft) W 270 ° 0 min 0 W/m² -5,4 °C -4,3 °C 1,6 km/h (1 Bft)
03.12.2023 06:05 21,7 °C -4,3 °C 43 % 92 % 1019,7 hPa 0,0 l/m² 0,0 km/h (0 Bft) W 270 ° 0 min 0 W/m² -5,4 °C -4,3 °C 0,0 km/h (0 Bft)
03.12.2023 06:07 21,7 °C -4,2 °C 43 % 92 % 1019,8 hPa 0,0 l/m² 0,0 km/h (0 Bft) W 270 ° 0 min 0 W/m² -5,3 °C -4,2 °C 0,0 km/h (0 Bft)
03.12.2023 06:09 21,7 °C -4,2 °C 43 % 92 % 1019,8 hPa 0,0 l/m² 0,0 km/h (0 Bft) W 270 ° 0 min 0 W/m² -5,3 °C -4,2 °C 0,0 km/h (0 Bft)
03.12.2023 06:11 21,7 °C -4,2 °C 43 % 93 % 1019,8 hPa 0,0 l/m² 0,0 km/h (0 Bft) W 270 ° 0 min 0 W/m² -5,2 °C -4,2 °C 0,0 km/h (0 Bft)
03.12.2023 06:12 21,7 °C -4,1 °C 43 % 93 % 1019,8 hPa 0,0 l/m² 0,5 km/h (0 Bft) W 269 ° 0 min 0 W/m² -5,1 °C -4,1 °C 1,6 km/h (1 Bft)
03.12.2023 06:13 21,7 °C -4,1 °C 43 % 93 % 1019,8 hPa 0,0 l/m² 0,0 km/h (0 Bft) W 269 ° 0 min 0 W/m² -5,1 °C -4,1 °C 0,0 km/h (0 Bft)
03.12.2023 06:14 21,6 °C -4,1 °C 43 % 93 % 1019,8 hPa 0,0 l/m² 0,0 km/h (0 Bft) W 269 ° 0 min 0 W/m² -5,1 °C -4,1 °C 0,0 km/h (0 Bft)
03.12.2023 06:16 21,7 °C -4,0 °C 43 % 93 % 1019,8 hPa 0,0 l/m² 0,0 km/h (0 Bft) W 269 ° 0 min 0 W/m² -5,0 °C -4,0 °C 0,0 km/h (0 Bft)
03.12.2023 06:18 21,7 °C -3,9 °C 43 % 93 % 1019,7 hPa 0,0 l/m² 0,4 km/h (0 Bft) SW 230 ° 0 min 0 W/m² -4,9 °C -3,9 °C 3,2 km/h (1 Bft)
03.12.2023 06:20 21,7 °C -3,8 °C 43 % 93 % 1019,8 hPa 0,0 l/m² 4,0 km/h (1 Bft) SW 223 ° 0 min 0 W/m² -4,8 °C -3,8 °C 6,4 km/h (2 Bft)
03.12.2023 06:21 21,7 °C -3,7 °C 43 % 93 % 1019,8 hPa 0,0 l/m² 5,8 km/h (2 Bft) SW 215 ° 0 min 0 W/m² -4,7 °C -3,7 °C 8,0 km/h (2 Bft)
03.12.2023 06:22 21,7 °C -3,7 °C 43 % 93 % 1019,8 hPa 0,0 l/m² 6,0 km/h (2 Bft) S-SW 207 ° 0 min 0 W/m² -4,7 °C -3,7 °C 8,0 km/h (2 Bft)
03.12.2023 06:23 21,7 °C -3,5 °C 43 % 93 % 1019,8 hPa 0,0 l/m² 3,6 km/h (1 Bft) SW 227 ° 0 min 0 W/m² -4,5 °C -3,5 °C 6,4 km/h (2 Bft)
03.12.2023 06:25 21,7 °C -3,3 °C 43 % 93 % 1019,8 hPa 0,0 l/m² 5,5 km/h (2 Bft) SW 215 ° 0 min 0 W/m² -4,3 °C -3,3 °C 9,7 km/h (2 Bft)
03.12.2023 06:27 21,7 °C -3,1 °C 43 % 93 % 1019,7 hPa 0,0 l/m² 3,8 km/h (1 Bft) SW 229 ° 0 min 0 W/m² -4,1 °C -3,1 °C 6,4 km/h (2 Bft)
03.12.2023 06:29 21,7 °C -2,9 °C 43 % 93 % 1019,7 hPa 0,0 l/m² 4,9 km/h (1 Bft) S-SW 213 ° 0 min 0 W/m² -3,9 °C -2,9 °C 8,0 km/h (2 Bft)
03.12.2023 06:31 21,7 °C -2,8 °C 43 % 93 % 1019,7 hPa 0,0 l/m² 5,2 km/h (1 Bft) SW 222 ° 0 min 0 W/m² -3,8 °C -2,8 °C 9,7 km/h (2 Bft)
03.12.2023 06:32 21,6 °C -2,8 °C 43 % 93 % 1019,7 hPa 0,0 l/m² 6,0 km/h (2 Bft) SW 226 ° 0 min 0 W/m² -3,8 °C -2,8 °C 9,7 km/h (2 Bft)
03.12.2023 06:33 21,7 °C -2,7 °C 43 % 94 % 1019,8 hPa 0,0 l/m² 4,8 km/h (1 Bft) SW 227 ° 0 min 0 W/m² -3,5 °C -2,7 °C 6,4 km/h (2 Bft)
03.12.2023 06:34 21,7 °C -2,7 °C 43 % 93 % 1019,8 hPa 0,0 l/m² 3,7 km/h (1 Bft) SW 227 ° 0 min 0 W/m² -3,7 °C -2,7 °C 6,4 km/h (2 Bft)
03.12.2023 06:36 21,7 °C -2,6 °C 43 % 93 % 1019,8 hPa 0,0 l/m² 5,2 km/h (1 Bft) SW 231 ° 0 min 0 W/m² -3,6 °C -2,6 °C 8,0 km/h (2 Bft)
03.12.2023 06:38 21,7 °C -2,5 °C 43 % 93 % 1019,8 hPa 0,0 l/m² 4,0 km/h (1 Bft) SW 218 ° 0 min 0 W/m² -3,5 °C -2,5 °C 8,0 km/h (2 Bft)
03.12.2023 06:40 21,7 °C -2,4 °C 43 % 93 % 1019,8 hPa 0,0 l/m² 3,3 km/h (1 Bft) SW 223 ° 0 min 0 W/m² -3,4 °C -2,4 °C 6,4 km/h (2 Bft)
03.12.2023 06:41 21,7 °C -2,4 °C 43 % 93 % 1019,8 hPa 0,0 l/m² 2,4 km/h (1 Bft) SW 223 ° 0 min 0 W/m² -3,4 °C -2,4 °C 4,8 km/h (1 Bft)
03.12.2023 06:43 21,7 °C -2,3 °C 43 % 93 % 1019,8 hPa 0,0 l/m² 2,3 km/h (1 Bft) SW 233 ° 0 min 0 W/m² -3,3 °C -2,3 °C 6,4 km/h (2 Bft)
03.12.2023 06:45 21,7 °C -2,3 °C 43 % 93 % 1019,9 hPa 0,0 l/m² 0,5 km/h (0 Bft) SW 233 ° 0 min 0 W/m² -3,3 °C -2,3 °C 3,2 km/h (1 Bft)
03.12.2023 06:46 21,7 °C -2,3 °C 43 % 93 % 1019,9 hPa 0,0 l/m² 0,0 km/h (0 Bft) SW 233 ° 0 min 0 W/m² -3,3 °C -2,3 °C 3,2 km/h (1 Bft)
03.12.2023 06:47 21,7 °C -2,3 °C 43 % 93 % 1019,9 hPa 0,0 l/m² 1,0 km/h (0 Bft) SW 232 ° 0 min 0 W/m² -3,3 °C -2,3 °C 4,8 km/h (1 Bft)
03.12.2023 06:48 21,7 °C -2,3 °C 43 % 93 % 1019,9 hPa 0,0 l/m² 1,0 km/h (0 Bft) SW 234 ° 0 min 0 W/m² -3,3 °C -2,3 °C 3,2 km/h (1 Bft)
03.12.2023 06:50 21,7 °C -2,3 °C 43 % 93 % 1020,0 hPa 0,0 l/m² 1,9 km/h (1 Bft) SW 234 ° 0 min 0 W/m² -3,3 °C -2,3 °C 3,2 km/h (1 Bft)
03.12.2023 06:51 21,6 °C -2,3 °C 43 % 93 % 1019,9 hPa 0,0 l/m² 0,7 km/h (0 Bft) SW 234 ° 0 min 0 W/m² -3,3 °C -2,3 °C 3,2 km/h (1 Bft)
03.12.2023 06:52 21,7 °C -2,3 °C 43 % 93 % 1020,0 hPa 0,0 l/m² 0,0 km/h (0 Bft) SW 234 ° 0 min 0 W/m² -3,3 °C -2,3 °C 0,0 km/h (0 Bft)
03.12.2023 06:53 21,6 °C -2,2 °C 43 % 93 % 1020,0 hPa 0,0 l/m² 0,0 km/h (0 Bft) SW 234 ° 0 min 0 W/m² -3,2 °C -2,2 °C 0,0 km/h (0 Bft)
03.12.2023 06:55 21,7 °C -2,2 °C 43 % 93 % 1020,0 hPa 0,0 l/m² 0,3 km/h (0 Bft) SW 234 ° 0 min 0 W/m² -3,2 °C -2,2 °C 1,6 km/h (1 Bft)
03.12.2023 06:57 21,6 °C -2,2 °C 43 % 93 % 1020,0 hPa 0,0 l/m² 0,8 km/h (0 Bft) SW 234 ° 0 min 0 W/m² -3,2 °C -2,2 °C 3,2 km/h (1 Bft)
03.12.2023 06:59 21,6 °C -2,2 °C 43 % 93 % 1020,0 hPa 0,0 l/m² 0,0 km/h (0 Bft) SW 234 ° 0 min 0 W/m² -3,2 °C -2,2 °C 0,0 km/h (0 Bft)
03.12.2023 07:00 21,6 °C -2,2 °C 43 % 93 % 1020,0 hPa 0,0 l/m² 0,2 km/h (0 Bft) SW 234 ° 0 min 0 W/m² -3,2 °C -2,2 °C 1,6 km/h (1 Bft)
03.12.2023 07:02 21,6 °C -2,2 °C 43 % 93 % 1020,1 hPa 0,0 l/m² 0,0 km/h (0 Bft) SW 234 ° 0 min 0 W/m² -3,2 °C -2,2 °C 0,0 km/h (0 Bft)
03.12.2023 07:04 21,6 °C -2,2 °C 43 % 93 % 1020,1 hPa 0,0 l/m² 0,1 km/h (0 Bft) SW 234 ° 0 min 0 W/m² -3,2 °C -2,2 °C 1,6 km/h (1 Bft)
03.12.2023 07:06 21,7 °C -2,1 °C 43 % 93 % 1020,0 hPa 0,0 l/m² 0,0 km/h (0 Bft) SW 234 ° 0 min 0 W/m² -3,1 °C -2,1 °C 0,0 km/h (0 Bft)
03.12.2023 07:08 21,7 °C -2,2 °C 43 % 93 % 1020,0 hPa 0,0 l/m² 0,0 km/h (0 Bft) SW 234 ° 0 min 0 W/m² -3,2 °C -2,2 °C 0,0 km/h (0 Bft)
03.12.2023 07:10 21,6 °C -2,2 °C 43 % 93 % 1020,0 hPa 0,0 l/m² 0,0 km/h (0 Bft) SW 234 ° 0 min 0 W/m² -3,2 °C -2,2 °C 0,0 km/h (0 Bft)
03.12.2023 07:11 21,6 °C -2,1 °C 43 % 93 % 1020,1 hPa 0,0 l/m² 0,0 km/h (0 Bft) SW 234 ° 0 min 0 W/m² -3,1 °C -2,1 °C 0,0 km/h (0 Bft)
03.12.2023 07:12 21,6 °C -2,1 °C 43 % 93 % 1020,0 hPa 0,0 l/m² 0,0 km/h (0 Bft) SW 234 ° 0 min 0 W/m² -3,1 °C -2,1 °C 0,0 km/h (0 Bft)
03.12.2023 07:13 21,6 °C -2,1 °C 43 % 93 % 1020,0 hPa 0,0 l/m² 0,4 km/h (0 Bft) SW 234 ° 0 min 0 W/m² -3,1 °C -2,1 °C 1,6 km/h (1 Bft)
03.12.2023 07:15 21,6 °C -2,1 °C 43 % 93 % 1020,0 hPa 0,0 l/m² 0,0 km/h (0 Bft) SW 234 ° 0 min 0 W/m² -3,1 °C -2,1 °C 0,0 km/h (0 Bft)
03.12.2023 07:17 21,6 °C -2,1 °C 43 % 93 % 1020,0 hPa 0,0 l/m² 0,0 km/h (0 Bft) SW 234 ° 0 min 0 W/m² -3,1 °C -2,1 °C 0,0 km/h (0 Bft)
03.12.2023 07:19 21,6 °C -2,1 °C 43 % 93 % 1020,0 hPa 0,0 l/m² 0,0 km/h (0 Bft) SW 234 ° 0 min 0 W/m² -3,1 °C -2,1 °C 0,0 km/h (0 Bft)
03.12.2023 07:20 21,6 °C -2,1 °C 43 % 93 % 1020,1 hPa 0,0 l/m² 0,0 km/h (0 Bft) SW 234 ° 0 min 0 W/m² -3,1 °C -2,1 °C 0,0 km/h (0 Bft)
03.12.2023 07:22 21,6 °C -2,1 °C 43 % 93 % 1020,1 hPa 0,0 l/m² 0,0 km/h (0 Bft) SW 234 ° 0 min 0 W/m² -3,1 °C -2,1 °C 0,0 km/h (0 Bft)
03.12.2023 07:24 21,6 °C -2,1 °C 43 % 93 % 1020,2 hPa 0,0 l/m² 0,0 km/h (0 Bft) SW 234 ° 0 min 0 W/m² -3,1 °C -2,1 °C 0,0 km/h (0 Bft)
03.12.2023 07:26 21,6 °C -2,1 °C 43 % 93 % 1020,1 hPa 0,0 l/m² 0,0 km/h (0 Bft) SW 234 ° 0 min 0 W/m² -3,1 °C -2,1 °C 0,0 km/h (0 Bft)
03.12.2023 07:28 21,6 °C -2,1 °C 43 % 93 % 1020,1 hPa 0,0 l/m² 0,0 km/h (0 Bft) SW 234 ° 0 min 0 W/m² -3,1 °C -2,1 °C 0,0 km/h (0 Bft)
03.12.2023 07:30 21,6 °C -2,1 °C 43 % 93 % 1020,1 hPa 0,0 l/m² 0,0 km/h (0 Bft) SW 234 ° 0 min 0 W/m² -3,1 °C -2,1 °C 0,0 km/h (0 Bft)
03.12.2023 07:31 21,6 °C -2,1 °C 43 % 93 % 1020,2 hPa 0,0 l/m² 0,0 km/h (0 Bft) SW 234 ° 0 min 0 W/m² -3,1 °C -2,1 °C 0,0 km/h (0 Bft)
03.12.2023 07:33 21,6 °C -2,1 °C 43 % 93 % 1020,1 hPa 0,0 l/m² 0,0 km/h (0 Bft) SW 234 ° 0 min 0 W/m² -3,1 °C -2,1 °C 0,0 km/h (0 Bft)
03.12.2023 07:35 21,6 °C -2,1 °C 43 % 93 % 1020,2 hPa 0,0 l/m² 0,0 km/h (0 Bft) SW 234 ° 0 min 0 W/m² -3,1 °C -2,1 °C 0,0 km/h (0 Bft)
03.12.2023 07:37 21,6 °C -2,1 °C 43 % 93 % 1020,3 hPa 0,0 l/m² 0,0 km/h (0 Bft) SW 234 ° 0 min 0 W/m² -3,1 °C -2,1 °C 0,0 km/h (0 Bft)
03.12.2023 07:39 21,6 °C -2,1 °C 43 % 93 % 1020,3 hPa 0,0 l/m² 0,0 km/h (0 Bft) SW 234 ° 0 min 0 W/m² -3,1 °C -2,1 °C 0,0 km/h (0 Bft)
03.12.2023 07:40 21,6 °C -2,1 °C 43 % 93 % 1020,2 hPa 0,0 l/m² 0,0 km/h (0 Bft) SW 234 ° 0 min 0 W/m² -3,1 °C -2,1 °C 0,0 km/h (0 Bft)
03.12.2023 07:41 21,6 °C -2,1 °C 43 % 93 % 1020,2 hPa 0,0 l/m² 0,1 km/h (0 Bft) SW 234 ° 0 min 0 W/m² -3,1 °C -2,1 °C 1,6 km/h (1 Bft)
03.12.2023 07:42 21,6 °C -2,1 °C 43 % 93 % 1020,3 hPa 0,0 l/m² 0,0 km/h (0 Bft) SW 234 ° 0 min 0 W/m² -3,1 °C -2,1 °C 0,0 km/h (0 Bft)
03.12.2023 07:44 21,6 °C -2,2 °C 43 % 93 % 1020,2 hPa 0,0 l/m² 0,0 km/h (0 Bft) SW 234 ° 0 min 0 W/m² -3,2 °C -2,2 °C 0,0 km/h (0 Bft)
03.12.2023 07:46 21,6 °C -2,1 °C 43 % 93 % 1020,2 hPa 0,0 l/m² 0,0 km/h (0 Bft) SW 234 ° 0 min 0 W/m² -3,1 °C -2,1 °C 1,6 km/h (1 Bft)
03.12.2023 07:48 21,6 °C -2,1 °C 43 % 93 % 1020,1 hPa 0,0 l/m² 0,0 km/h (0 Bft) SW 234 ° 0 min 0 W/m² -3,1 °C -2,1 °C 0,0 km/h (0 Bft)
03.12.2023 07:50 21,6 °C -2,1 °C 43 % 93 % 1020,1 hPa 0,0 l/m² 0,9 km/h (0 Bft) SW 234 ° 0 min 0 W/m² -3,1 °C -2,1 °C 3,2 km/h (1 Bft)
03.12.2023 07:51 21,6 °C -2,1 °C 43 % 93 % 1020,3 hPa 0,0 l/m² 1,6 km/h (1 Bft) SW 234 ° 0 min 0 W/m² -3,1 °C -2,1 °C 3,2 km/h (1 Bft)
03.12.2023 07:52 21,6 °C -2,1 °C 43 % 93 % 1020,3 hPa 0,0 l/m² 0,0 km/h (0 Bft) SW 234 ° 0 min 0 W/m² -3,1 °C -2,1 °C 0,0 km/h (0 Bft)
03.12.2023 07:54 21,6 °C -2,1 °C 43 % 93 % 1020,3 hPa 0,0 l/m² 0,1 km/h (0 Bft) SW 234 ° 0 min 0 W/m² -3,1 °C -2,1 °C 1,6 km/h (1 Bft)
03.12.2023 07:56 21,6 °C -2,1 °C 43 % 93 % 1020,3 hPa 0,0 l/m² 0,4 km/h (0 Bft) SW 234 ° 0 min 0 W/m² -3,1 °C -2,1 °C 1,6 km/h (1 Bft)
03.12.2023 07:58 21,6 °C -2,1 °C 43 % 93 % 1020,4 hPa 0,0 l/m² 0,0 km/h (0 Bft) SW 234 ° 0 min 0 W/m² -3,1 °C -2,1 °C 1,6 km/h (1 Bft)
03.12.2023 08:00 21,6 °C -2,1 °C 43 % 93 % 1020,3 hPa 0,0 l/m² 0,6 km/h (0 Bft) SW 234 ° 0 min 0 W/m² -3,1 °C -2,1 °C 4,8 km/h (1 Bft)
03.12.2023 08:01 21,7 °C -2,1 °C 43 % 93 % 1020,4 hPa 0,0 l/m² 0,0 km/h (0 Bft) SW 234 ° 0 min 0 W/m² -3,1 °C -2,1 °C 0,0 km/h (0 Bft)
03.12.2023 08:02 21,7 °C -2,1 °C 43 % 93 % 1020,4 hPa 0,0 l/m² 0,0 km/h (0 Bft) SW 234 ° 0 min 0 W/m² -3,1 °C -2,1 °C 0,0 km/h (0 Bft)
03.12.2023 08:03 21,6 °C -2,1 °C 43 % 93 % 1020,4 hPa 0,0 l/m² 0,0 km/h (0 Bft) SW 234 ° 0 min 0 W/m² -3,1 °C -2,1 °C 0,0 km/h (0 Bft)
03.12.2023 08:05 21,7 °C -2,1 °C 43 % 93 % 1020,4 hPa 0,0 l/m² 0,0 km/h (0 Bft) SW 234 ° 0 min 0 W/m² -3,1 °C -2,1 °C 0,0 km/h (0 Bft)
03.12.2023 08:07 21,7 °C -2,1 °C 43 % 93 % 1020,4 hPa 0,0 l/m² 0,0 km/h (0 Bft) SW 234 ° 0 min 0 W/m² -3,1 °C -2,1 °C 0,0 km/h (0 Bft)
03.12.2023 08:09 21,7 °C -2,1 °C 43 % 93 % 1020,4 hPa 0,0 l/m² 0,0 km/h (0 Bft) SW 234 ° 0 min 0 W/m² -3,1 °C -2,1 °C 0,0 km/h (0 Bft)
03.12.2023 08:10 21,7 °C -2,1 °C 43 % 93 % 1020,5 hPa 0,0 l/m² 0,0 km/h (0 Bft) SW 234 ° 0 min 0 W/m² -3,1 °C -2,1 °C 0,0 km/h (0 Bft)
03.12.2023 08:12 21,7 °C -2,1 °C 43 % 93 % 1020,5 hPa 0,0 l/m² 0,0 km/h (0 Bft) SW 234 ° 0 min 0 W/m² -3,1 °C -2,1 °C 0,0 km/h (0 Bft)
03.12.2023 08:14 21,7 °C -2,1 °C 43 % 93 % 1020,5 hPa 0,0 l/m² 0,0 km/h (0 Bft) SW 234 ° 0 min 0 W/m² -3,1 °C -2,1 °C 0,0 km/h (0 Bft)
03.12.2023 08:16 21,7 °C -2,1 °C 43 % 93 % 1020,6 hPa 0,0 l/m² 0,0 km/h (0 Bft) SW 234 ° 0 min 0 W/m² -3,1 °C -2,1 °C 0,0 km/h (0 Bft)
03.12.2023 08:18 21,7 °C -2,1 °C 43 % 93 % 1020,6 hPa 0,0 l/m² 0,0 km/h (0 Bft) SW 234 ° 0 min 0 W/m² -3,1 °C -2,1 °C 0,0 km/h (0 Bft)
03.12.2023 08:20 21,7 °C -2,1 °C 43 % 93 % 1020,6 hPa 0,0 l/m² 0,2 km/h (0 Bft) SW 234 ° 0 min 5 W/m² -3,1 °C -2,1 °C 1,6 km/h (1 Bft)
03.12.2023 08:21 21,7 °C -2,0 °C 43 % 93 % 1020,7 hPa 0,0 l/m² 0,0 km/h (0 Bft) SW 234 ° 0 min 5 W/m² -3,0 °C -2,0 °C 0,0 km/h (0 Bft)
03.12.2023 08:23 21,7 °C -2,0 °C 43 % 93 % 1020,7 hPa 0,0 l/m² 0,2 km/h (0 Bft) SW 234 ° 0 min 5 W/m² -3,0 °C -2,0 °C 1,6 km/h (1 Bft)
03.12.2023 08:25 21,7 °C -2,0 °C 43 % 93 % 1020,6 hPa 0,0 l/m² 0,5 km/h (0 Bft) SW 234 ° 0 min 5 W/m² -3,0 °C -2,0 °C 3,2 km/h (1 Bft)
03.12.2023 08:27 21,7 °C -2,0 °C 43 % 93 % 1020,6 hPa 0,0 l/m² 0,5 km/h (0 Bft) SW 234 ° 0 min 5 W/m² -3,0 °C -2,0 °C 3,2 km/h (1 Bft)
03.12.2023 08:29 21,7 °C -2,0 °C 43 % 93 % 1020,6 hPa 0,0 l/m² 0,7 km/h (0 Bft) SW 234 ° 0 min 5 W/m² -3,0 °C -2,0 °C 3,2 km/h (1 Bft)
03.12.2023 08:30 21,7 °C -2,0 °C 43 % 93 % 1020,6 hPa 0,0 l/m² 0,6 km/h (0 Bft) SW 234 ° 0 min 5 W/m² -3,0 °C -2,0 °C 3,2 km/h (1 Bft)
03.12.2023 08:31 21,7 °C -1,9 °C 43 % 93 % 1020,6 hPa 0,0 l/m² 2,1 km/h (1 Bft) SW 234 ° 0 min 5 W/m² -2,9 °C -1,9 °C 4,8 km/h (1 Bft)
03.12.2023 08:32 21,7 °C -1,9 °C 43 % 93 % 1020,7 hPa 0,0 l/m² 1,8 km/h (1 Bft) SW 234 ° 0 min 5 W/m² -2,9 °C -1,9 °C 4,8 km/h (1 Bft)
03.12.2023 08:34 21,7 °C -1,9 °C 43 % 93 % 1020,6 hPa 0,0 l/m² 0,1 km/h (0 Bft) SW 234 ° 0 min 7 W/m² -2,9 °C -1,9 °C 3,2 km/h (1 Bft)
03.12.2023 08:36 21,7 °C -1,9 °C 43 % 93 % 1020,7 hPa 0,0 l/m² 0,6 km/h (0 Bft) SW 234 ° 0 min 7 W/m² -2,9 °C -1,9 °C 1,6 km/h (1 Bft)
03.12.2023 08:38 21,7 °C -1,9 °C 43 % 93 % 1020,7 hPa 0,0 l/m² 0,3 km/h (0 Bft) SW 234 ° 0 min 7 W/m² -2,9 °C -1,9 °C 1,6 km/h (1 Bft)
03.12.2023 08:40 21,7 °C -1,9 °C 44 % 93 % 1020,8 hPa 0,0 l/m² 0,1 km/h (0 Bft) SW 234 ° 0 min 9 W/m² -2,9 °C -1,9 °C 1,6 km/h (1 Bft)
03.12.2023 08:41 21,7 °C -1,9 °C 44 % 93 % 1020,7 hPa 0,0 l/m² 0,0 km/h (0 Bft) SW 234 ° 0 min 9 W/m² -2,9 °C -1,9 °C 0,0 km/h (0 Bft)
03.12.2023 08:42 21,7 °C -1,9 °C 44 % 93 % 1020,7 hPa 0,0 l/m² 0,7 km/h (0 Bft) SW 234 ° 0 min 9 W/m² -2,9 °C -1,9 °C 3,2 km/h (1 Bft)
03.12.2023 08:43 21,7 °C -1,9 °C 44 % 93 % 1020,8 hPa 0,0 l/m² 2,5 km/h (1 Bft) SW 233 ° 0 min 11 W/m² -2,9 °C -1,9 °C 4,8 km/h (1 Bft)
03.12.2023 08:45 21,7 °C -1,9 °C 44 % 93 % 1020,8 hPa 0,0 l/m² 3,1 km/h (1 Bft) SW 232 ° 0 min 11 W/m² -2,9 °C -1,9 °C 4,8 km/h (1 Bft)
03.12.2023 08:47 21,7 °C -1,9 °C 44 % 93 % 1020,9 hPa 0,0 l/m² 1,2 km/h (1 Bft) SW 223 ° 0 min 12 W/m² -2,9 °C -1,9 °C 3,2 km/h (1 Bft)
03.12.2023 08:49 21,7 °C -1,9 °C 44 % 93 % 1020,8 hPa 0,0 l/m² 3,7 km/h (1 Bft) SW 233 ° 0 min 12 W/m² -2,9 °C -1,9 °C 6,4 km/h (2 Bft)
03.12.2023 08:50 21,7 °C -1,8 °C 44 % 93 % 1020,9 hPa 0,0 l/m² 5,3 km/h (1 Bft) SW 227 ° 0 min 12 W/m² -2,8 °C -1,8 °C 8,0 km/h (2 Bft)
03.12.2023 08:51 21,7 °C -1,8 °C 44 % 93 % 1020,9 hPa 0,0 l/m² 3,1 km/h (1 Bft) SW 224 ° 0 min 14 W/m² -2,8 °C -1,8 °C 4,8 km/h (1 Bft)
03.12.2023 08:52 21,7 °C -1,8 °C 44 % 93 % 1020,8 hPa 0,0 l/m² 2,8 km/h (1 Bft) SW 224 ° 0 min 14 W/m² -2,8 °C -1,8 °C 4,8 km/h (1 Bft)
03.12.2023 08:54 21,8 °C -1,8 °C 44 % 93 % 1020,8 hPa 0,0 l/m² 6,9 km/h (2 Bft) SW 235 ° 0 min 14 W/m² -2,8 °C -2,3 °C 9,7 km/h (2 Bft)
03.12.2023 08:56 21,8 °C -1,8 °C 44 % 93 % 1020,9 hPa 0,0 l/m² 5,8 km/h (2 Bft) SW 220 ° 0 min 14 W/m² -2,8 °C -1,8 °C 8,0 km/h (2 Bft)
03.12.2023 08:58 21,8 °C -1,8 °C 44 % 93 % 1021,0 hPa 0,0 l/m² 5,7 km/h (2 Bft) SW 215 ° 0 min 14 W/m² -2,8 °C -1,8 °C 9,7 km/h (2 Bft)
03.12.2023 09:00 21,8 °C -1,8 °C 44 % 94 % 1020,9 hPa 0,0 l/m² 3,4 km/h (1 Bft) S-SW 207 ° 0 min 14 W/m² -2,6 °C -1,8 °C 8,0 km/h (2 Bft)
03.12.2023 09:01 21,8 °C -1,8 °C 44 % 94 % 1021,0 hPa 0,0 l/m² 5,2 km/h (1 Bft) S-SW 209 ° 0 min 14 W/m² -2,6 °C -1,8 °C 6,4 km/h (2 Bft)
03.12.2023 09:02 21,8 °C -1,7 °C 44 % 94 % 1021,0 hPa 0,0 l/m² 4,9 km/h (1 Bft) SW 214 ° 0 min 14 W/m² -2,5 °C -1,7 °C 6,4 km/h (2 Bft)
03.12.2023 09:03 21,8 °C -1,7 °C 44 % 94 % 1021,0 hPa 0,0 l/m² 3,5 km/h (1 Bft) SW 215 ° 0 min 14 W/m² -2,5 °C -1,7 °C 4,8 km/h (1 Bft)
03.12.2023 09:05 21,8 °C -1,7 °C 44 % 94 % 1021,0 hPa 0,0 l/m² 3,8 km/h (1 Bft) S-SW 212 ° 0 min 14 W/m² -2,5 °C -1,7 °C 6,4 km/h (2 Bft)
03.12.2023 09:07 21,8 °C -1,7 °C 44 % 93 % 1021,0 hPa 0,0 l/m² 3,1 km/h (1 Bft) S-SW 211 ° 0 min 14 W/m² -2,7 °C -1,7 °C 6,4 km/h (2 Bft)
03.12.2023 09:09 21,8 °C -1,7 °C 44 % 93 % 1021,0 hPa 0,0 l/m² 2,4 km/h (1 Bft) SW 216 ° 0 min 14 W/m² -2,7 °C -1,7 °C 4,8 km/h (1 Bft)
03.12.2023 09:10 21,8 °C -1,7 °C 44 % 93 % 1021,0 hPa 0,0 l/m² 3,8 km/h (1 Bft) SW 214 ° 0 min 14 W/m² -2,7 °C -1,7 °C 4,8 km/h (1 Bft)
03.12.2023 09:12 21,8 °C -1,7 °C 44 % 93 % 1021,1 hPa 0,0 l/m² 2,7 km/h (1 Bft) SW 214 ° 0 min 14 W/m² -2,7 °C -1,7 °C 6,4 km/h (2 Bft)
03.12.2023 09:14 21,8 °C -1,6 °C 44 % 93 % 1021,1 hPa 0,0 l/m² 3,9 km/h (1 Bft) SW 214 ° 0 min 16 W/m² -2,6 °C -1,6 °C 6,4 km/h (2 Bft)
03.12.2023 09:16 21,8 °C -1,6 °C 44 % 93 % 1021,1 hPa 0,0 l/m² 3,4 km/h (1 Bft) SW 214 ° 0 min 18 W/m² -2,6 °C -1,6 °C 4,8 km/h (1 Bft)
03.12.2023 09:18 21,8 °C -1,6 °C 44 % 93 % 1021,1 hPa 0,0 l/m² 5,1 km/h (1 Bft) SW 215 ° 0 min 19 W/m² -2,6 °C -1,6 °C 6,4 km/h (2 Bft)
03.12.2023 09:20 21,8 °C -1,6 °C 44 % 93 % 1021,0 hPa 0,0 l/m² 3,1 km/h (1 Bft) SW 215 ° 0 min 21 W/m² -2,6 °C -1,6 °C 4,8 km/h (1 Bft)
03.12.2023 09:21 21,8 °C -1,6 °C 44 % 93 % 1021,0 hPa 0,0 l/m² 3,1 km/h (1 Bft) SW 215 ° 0 min 21 W/m² -2,6 °C -1,6 °C 4,8 km/h (1 Bft)
03.12.2023 09:22 21,8 °C -1,6 °C 44 % 93 % 1021,0 hPa 0,0 l/m² 4,2 km/h (1 Bft) SW 215 ° 0 min 23 W/m² -2,6 °C -1,6 °C 6,4 km/h (2 Bft)
03.12.2023 09:23 21,8 °C -1,6 °C 44 % 93 % 1021,0 hPa 0,0 l/m² 4,1 km/h (1 Bft) SW 216 ° 0 min 23 W/m² -2,6 °C -1,6 °C 6,4 km/h (2 Bft)
03.12.2023 09:25 21,8 °C -1,5 °C 44 % 93 % 1021,1 hPa 0,0 l/m² 4,7 km/h (1 Bft) SW 220 ° 0 min 23 W/m² -2,5 °C -1,5 °C 6,4 km/h (2 Bft)
03.12.2023 09:27 21,8 °C -1,5 °C 44 % 93 % 1021,1 hPa 0,0 l/m² 5,5 km/h (2 Bft) SW 214 ° 0 min 23 W/m² -2,5 °C -1,5 °C 6,4 km/h (2 Bft)
03.12.2023 09:29 21,8 °C -1,4 °C 44 % 93 % 1021,1 hPa 0,0 l/m² 3,5 km/h (1 Bft) SW 218 ° 0 min 23 W/m² -2,4 °C -1,4 °C 6,4 km/h (2 Bft)
03.12.2023 09:30 21,8 °C -1,4 °C 44 % 93 % 1021,1 hPa 0,0 l/m² 4,0 km/h (1 Bft) SW 221 ° 0 min 23 W/m² -2,4 °C -1,4 °C 6,4 km/h (2 Bft)
03.12.2023 09:32 21,8 °C -1,4 °C 44 % 93 % 1021,1 hPa 0,0 l/m² 4,7 km/h (1 Bft) SW 230 ° 0 min 23 W/m² -2,4 °C -1,4 °C 8,0 km/h (2 Bft)
03.12.2023 09:33 21,8 °C -1,4 °C 44 % 93 % 1021,1 hPa 0,0 l/m² 4,6 km/h (1 Bft) SW 219 ° 0 min 23 W/m² -2,4 °C -1,4 °C 6,4 km/h (2 Bft)
03.12.2023 09:34 21,8 °C -1,4 °C 44 % 93 % 1021,1 hPa 0,0 l/m² 5,7 km/h (2 Bft) SW 221 ° 0 min 23 W/m² -2,4 °C -1,4 °C 6,4 km/h (2 Bft)
03.12.2023 09:36 21,8 °C -1,4 °C 44 % 93 % 1021,1 hPa 0,0 l/m² 6,1 km/h (2 Bft) SW 217 ° 0 min 25 W/m² -2,4 °C -1,4 °C 8,0 km/h (2 Bft)
03.12.2023 09:38 21,8 °C -1,3 °C 44 % 93 % 1021,2 hPa 0,0 l/m² 5,9 km/h (2 Bft) SW 229 ° 0 min 25 W/m² -2,3 °C -1,3 °C 8,0 km/h (2 Bft)
03.12.2023 09:40 21,8 °C -1,3 °C 44 % 93 % 1021,1 hPa 0,0 l/m² 5,2 km/h (1 Bft) SW 232 ° 0 min 26 W/m² -2,3 °C -1,3 °C 6,4 km/h (2 Bft)
03.12.2023 09:41 21,8 °C -1,3 °C 44 % 93 % 1021,2 hPa 0,0 l/m² 3,6 km/h (1 Bft) SW 231 ° 0 min 26 W/m² -2,3 °C -1,3 °C 4,8 km/h (1 Bft)
03.12.2023 09:42 21,8 °C -1,3 °C 44 % 93 % 1021,2 hPa 0,0 l/m² 4,1 km/h (1 Bft) SW 229 ° 0 min 25 W/m² -2,3 °C -1,3 °C 4,8 km/h (1 Bft)
03.12.2023 09:43 21,8 °C -1,3 °C 44 % 93 % 1021,2 hPa 0,0 l/m² 5,1 km/h (1 Bft) SW 226 ° 0 min 25 W/m² -2,3 °C -1,3 °C 6,4 km/h (2 Bft)
03.12.2023 09:45 21,8 °C -1,3 °C 44 % 93 % 1021,1 hPa 0,0 l/m² 5,2 km/h (1 Bft) SW 221 ° 0 min 25 W/m² -2,3 °C -1,3 °C 6,4 km/h (2 Bft)
03.12.2023 09:46 21,8 °C -1,3 °C 44 % 93 % 1021,2 hPa 0,0 l/m² 3,2 km/h (1 Bft) SW 221 ° 0 min 26 W/m² -2,3 °C -1,3 °C 4,8 km/h (1 Bft)
03.12.2023 09:47 21,8 °C -1,3 °C 44 % 93 % 1021,1 hPa 0,0 l/m² 4,0 km/h (1 Bft) SW 221 ° 0 min 26 W/m² -2,3 °C -1,3 °C 4,8 km/h (1 Bft)
03.12.2023 09:48 21,8 °C -1,3 °C 44 % 93 % 1021,1 hPa 0,0 l/m² 4,4 km/h (1 Bft) SW 221 ° 0 min 28 W/m² -2,3 °C -1,3 °C 6,4 km/h (2 Bft)
03.12.2023 09:50 21,8 °C -1,3 °C 44 % 93 % 1021,2 hPa 0,0 l/m² 4,5 km/h (1 Bft) SW 221 ° 0 min 28 W/m² -2,3 °C -1,3 °C 4,8 km/h (1 Bft)
03.12.2023 09:51 21,8 °C -1,3 °C 44 % 93 % 1021,1 hPa 0,0 l/m² 4,5 km/h (1 Bft) SW 221 ° 0 min 28 W/m² -2,3 °C -1,3 °C 4,8 km/h (1 Bft)
03.12.2023 09:52 21,8 °C -1,3 °C 44 % 93 % 1021,1 hPa 0,0 l/m² 3,5 km/h (1 Bft) SW 221 ° 0 min 30 W/m² -2,3 °C -1,3 °C 4,8 km/h (1 Bft)
03.12.2023 09:53 21,8 °C -1,3 °C 44 % 93 % 1021,1 hPa 0,0 l/m² 3,3 km/h (1 Bft) SW 221 ° 0 min 30 W/m² -2,3 °C -1,3 °C 4,8 km/h (1 Bft)
03.12.2023 09:55 21,8 °C -1,2 °C 44 % 93 % 1021,2 hPa 0,0 l/m² 3,7 km/h (1 Bft) SW 219 ° 0 min 32 W/m² -2,2 °C -1,2 °C 4,8 km/h (1 Bft)
03.12.2023 09:56 21,8 °C -1,2 °C 44 % 93 % 1021,3 hPa 0,0 l/m² 3,4 km/h (1 Bft) SW 219 ° 0 min 32 W/m² -2,2 °C -1,2 °C 4,8 km/h (1 Bft)
03.12.2023 09:57 21,8 °C -1,2 °C 44 % 93 % 1021,2 hPa 0,0 l/m² 3,6 km/h (1 Bft) SW 219 ° 0 min 33 W/m² -2,2 °C -1,2 °C 4,8 km/h (1 Bft)
03.12.2023 09:58 21,8 °C -1,2 °C 44 % 93 % 1021,2 hPa 0,0 l/m² 2,5 km/h (1 Bft) SW 219 ° 0 min 33 W/m² -2,2 °C -1,2 °C 3,2 km/h (1 Bft)
03.12.2023 10:00 21,8 °C -1,2 °C 44 % 93 % 1021,2 hPa 0,0 l/m² 2,2 km/h (1 Bft) SW 219 ° 0 min 37 W/m² -2,2 °C -1,2 °C 3,2 km/h (1 Bft)
03.12.2023 10:01 21,8 °C -1,1 °C 44 % 93 % 1021,2 hPa 0,0 l/m² 1,1 km/h (1 Bft) SW 219 ° 0 min 37 W/m² -2,1 °C -1,1 °C 3,2 km/h (1 Bft)
03.12.2023 10:02 21,8 °C -1,1 °C 43 % 93 % 1021,2 hPa 0,0 l/m² 2,5 km/h (1 Bft) SW 219 ° 0 min 39 W/m² -2,1 °C -1,1 °C 4,8 km/h (1 Bft)
03.12.2023 10:03 21,8 °C -1,1 °C 43 % 93 % 1021,2 hPa 0,0 l/m² 2,9 km/h (1 Bft) SW 219 ° 0 min 39 W/m² -2,1 °C -1,1 °C 4,8 km/h (1 Bft)
03.12.2023 10:04 21,8 °C -1,1 °C 42 % 93 % 1021,3 hPa 0,0 l/m² 0,9 km/h (0 Bft) SW 219 ° 0 min 37 W/m² -2,1 °C -1,1 °C 3,2 km/h (1 Bft)
03.12.2023 10:06 21,8 °C -1,1 °C 43 % 93 % 1021,3 hPa 0,0 l/m² 3,4 km/h (1 Bft) SW 223 ° 0 min 35 W/m² -2,1 °C -1,1 °C 4,8 km/h (1 Bft)
03.12.2023 10:08 21,8 °C -1,0 °C 43 % 93 % 1021,3 hPa 0,0 l/m² 2,7 km/h (1 Bft) SW 223 ° 0 min 33 W/m² -2,0 °C -1,0 °C 4,8 km/h (1 Bft)
03.12.2023 10:10 21,8 °C -0,9 °C 43 % 93 % 1021,3 hPa 0,0 l/m² 2,3 km/h (1 Bft) SW 223 ° 0 min 32 W/m² -1,9 °C -0,9 °C 4,8 km/h (1 Bft)
03.12.2023 10:11 21,7 °C -0,9 °C 43 % 93 % 1021,4 hPa 0,0 l/m² 4,1 km/h (1 Bft) SW 222 ° 0 min 32 W/m² -1,9 °C -0,9 °C 4,8 km/h (1 Bft)
03.12.2023 10:12 21,7 °C -0,9 °C 43 % 93 % 1021,4 hPa 0,0 l/m² 4,2 km/h (1 Bft) SW 222 ° 0 min 32 W/m² -1,9 °C -0,9 °C 4,8 km/h (1 Bft)
03.12.2023 10:13 21,8 °C -0,9 °C 43 % 93 % 1021,4 hPa 0,0 l/m² 4,4 km/h (1 Bft) SW 221 ° 0 min 32 W/m² -1,9 °C -0,9 °C 6,4 km/h (2 Bft)
03.12.2023 10:15 21,8 °C -0,9 °C 43 % 93 % 1021,3 hPa 0,0 l/m² 2,6 km/h (1 Bft) SW 220 ° 0 min 33 W/m² -1,9 °C -0,9 °C 4,8 km/h (1 Bft)
03.12.2023 10:17 21,7 °C -0,9 °C 43 % 93 % 1021,3 hPa 0,0 l/m² 2,7 km/h (1 Bft) SW 216 ° 0 min 39 W/m² -1,9 °C -0,9 °C 6,4 km/h (2 Bft)
03.12.2023 10:19 21,7 °C -0,9 °C 43 % 93 % 1021,4 hPa 0,0 l/m² 4,1 km/h (1 Bft) SW 216 ° 0 min 40 W/m² -1,9 °C -0,9 °C 4,8 km/h (1 Bft)
03.12.2023 10:20 21,7 °C -0,8 °C 43 % 93 % 1021,4 hPa 0,0 l/m² 3,2 km/h (1 Bft) SW 216 ° 0 min 40 W/m² -1,8 °C -0,8 °C 4,8 km/h (1 Bft)
03.12.2023 10:21 21,7 °C -0,8 °C 43 % 93 % 1021,4 hPa 0,0 l/m² 2,2 km/h (1 Bft) SW 216 ° 0 min 40 W/m² -1,8 °C -0,8 °C 3,2 km/h (1 Bft)
03.12.2023 10:22 21,7 °C -0,8 °C 43 % 93 % 1021,4 hPa 0,0 l/m² 2,9 km/h (1 Bft) SW 216 ° 0 min 37 W/m² -1,8 °C -0,8 °C 4,8 km/h (1 Bft)
03.12.2023 10:23 21,7 °C -0,8 °C 43 % 93 % 1021,3 hPa 0,0 l/m² 4,0 km/h (1 Bft) SW 216 ° 0 min 37 W/m² -1,8 °C -0,8 °C 4,8 km/h (1 Bft)
03.12.2023 10:24 21,8 °C -0,8 °C 43 % 93 % 1021,3 hPa 0,0 l/m² 4,2 km/h (1 Bft) SW 216 ° 0 min 35 W/m² -1,8 °C -0,8 °C 4,8 km/h (1 Bft)
03.12.2023 10:25 21,8 °C -0,8 °C 43 % 93 % 1021,3 hPa 0,0 l/m² 2,1 km/h (1 Bft) SW 216 ° 0 min 33 W/m² -1,8 °C -0,8 °C 3,2 km/h (1 Bft)
03.12.2023 10:26 21,7 °C -0,8 °C 43 % 92 % 1021,4 hPa 0,0 l/m² 2,7 km/h (1 Bft) SW 216 ° 0 min 33 W/m² -1,9 °C -0,8 °C 4,8 km/h (1 Bft)
03.12.2023 10:27 21,8 °C -0,8 °C 43 % 93 % 1021,4 hPa 0,0 l/m² 2,9 km/h (1 Bft) SW 216 ° 0 min 32 W/m² -1,8 °C -0,8 °C 4,8 km/h (1 Bft)
03.12.2023 10:28 21,8 °C -0,8 °C 43 % 93 % 1021,3 hPa 0,0 l/m² 3,9 km/h (1 Bft) SW 216 ° 0 min 32 W/m² -1,8 °C -0,8 °C 4,8 km/h (1 Bft)
03.12.2023 10:29 21,7 °C -0,8 °C 43 % 93 % 1021,3 hPa 0,0 l/m² 2,8 km/h (1 Bft) SW 216 ° 0 min 32 W/m² -1,8 °C -0,8 °C 3,2 km/h (1 Bft)
03.12.2023 10:31 21,8 °C -0,8 °C 43 % 92 % 1021,4 hPa 0,0 l/m² 2,7 km/h (1 Bft) SW 216 ° 0 min 32 W/m² -1,9 °C -0,8 °C 4,8 km/h (1 Bft)
03.12.2023 10:33 21,7 °C -0,8 °C 43 % 92 % 1021,4 hPa 0,0 l/m² 4,7 km/h (1 Bft) S-SW 209 ° 0 min 32 W/m² -1,9 °C -0,8 °C 6,4 km/h (2 Bft)
03.12.2023 10:34 21,8 °C -0,8 °C 43 % 92 % 1021,4 hPa 0,0 l/m² 4,4 km/h (1 Bft) S-SW 209 ° 0 min 30 W/m² -1,9 °C -0,8 °C 4,8 km/h (1 Bft)
03.12.2023 10:35 21,8 °C -0,8 °C 43 % 92 % 1021,4 hPa 0,0 l/m² 4,0 km/h (1 Bft) S-SW 205 ° 0 min 30 W/m² -1,9 °C -0,8 °C 6,4 km/h (2 Bft)
03.12.2023 10:37 21,7 °C -0,8 °C 43 % 92 % 1021,5 hPa 0,0 l/m² 3,9 km/h (1 Bft) S-SW 205 ° 0 min 28 W/m² -1,9 °C -0,8 °C 4,8 km/h (1 Bft)
03.12.2023 10:38 21,7 °C -0,8 °C 43 % 92 % 1021,5 hPa 0,0 l/m² 4,1 km/h (1 Bft) S-SW 205 ° 0 min 28 W/m² -1,9 °C -0,8 °C 6,4 km/h (2 Bft)
03.12.2023 10:39 21,8 °C -0,8 °C 43 % 92 % 1021,4 hPa 0,0 l/m² 3,9 km/h (1 Bft) S-SW 205 ° 0 min 28 W/m² -1,9 °C -0,8 °C 4,8 km/h (1 Bft)
03.12.2023 10:41 21,8 °C -0,8 °C 43 % 92 % 1021,5 hPa 0,0 l/m² 3,0 km/h (1 Bft) S-SW 205 ° 0 min 28 W/m² -1,9 °C -0,8 °C 4,8 km/h (1 Bft)
03.12.2023 10:43 21,8 °C -0,8 °C 43 % 92 % 1021,4 hPa 0,0 l/m² 3,2 km/h (1 Bft) S-SW 205 ° 0 min 30 W/m² -1,9 °C -0,8 °C 6,4 km/h (2 Bft)
03.12.2023 10:44 21,8 °C -0,8 °C 43 % 92 % 1021,5 hPa 0,0 l/m² 1,8 km/h (1 Bft) S-SW 205 ° 0 min 30 W/m² -1,9 °C -0,8 °C 3,2 km/h (1 Bft)
03.12.2023 10:45 21,8 °C -0,8 °C 43 % 92 % 1021,5 hPa 0,0 l/m² 3,5 km/h (1 Bft) S-SW 206 ° 0 min 32 W/m² -1,9 °C -0,8 °C 4,8 km/h (1 Bft)
03.12.2023 10:46 21,8 °C -0,8 °C 43 % 92 % 1021,5 hPa 0,0 l/m² 3,4 km/h (1 Bft) S-SW 207 ° 0 min 33 W/m² -1,9 °C -0,8 °C 4,8 km/h (1 Bft)
03.12.2023 10:47 21,8 °C -0,7 °C 44 % 92 % 1021,5 hPa 0,0 l/m² 1,0 km/h (0 Bft) S-SW 207 ° 0 min 33 W/m² -1,8 °C -0,7 °C 3,2 km/h (1 Bft)
03.12.2023 10:48 21,8 °C -0,8 °C 44 % 92 % 1021,5 hPa 0,0 l/m² 1,9 km/h (1 Bft) S-SW 207 ° 0 min 35 W/m² -1,9 °C -0,8 °C 3,2 km/h (1 Bft)
03.12.2023 10:49 21,8 °C -0,7 °C 44 % 92 % 1021,6 hPa 0,0 l/m² 0,7 km/h (0 Bft) S-SW 207 ° 0 min 37 W/m² -1,8 °C -0,7 °C 1,6 km/h (1 Bft)
03.12.2023 10:51 21,8 °C -0,7 °C 44 % 92 % 1021,5 hPa 0,0 l/m² 5,1 km/h (1 Bft) SW 220 ° 0 min 37 W/m² -1,8 °C -0,7 °C 9,7 km/h (2 Bft)
03.12.2023 10:53 21,8 °C -0,7 °C 44 % 92 % 1021,6 hPa 0,0 l/m² 4,9 km/h (1 Bft) SW 236 ° 0 min 37 W/m² -1,8 °C -0,7 °C 8,0 km/h (2 Bft)
03.12.2023 10:54 21,9 °C -0,6 °C 44 % 92 % 1021,6 hPa 0,0 l/m² 4,0 km/h (1 Bft) SW 229 ° 0 min 37 W/m² -1,7 °C -0,6 °C 6,4 km/h (2 Bft)
03.12.2023 10:55 21,8 °C -0,7 °C 44 % 92 % 1021,5 hPa 0,0 l/m² 3,8 km/h (1 Bft) S-SW 211 ° 0 min 37 W/m² -1,8 °C -0,7 °C 6,4 km/h (2 Bft)
03.12.2023 10:56 21,9 °C -0,6 °C 44 % 92 % 1021,5 hPa 0,0 l/m² 5,9 km/h (2 Bft) S-SW 200 ° 0 min 37 W/m² -1,7 °C -0,6 °C 6,4 km/h (2 Bft)
03.12.2023 10:57 21,9 °C -0,6 °C 44 % 92 % 1021,6 hPa 0,0 l/m² 4,7 km/h (1 Bft) S-SW 200 ° 0 min 37 W/m² -1,7 °C -0,6 °C 6,4 km/h (2 Bft)
03.12.2023 10:58 21,9 °C -0,6 °C 44 % 92 % 1021,5 hPa 0,0 l/m² 3,1 km/h (1 Bft) S-SW 200 ° 0 min 37 W/m² -1,7 °C -0,6 °C 4,8 km/h (1 Bft)
03.12.2023 10:59 21,9 °C -0,6 °C 44 % 92 % 1021,6 hPa 0,0 l/m² 3,8 km/h (1 Bft) SW 219 ° 0 min 37 W/m² -1,7 °C -0,6 °C 4,8 km/h (1 Bft)
03.12.2023 11:01 21,9 °C -0,5 °C 44 % 92 % 1021,6 hPa 0,0 l/m² 4,3 km/h (1 Bft) S-SW 212 ° 0 min 37 W/m² -1,6 °C -0,5 °C 9,7 km/h (2 Bft)
03.12.2023 11:03 21,9 °C -0,6 °C 44 % 92 % 1021,6 hPa 0,0 l/m² 5,6 km/h (2 Bft) S-SW 213 ° 0 min 35 W/m² -1,7 °C -0,6 °C 8,0 km/h (2 Bft)
03.12.2023 11:04 21,9 °C -0,6 °C 44 % 92 % 1021,6 hPa 0,0 l/m² 4,5 km/h (1 Bft) S-SW 213 ° 0 min 35 W/m² -1,7 °C -0,6 °C 4,8 km/h (1 Bft)
03.12.2023 11:05 21,9 °C -0,5 °C 44 % 92 % 1021,6 hPa 0,0 l/m² 0,6 km/h (0 Bft) S-SW 213 ° 0 min 35 W/m² -1,6 °C -0,5 °C 1,6 km/h (1 Bft)
03.12.2023 11:06 21,9 °C -0,5 °C 44 % 92 % 1021,7 hPa 0,0 l/m² 3,6 km/h (1 Bft) S-SW 213 ° 0 min 35 W/m² -1,6 °C -0,5 °C 4,8 km/h (1 Bft)
03.12.2023 11:07 21,9 °C -0,5 °C 44 % 92 % 1021,6 hPa 0,0 l/m² 5,2 km/h (1 Bft) S-SW 213 ° 0 min 35 W/m² -1,6 °C -0,5 °C 6,4 km/h (2 Bft)
03.12.2023 11:08 21,9 °C -0,5 °C 44 % 92 % 1021,6 hPa 0,0 l/m² 4,2 km/h (1 Bft) S-SW 213 ° 0 min 35 W/m² -1,6 °C -0,5 °C 4,8 km/h (1 Bft)
03.12.2023 11:09 21,9 °C -0,5 °C 44 % 92 % 1021,7 hPa 0,0 l/m² 3,5 km/h (1 Bft) S-SW 208 ° 0 min 35 W/m² -1,6 °C -0,5 °C 6,4 km/h (2 Bft)
03.12.2023 11:11 21,9 °C -0,5 °C 44 % 92 % 1021,7 hPa 0,0 l/m² 5,9 km/h (2 Bft) W-SW 254 ° 0 min 35 W/m² -1,6 °C -0,5 °C 9,7 km/h (2 Bft)
03.12.2023 11:13 21,9 °C -0,5 °C 44 % 92 % 1021,7 hPa 0,0 l/m² 6,4 km/h (2 Bft) W-SW 238 ° 0 min 35 W/m² -1,6 °C -0,5 °C 9,7 km/h (2 Bft)
03.12.2023 11:14 21,9 °C -0,5 °C 44 % 92 % 1021,7 hPa 0,0 l/m² 7,8 km/h (2 Bft) W-SW 242 ° 0 min 35 W/m² -1,6 °C -2,0 °C 9,7 km/h (2 Bft)
03.12.2023 11:15 22,0 °C -0,5 °C 44 % 92 % 1021,7 hPa 0,0 l/m² 6,8 km/h (2 Bft) W-SW 245 ° 0 min 35 W/m² -1,6 °C -0,9 °C 8,0 km/h (2 Bft)
03.12.2023 11:16 21,9 °C -0,5 °C 44 % 92 % 1021,7 hPa 0,0 l/m² 9,2 km/h (2 Bft) W-SW 250 ° 0 min 37 W/m² -1,6 °C -3,3 °C 12,9 km/h (3 Bft)
03.12.2023 11:17 22,0 °C -0,5 °C 44 % 92 % 1021,7 hPa 0,0 l/m² 8,0 km/h (2 Bft) SW 221 ° 0 min 37 W/m² -1,6 °C -2,2 °C 12,9 km/h (3 Bft)
03.12.2023 11:18 22,0 °C -0,5 °C 44 % 92 % 1021,7 hPa 0,0 l/m² 6,8 km/h (2 Bft) SW 222 ° 0 min 37 W/m² -1,6 °C -0,9 °C 9,7 km/h (2 Bft)
03.12.2023 11:19 22,0 °C -0,4 °C 44 % 92 % 1021,7 hPa 0,0 l/m² 4,4 km/h (1 Bft) W-SW 250 ° 0 min 37 W/m² -1,5 °C -0,4 °C 6,4 km/h (2 Bft)
03.12.2023 11:21 22,0 °C -0,5 °C 44 % 92 % 1021,7 hPa 0,0 l/m² 5,1 km/h (1 Bft) SW 220 ° 0 min 40 W/m² -1,6 °C -0,5 °C 9,7 km/h (2 Bft)
03.12.2023 11:23 22,0 °C -0,4 °C 45 % 92 % 1021,7 hPa 0,0 l/m² 6,2 km/h (2 Bft) W-SW 238 ° 0 min 42 W/m² -1,5 °C -0,4 °C 11,3 km/h (2 Bft)
03.12.2023 11:24 22,0 °C -0,4 °C 45 % 92 % 1021,7 hPa 0,0 l/m² 8,5 km/h (2 Bft) W-SW 246 ° 0 min 42 W/m² -1,5 °C -2,6 °C 11,3 km/h (2 Bft)
03.12.2023 11:25 22,0 °C -0,4 °C 45 % 92 % 1021,7 hPa 0,0 l/m² 6,4 km/h (2 Bft) W-SW 252 ° 0 min 44 W/m² -1,5 °C -0,4 °C 11,3 km/h (2 Bft)
03.12.2023 11:26 22,0 °C -0,4 °C 45 % 92 % 1021,7 hPa 0,0 l/m² 4,6 km/h (1 Bft) W-SW 240 ° 0 min 44 W/m² -1,5 °C -0,4 °C 6,4 km/h (2 Bft)
03.12.2023 11:27 22,0 °C -0,4 °C 45 % 92 % 1021,7 hPa 0,0 l/m² 4,6 km/h (1 Bft) W-SW 248 ° 0 min 42 W/m² -1,5 °C -0,4 °C 6,4 km/h (2 Bft)
03.12.2023 11:28 22,1 °C -0,4 °C 45 % 92 % 1021,8 hPa 0,0 l/m² 3,5 km/h (1 Bft) W-SW 257 ° 0 min 42 W/m² -1,5 °C -0,4 °C 4,8 km/h (1 Bft)
03.12.2023 11:29 22,0 °C -0,4 °C 44 % 92 % 1021,7 hPa 0,0 l/m² 4,6 km/h (1 Bft) W-SW 242 ° 0 min 39 W/m² -1,5 °C -0,4 °C 6,4 km/h (2 Bft)
03.12.2023 11:31 22,0 °C -0,4 °C 45 % 92 % 1021,7 hPa 0,0 l/m² 6,9 km/h (2 Bft) W-SW 239 ° 0 min 35 W/m² -1,5 °C -0,9 °C 11,3 km/h (2 Bft)
03.12.2023 11:33 22,1 °C -0,3 °C 45 % 92 % 1021,8 hPa 0,0 l/m² 6,7 km/h (2 Bft) W-SW 238 ° 0 min 32 W/m² -1,4 °C -0,6 °C 9,7 km/h (2 Bft)
03.12.2023 11:34 22,1 °C -0,4 °C 45 % 92 % 1021,8 hPa 0,0 l/m² 6,2 km/h (2 Bft) W-SW 244 ° 0 min 32 W/m² -1,5 °C -0,4 °C 8,0 km/h (2 Bft)
03.12.2023 11:35 22,1 °C -0,3 °C 45 % 92 % 1021,7 hPa 0,0 l/m² 5,9 km/h (2 Bft) W-SW 248 ° 0 min 32 W/m² -1,4 °C -0,3 °C 9,7 km/h (2 Bft)
03.12.2023 11:36 22,1 °C -0,4 °C 45 % 92 % 1021,8 hPa 0,0 l/m² 6,0 km/h (2 Bft) SW 236 ° 0 min 32 W/m² -1,5 °C -0,4 °C 8,0 km/h (2 Bft)
03.12.2023 11:37 22,1 °C -0,4 °C 45 % 92 % 1021,8 hPa 0,0 l/m² 7,8 km/h (2 Bft) SW 226 ° 0 min 32 W/m² -1,5 °C -1,9 °C 9,7 km/h (2 Bft)
03.12.2023 11:38 22,1 °C -0,3 °C 45 % 92 % 1021,8 hPa 0,0 l/m² 5,1 km/h (1 Bft) W-SW 239 ° 0 min 32 W/m² -1,4 °C -0,3 °C 8,0 km/h (2 Bft)
03.12.2023 11:39 22,1 °C -0,3 °C 44 % 92 % 1021,8 hPa 0,0 l/m² 4,8 km/h (1 Bft) W-SW 255 ° 0 min 32 W/m² -1,4 °C -0,3 °C 8,0 km/h (2 Bft)
03.12.2023 11:41 22,1 °C -0,3 °C 45 % 92 % 1021,8 hPa 0,0 l/m² 5,8 km/h (2 Bft) W-SW 246 ° 0 min 32 W/m² -1,4 °C -0,3 °C 8,0 km/h (2 Bft)
03.12.2023 11:43 22,1 °C -0,3 °C 45 % 92 % 1021,8 hPa 0,0 l/m² 4,0 km/h (1 Bft) W-SW 246 ° 0 min 30 W/m² -1,4 °C -0,3 °C 6,4 km/h (2 Bft)
03.12.2023 11:44 22,1 °C -0,3 °C 45 % 92 % 1021,9 hPa 0,0 l/m² 4,2 km/h (1 Bft) W-SW 243 ° 0 min 30 W/m² -1,4 °C -0,3 °C 6,4 km/h (2 Bft)
03.12.2023 11:45 22,1 °C -0,3 °C 45 % 92 % 1021,9 hPa 0,0 l/m² 5,1 km/h (1 Bft) W-SW 250 ° 0 min 30 W/m² -1,4 °C -0,3 °C 6,4 km/h (2 Bft)
03.12.2023 11:46 22,1 °C -0,3 °C 45 % 92 % 1021,8 hPa 0,0 l/m² 2,7 km/h (1 Bft) W-SW 250 ° 0 min 32 W/m² -1,4 °C -0,3 °C 4,8 km/h (1 Bft)
03.12.2023 11:47 22,1 °C -0,3 °C 45 % 92 % 1021,8 hPa 0,0 l/m² 2,6 km/h (1 Bft) W-SW 242 ° 0 min 32 W/m² -1,4 °C -0,3 °C 4,8 km/h (1 Bft)
03.12.2023 11:48 22,1 °C -0,3 °C 45 % 92 % 1021,8 hPa 0,0 l/m² 3,6 km/h (1 Bft) W-SW 248 ° 0 min 33 W/m² -1,4 °C -0,3 °C 4,8 km/h (1 Bft)
03.12.2023 11:49 22,1 °C -0,3 °C 45 % 92 % 1021,8 hPa 0,0 l/m² 3,3 km/h (1 Bft) W-SW 249 ° 0 min 33 W/m² -1,4 °C -0,3 °C 6,4 km/h (2 Bft)
03.12.2023 11:51 22,1 °C -0,3 °C 45 % 92 % 1021,8 hPa 0,0 l/m² 3,2 km/h (1 Bft) W-SW 241 ° 0 min 35 W/m² -1,4 °C -0,3 °C 6,4 km/h (2 Bft)
03.12.2023 11:53 22,1 °C -0,3 °C 45 % 92 % 1021,8 hPa 0,0 l/m² 5,8 km/h (2 Bft) W-SW 242 ° 0 min 35 W/m² -1,4 °C -0,3 °C 11,3 km/h (2 Bft)
03.12.2023 11:54 22,1 °C -0,3 °C 45 % 92 % 1021,8 hPa 0,0 l/m² 5,0 km/h (1 Bft) W-SW 254 ° 0 min 33 W/m² -1,4 °C -0,3 °C 8,0 km/h (2 Bft)
03.12.2023 11:55 22,1 °C -0,2 °C 45 % 92 % 1021,8 hPa 0,0 l/m² 3,2 km/h (1 Bft) W-SW 254 ° 0 min 33 W/m² -1,3 °C -0,2 °C 4,8 km/h (1 Bft)
03.12.2023 11:56 22,1 °C -0,3 °C 45 % 92 % 1021,7 hPa 0,0 l/m² 3,7 km/h (1 Bft) W-SW 244 ° 0 min 30 W/m² -1,4 °C -0,3 °C 4,8 km/h (1 Bft)
03.12.2023 11:57 22,1 °C -0,2 °C 45 % 92 % 1021,8 hPa 0,0 l/m² 4,2 km/h (1 Bft) W-SW 254 ° 0 min 28 W/m² -1,3 °C -0,2 °C 6,4 km/h (2 Bft)
03.12.2023 11:58 22,1 °C -0,2 °C 45 % 92 % 1021,8 hPa 0,0 l/m² 2,9 km/h (1 Bft) W-SW 254 ° 0 min 28 W/m² -1,3 °C -0,2 °C 4,8 km/h (1 Bft)
03.12.2023 11:59 22,1 °C -0,2 °C 45 % 92 % 1021,8 hPa 0,0 l/m² 2,5 km/h (1 Bft) W-SW 243 ° 0 min 26 W/m² -1,3 °C -0,2 °C 3,2 km/h (1 Bft)
03.12.2023 12:01 22,1 °C -0,2 °C 45 % 92 % 1021,8 hPa 0,0 l/m² 2,3 km/h (1 Bft) W-SW 248 ° 0 min 26 W/m² -1,3 °C -0,2 °C 4,8 km/h (1 Bft)
03.12.2023 12:03 22,1 °C -0,2 °C 45 % 92 % 1021,8 hPa 0,0 l/m² 1,8 km/h (1 Bft) W-SW 248 ° 0 min 26 W/m² -1,3 °C -0,2 °C 3,2 km/h (1 Bft)
03.12.2023 12:04 22,1 °C -0,2 °C 45 % 92 % 1021,8 hPa 0,0 l/m² 1,9 km/h (1 Bft) W-SW 247 ° 0 min 25 W/m² -1,3 °C -0,2 °C 4,8 km/h (1 Bft)
03.12.2023 12:05 22,1 °C -0,2 °C 45 % 92 % 1021,8 hPa 0,0 l/m² 3,8 km/h (1 Bft) W-SW 246 ° 0 min 26 W/m² -1,3 °C -0,2 °C 4,8 km/h (1 Bft)
03.12.2023 12:06 22,1 °C -0,2 °C 45 % 92 % 1021,8 hPa 0,0 l/m² 3,3 km/h (1 Bft) W-SW 240 ° 0 min 26 W/m² -1,3 °C -0,2 °C 6,4 km/h (2 Bft)
03.12.2023 12:07 22,1 °C -0,2 °C 45 % 92 % 1021,8 hPa 0,0 l/m² 4,2 km/h (1 Bft) W-SW 257 ° 0 min 26 W/m² -1,3 °C -0,2 °C 6,4 km/h (2 Bft)
03.12.2023 12:08 22,1 °C -0,2 °C 45 % 92 % 1021,8 hPa 0,0 l/m² 3,8 km/h (1 Bft) W-SW 244 ° 0 min 26 W/m² -1,3 °C -0,2 °C 6,4 km/h (2 Bft)
03.12.2023 12:09 22,1 °C -0,2 °C 45 % 92 % 1021,9 hPa 0,0 l/m² 3,0 km/h (1 Bft) W-SW 249 ° 0 min 26 W/m² -1,3 °C -0,2 °C 4,8 km/h (1 Bft)
03.12.2023 12:11 22,1 °C -0,2 °C 45 % 92 % 1021,7 hPa 0,0 l/m² 5,4 km/h (2 Bft) W-SW 244 ° 0 min 28 W/m² -1,3 °C -0,2 °C 11,3 km/h (2 Bft)
03.12.2023 12:13 22,1 °C -0,2 °C 45 % 92 % 1021,8 hPa 0,0 l/m² 2,8 km/h (1 Bft) W-SW 254 ° 0 min 30 W/m² -1,3 °C -0,2 °C 4,8 km/h (1 Bft)
03.12.2023 12:14 22,2 °C -0,2 °C 45 % 92 % 1021,8 hPa 0,0 l/m² 1,7 km/h (1 Bft) W-SW 251 ° 0 min 30 W/m² -1,3 °C -0,2 °C 4,8 km/h (1 Bft)
03.12.2023 12:15 22,1 °C -0,1 °C 45 % 92 % 1021,9 hPa 0,0 l/m² 2,9 km/h (1 Bft) W 262 ° 0 min 32 W/m² -1,2 °C -0,1 °C 4,8 km/h (1 Bft)
03.12.2023 12:16 22,1 °C -0,1 °C 45 % 92 % 1021,9 hPa 0,0 l/m² 6,4 km/h (2 Bft) W 273 ° 0 min 32 W/m² -1,2 °C -0,1 °C 9,7 km/h (2 Bft)
03.12.2023 12:17 22,1 °C -0,1 °C 45 % 92 % 1021,8 hPa 0,0 l/m² 4,4 km/h (1 Bft) W 259 ° 0 min 33 W/m² -1,2 °C -0,1 °C 6,4 km/h (2 Bft)
03.12.2023 12:18 22,2 °C -0,1 °C 45 % 92 % 1021,9 hPa 0,0 l/m² 5,3 km/h (1 Bft) W-SW 246 ° 0 min 33 W/m² -1,2 °C -0,1 °C 9,7 km/h (2 Bft)
03.12.2023 12:19 22,1 °C -0,2 °C 45 % 92 % 1021,9 hPa 0,0 l/m² 5,1 km/h (1 Bft) W 259 ° 0 min 37 W/m² -1,3 °C -0,2 °C 6,4 km/h (2 Bft)
03.12.2023 12:21 22,1 °C -0,2 °C 45 % 92 % 1021,8 hPa 0,0 l/m² 5,0 km/h (1 Bft) W 269 ° 0 min 40 W/m² -1,3 °C -0,2 °C 6,4 km/h (2 Bft)
03.12.2023 12:23 22,2 °C -0,1 °C 45 % 92 % 1021,8 hPa 0,0 l/m² 2,2 km/h (1 Bft) W 265 ° 0 min 42 W/m² -1,2 °C -0,1 °C 4,8 km/h (1 Bft)
03.12.2023 12:24 22,2 °C -0,1 °C 45 % 92 % 1021,8 hPa 0,0 l/m² 3,2 km/h (1 Bft) W-SW 246 ° 0 min 42 W/m² -1,2 °C -0,1 °C 4,8 km/h (1 Bft)
03.12.2023 12:25 22,2 °C -0,1 °C 45 % 92 % 1021,8 hPa 0,0 l/m² 3,4 km/h (1 Bft) W 262 ° 0 min 44 W/m² -1,2 °C -0,1 °C 4,8 km/h (1 Bft)
03.12.2023 12:26 22,2 °C -0,1 °C 45 % 92 % 1021,8 hPa 0,0 l/m² 5,3 km/h (1 Bft) SW 233 ° 0 min 46 W/m² -1,2 °C -0,1 °C 9,7 km/h (2 Bft)
03.12.2023 12:27 22,2 °C -0,1 °C 45 % 92 % 1021,8 hPa 0,0 l/m² 6,5 km/h (2 Bft) W-SW 250 ° 0 min 46 W/m² -1,2 °C -0,2 °C 8,0 km/h (2 Bft)
03.12.2023 12:28 22,2 °C 0,0 °C 45 % 92 % 1021,9 hPa 0,0 l/m² 5,6 km/h (2 Bft) W-SW 250 ° 0 min 47 W/m² -1,1 °C 0,0 °C 6,4 km/h (2 Bft)
03.12.2023 12:29 22,2 °C -0,1 °C 45 % 92 % 1021,9 hPa 0,0 l/m² 5,1 km/h (1 Bft) W-SW 238 ° 0 min 49 W/m² -1,2 °C -0,1 °C 6,4 km/h (2 Bft)
03.12.2023 12:31 22,2 °C 0,0 °C 45 % 92 % 1021,9 hPa 0,0 l/m² 4,1 km/h (1 Bft) W-SW 238 ° 2 min 56 W/m² -1,1 °C 0,0 °C 8,0 km/h (2 Bft)
03.12.2023 12:33 22,2 °C 0,1 °C 45 % 92 % 1022,0 hPa 0,0 l/m² 5,3 km/h (1 Bft) W-SW 242 ° 2 min 62 W/m² -1,0 °C 0,1 °C 8,0 km/h (2 Bft)
03.12.2023 12:34 22,2 °C 0,1 °C 45 % 92 % 1021,9 hPa 0,0 l/m² 5,1 km/h (1 Bft) W-SW 241 ° 1 min 65 W/m² -1,0 °C 0,1 °C 6,4 km/h (2 Bft)
03.12.2023 12:35 22,2 °C 0,1 °C 45 % 92 % 1021,9 hPa 0,0 l/m² 4,1 km/h (1 Bft) W-SW 239 ° 1 min 69 W/m² -1,0 °C 0,1 °C 4,8 km/h (1 Bft)
03.12.2023 12:36 22,2 °C 0,2 °C 45 % 92 % 1021,9 hPa 0,0 l/m² 3,8 km/h (1 Bft) W-SW 238 ° 1 min 72 W/m² -0,9 °C 0,2 °C 4,8 km/h (1 Bft)
03.12.2023 12:37 22,2 °C 0,2 °C 45 % 92 % 1022,0 hPa 0,0 l/m² 4,1 km/h (1 Bft) SW 234 ° 1 min 88 W/m² -0,9 °C 0,2 °C 6,4 km/h (2 Bft)
03.12.2023 12:38 22,2 °C 0,2 °C 45 % 92 % 1022,0 hPa 0,0 l/m² 5,2 km/h (1 Bft) SW 227 ° 1 min 104 W/m² -0,9 °C 0,2 °C 6,4 km/h (2 Bft)
03.12.2023 12:39 22,2 °C 0,3 °C 45 % 92 % 1022,0 hPa 0,0 l/m² 6,4 km/h (2 Bft) W-SW 254 ° 1 min 88 W/m² -0,8 °C 0,3 °C 11,3 km/h (2 Bft)
03.12.2023 12:41 22,2 °C 0,3 °C 45 % 91 % 1022,0 hPa 0,0 l/m² 7,3 km/h (2 Bft) W-SW 242 ° 2 min 69 W/m² -1,0 °C -0,6 °C 12,9 km/h (3 Bft)
03.12.2023 12:43 22,2 °C 0,3 °C 45 % 92 % 1022,0 hPa 0,0 l/m² 8,1 km/h (2 Bft) W-SW 237 ° 0 min 49 W/m² -0,8 °C -1,4 °C 11,3 km/h (2 Bft)
03.12.2023 12:44 22,2 °C 0,3 °C 45 % 92 % 1022,0 hPa 0,0 l/m² 6,9 km/h (2 Bft) W-SW 246 ° 0 min 44 W/m² -0,8 °C -0,2 °C 8,0 km/h (2 Bft)
03.12.2023 12:47 22,2 °C 0,3 °C 45 % 91 % 1022,0 hPa 0,0 l/m² 8,0 km/h (2 Bft) W-SW 250 ° 0 min 32 W/m² -1,0 °C -1,3 °C 12,9 km/h (3 Bft)
03.12.2023 12:48 22,2 °C 0,3 °C 45 % 91 % 1022,0 hPa 0,0 l/m² 4,8 km/h (1 Bft) W-SW 252 ° 0 min 28 W/m² -1,0 °C 0,3 °C 8,0 km/h (2 Bft)
03.12.2023 12:49 22,2 °C 0,3 °C 45 % 91 % 1022,0 hPa 0,0 l/m² 5,7 km/h (2 Bft) W-SW 254 ° 0 min 25 W/m² -1,0 °C 0,3 °C 8,0 km/h (2 Bft)
03.12.2023 12:51 22,2 °C 0,2 °C 45 % 91 % 1022,1 hPa 0,0 l/m² 6,7 km/h (2 Bft) W-SW 248 ° 0 min 23 W/m² -1,1 °C -0,1 °C 11,3 km/h (2 Bft)
03.12.2023 12:53 22,2 °C 0,2 °C 45 % 91 % 1022,0 hPa 0,0 l/m² 6,4 km/h (2 Bft) W-SW 254 ° 0 min 23 W/m² -1,1 °C 0,2 °C 11,3 km/h (2 Bft)
03.12.2023 12:54 22,2 °C 0,2 °C 45 % 91 % 1022,1 hPa 0,0 l/m² 5,1 km/h (1 Bft) W-SW 251 ° 0 min 23 W/m² -1,1 °C 0,2 °C 6,4 km/h (2 Bft)
03.12.2023 12:55 22,2 °C 0,2 °C 45 % 91 % 1022,1 hPa 0,0 l/m² 5,9 km/h (2 Bft) W 263 ° 0 min 23 W/m² -1,1 °C 0,2 °C 11,3 km/h (2 Bft)
03.12.2023 12:56 22,2 °C 0,2 °C 45 % 91 % 1022,1 hPa 0,0 l/m² 4,2 km/h (1 Bft) W-SW 252 ° 0 min 23 W/m² -1,1 °C 0,2 °C 6,4 km/h (2 Bft)
03.12.2023 12:57 22,2 °C 0,2 °C 45 % 91 % 1022,1 hPa 0,0 l/m² 6,0 km/h (2 Bft) W-SW 254 ° 0 min 23 W/m² -1,1 °C 0,2 °C 8,0 km/h (2 Bft)
03.12.2023 12:58 22,1 °C 0,1 °C 45 % 91 % 1022,1 hPa 0,0 l/m² 5,5 km/h (2 Bft) SW 233 ° 0 min 25 W/m² -1,2 °C 0,1 °C 8,0 km/h (2 Bft)
03.12.2023 12:59 22,2 °C 0,1 °C 45 % 91 % 1022,1 hPa 0,0 l/m² 7,4 km/h (2 Bft) W-SW 252 ° 0 min 25 W/m² -1,2 °C -0,9 °C 12,9 km/h (3 Bft)
03.12.2023 13:01 22,1 °C 0,1 °C 45 % 91 % 1022,1 hPa 0,0 l/m² 7,4 km/h (2 Bft) W-SW 258 ° 0 min 26 W/m² -1,2 °C -0,9 °C 11,3 km/h (2 Bft)
03.12.2023 13:03 22,1 °C 0,1 °C 45 % 91 % 1022,1 hPa 0,0 l/m² 6,5 km/h (2 Bft) W-SW 252 ° 0 min 28 W/m² -1,2 °C 0,0 °C 11,3 km/h (2 Bft)
03.12.2023 13:04 22,1 °C 0,1 °C 45 % 91 % 1022,0 hPa 0,0 l/m² 7,4 km/h (2 Bft) W-SW 248 ° 0 min 28 W/m² -1,2 °C -0,9 °C 11,3 km/h (2 Bft)
03.12.2023 13:05 22,1 °C 0,0 °C 45 % 91 % 1022,0 hPa 0,0 l/m² 5,7 km/h (2 Bft) W-SW 242 ° 0 min 28 W/m² -1,3 °C 0,0 °C 8,0 km/h (2 Bft)
03.12.2023 13:06 22,1 °C 0,1 °C 45 % 91 % 1022,0 hPa 0,0 l/m² 6,1 km/h (2 Bft) W-SW 238 ° 0 min 28 W/m² -1,2 °C 0,1 °C 11,3 km/h (2 Bft)
03.12.2023 13:07 22,1 °C 0,1 °C 45 % 91 % 1022,0 hPa 0,0 l/m² 9,1 km/h (2 Bft) SW 231 ° 0 min 28 W/m² -1,2 °C -2,6 °C 14,5 km/h (3 Bft)
03.12.2023 13:08 22,1 °C 0,1 °C 45 % 91 % 1022,1 hPa 0,0 l/m² 11,7 km/h (2 Bft) SW 232 ° 0 min 26 W/m² -1,2 °C -4,7 °C 14,5 km/h (3 Bft)
03.12.2023 13:09 22,1 °C 0,0 °C 45 % 91 % 1022,0 hPa 0,0 l/m² 8,7 km/h (2 Bft) W-SW 238 ° 0 min 26 W/m² -1,3 °C -2,3 °C 14,5 km/h (3 Bft)
03.12.2023 13:11 22,1 °C 0,0 °C 45 % 91 % 1022,0 hPa 0,0 l/m² 7,9 km/h (2 Bft) W 261 ° 0 min 26 W/m² -1,3 °C -1,5 °C 11,3 km/h (2 Bft)
03.12.2023 13:13 22,1 °C 0,1 °C 45 % 91 % 1022,0 hPa 0,0 l/m² 8,7 km/h (2 Bft) W-SW 252 ° 0 min 28 W/m² -1,2 °C -2,2 °C 14,5 km/h (3 Bft)
03.12.2023 13:14 22,1 °C 0,0 °C 45 % 91 % 1022,0 hPa 0,0 l/m² 10,5 km/h (2 Bft) W-SW 252 ° 0 min 28 W/m² -1,3 °C -3,9 °C 16,1 km/h (3 Bft)
03.12.2023 13:15 22,1 °C 0,0 °C 45 % 91 % 1022,1 hPa 0,0 l/m² 11,5 km/h (2 Bft) W-SW 250 ° 0 min 28 W/m² -1,3 °C -4,6 °C 14,5 km/h (3 Bft)
03.12.2023 13:16 22,1 °C 0,0 °C 45 % 91 % 1022,1 hPa 0,0 l/m² 11,5 km/h (2 Bft) W-SW 248 ° 0 min 28 W/m² -1,3 °C -4,6 °C 14,5 km/h (3 Bft)
03.12.2023 13:17 22,1 °C 0,0 °C 45 % 91 % 1022,0 hPa 0,0 l/m² 10,8 km/h (2 Bft) W-SW 242 ° 0 min 28 W/m² -1,3 °C -4,1 °C 14,5 km/h (3 Bft)
03.12.2023 13:18 22,1 °C 0,0 °C 45 % 91 % 1022,1 hPa 0,0 l/m² 13,4 km/h (3 Bft) W-SW 238 ° 0 min 30 W/m² -1,3 °C -6,0 °C 16,1 km/h (3 Bft)
03.12.2023 13:19 22,1 °C 0,0 °C 45 % 91 % 1022,0 hPa 0,0 l/m² 12,7 km/h (3 Bft) W-SW 254 ° 0 min 33 W/m² -1,3 °C -5,5 °C 16,1 km/h (3 Bft)
03.12.2023 13:21 22,1 °C 0,0 °C 45 % 91 % 1022,1 hPa 0,0 l/m² 11,4 km/h (2 Bft) W-SW 240 ° 0 min 37 W/m² -1,3 °C -4,6 °C 16,1 km/h (3 Bft)
03.12.2023 13:23 22,1 °C 0,0 °C 45 % 91 % 1022,1 hPa 0,0 l/m² 10,7 km/h (2 Bft) W-SW 242 ° 0 min 35 W/m² -1,3 °C -4,0 °C 14,5 km/h (3 Bft)
03.12.2023 13:24 22,1 °C 0,0 °C 45 % 91 % 1022,0 hPa 0,0 l/m² 10,1 km/h (2 Bft) SW 234 ° 0 min 33 W/m² -1,3 °C -3,5 °C 12,9 km/h (3 Bft)
03.12.2023 13:25 22,1 °C 0,0 °C 45 % 91 % 1022,1 hPa 0,0 l/m² 8,6 km/h (2 Bft) W-SW 252 ° 0 min 32 W/m² -1,3 °C -2,2 °C 12,9 km/h (3 Bft)
03.12.2023 13:27 22,1 °C 0,0 °C 45 % 91 % 1022,0 hPa 0,0 l/m² 9,2 km/h (2 Bft) W-SW 246 ° 0 min 30 W/m² -1,3 °C -2,8 °C 12,9 km/h (3 Bft)
03.12.2023 13:28 22,1 °C -0,1 °C 45 % 91 % 1022,0 hPa 0,0 l/m² 10,4 km/h (2 Bft) W-SW 241 ° 0 min 28 W/m² -1,4 °C -3,9 °C 12,9 km/h (3 Bft)
03.12.2023 13:29 22,0 °C 0,0 °C 45 % 91 % 1022,0 hPa 0,0 l/m² 9,2 km/h (2 Bft) W-SW 241 ° 0 min 26 W/m² -1,3 °C -2,8 °C 12,9 km/h (3 Bft)
03.12.2023 13:31 22,0 °C -0,1 °C 45 % 91 % 1022,1 hPa 0,0 l/m² 10,4 km/h (2 Bft) W 263 ° 0 min 25 W/m² -1,4 °C -3,9 °C 14,5 km/h (3 Bft)
03.12.2023 13:33 22,0 °C -0,1 °C 45 % 91 % 1022,1 hPa 0,0 l/m² 8,6 km/h (2 Bft) SW 225 ° 0 min 21 W/m² -1,4 °C -2,3 °C 12,9 km/h (3 Bft)
03.12.2023 13:34 22,0 °C -0,1 °C 45 % 91 % 1022,1 hPa 0,0 l/m² 10,7 km/h (2 Bft) W-SW 242 ° 0 min 19 W/m² -1,4 °C -4,1 °C 14,5 km/h (3 Bft)
03.12.2023 13:35 22,0 °C -0,1 °C 45 % 91 % 1022,1 hPa 0,0 l/m² 11,7 km/h (2 Bft) W-SW 243 ° 0 min 18 W/m² -1,4 °C -4,9 °C 16,1 km/h (3 Bft)
03.12.2023 13:36 22,0 °C -0,1 °C 45 % 91 % 1022,1 hPa 0,0 l/m² 9,4 km/h (2 Bft) SW 235 ° 0 min 16 W/m² -1,4 °C -3,0 °C 12,9 km/h (3 Bft)
03.12.2023 13:37 22,0 °C -0,1 °C 45 % 91 % 1022,2 hPa 0,0 l/m² 12,6 km/h (3 Bft) W-SW 242 ° 0 min 16 W/m² -1,4 °C -5,5 °C 16,1 km/h (3 Bft)
03.12.2023 13:38 22,0 °C -0,1 °C 45 % 91 % 1022,2 hPa 0,0 l/m² 11,0 km/h (2 Bft) W-SW 238 ° 0 min 16 W/m² -1,4 °C -4,4 °C 14,5 km/h (3 Bft)
03.12.2023 13:39 22,0 °C -0,1 °C 45 % 91 % 1022,1 hPa 0,0 l/m² 8,3 km/h (2 Bft) SW 236 ° 0 min 16 W/m² -1,4 °C -2,0 °C 11,3 km/h (2 Bft)
03.12.2023 13:41 21,9 °C -0,1 °C 45 % 91 % 1022,2 hPa 0,0 l/m² 8,3 km/h (2 Bft) W-SW 244 ° 0 min 14 W/m² -1,4 °C -2,0 °C 12,9 km/h (3 Bft)
03.12.2023 13:43 21,9 °C -0,1 °C 45 % 91 % 1022,2 hPa 0,0 l/m² 12,0 km/h (2 Bft) W-SW 240 ° 0 min 14 W/m² -1,4 °C -5,1 °C 16,1 km/h (3 Bft)
03.12.2023 13:44 21,9 °C -0,1 °C 45 % 91 % 1022,2 hPa 0,0 l/m² 9,8 km/h (2 Bft) SW 229 ° 0 min 12 W/m² -1,4 °C -3,4 °C 12,9 km/h (3 Bft)
03.12.2023 13:45 21,9 °C -0,1 °C 45 % 91 % 1022,2 hPa 0,0 l/m² 7,7 km/h (2 Bft) W-SW 237 ° 0 min 12 W/m² -1,4 °C -1,5 °C 9,7 km/h (2 Bft)
03.12.2023 13:46 21,9 °C -0,1 °C 45 % 91 % 1022,2 hPa 0,0 l/m² 9,1 km/h (2 Bft) W-SW 245 ° 0 min 12 W/m² -1,4 °C -2,8 °C 12,9 km/h (3 Bft)
03.12.2023 13:47 21,9 °C -0,1 °C 45 % 91 % 1022,2 hPa 0,0 l/m² 7,8 km/h (2 Bft) W-SW 251 ° 0 min 12 W/m² -1,4 °C -1,6 °C 9,7 km/h (2 Bft)
03.12.2023 13:48 21,9 °C -0,1 °C 45 % 91 % 1022,2 hPa 0,0 l/m² 6,3 km/h (2 Bft) W-SW 242 ° 0 min 12 W/m² -1,4 °C -0,1 °C 11,3 km/h (2 Bft)
03.12.2023 13:49 21,9 °C -0,1 °C 45 % 91 % 1022,3 hPa 0,0 l/m² 6,5 km/h (2 Bft) SW 233 ° 0 min 12 W/m² -1,4 °C -0,2 °C 8,0 km/h (2 Bft)
03.12.2023 13:51 21,9 °C -0,1 °C 45 % 91 % 1022,2 hPa 0,0 l/m² 9,4 km/h (2 Bft) W 261 ° 0 min 14 W/m² -1,4 °C -3,0 °C 12,9 km/h (3 Bft)
03.12.2023 13:53 21,9 °C -0,1 °C 45 % 91 % 1022,3 hPa 0,0 l/m² 7,8 km/h (2 Bft) W-SW 244 ° 0 min 14 W/m² -1,4 °C -1,6 °C 12,9 km/h (3 Bft)
03.12.2023 13:54 21,9 °C -0,1 °C 45 % 91 % 1022,3 hPa 0,0 l/m² 8,2 km/h (2 Bft) W-SW 239 ° 0 min 14 W/m² -1,4 °C -1,9 °C 12,9 km/h (3 Bft)
03.12.2023 13:55 21,9 °C -0,1 °C 45 % 91 % 1022,3 hPa 0,0 l/m² 6,7 km/h (2 Bft) W-SW 241 ° 0 min 16 W/m² -1,4 °C -0,4 °C 9,7 km/h (2 Bft)
03.12.2023 13:56 21,9 °C -0,1 °C 45 % 91 % 1022,4 hPa 0,0 l/m² 6,4 km/h (2 Bft) W-SW 250 ° 0 min 16 W/m² -1,4 °C -0,1 °C 9,7 km/h (2 Bft)
03.12.2023 13:57 21,9 °C -0,1 °C 45 % 91 % 1022,3 hPa 0,0 l/m² 8,6 km/h (2 Bft) W-SW 253 ° 0 min 18 W/m² -1,4 °C -2,3 °C 11,3 km/h (2 Bft)
03.12.2023 13:58 21,9 °C -0,1 °C 45 % 91 % 1022,4 hPa 0,0 l/m² 6,9 km/h (2 Bft) W-SW 248 ° 0 min 18 W/m² -1,4 °C -0,6 °C 8,0 km/h (2 Bft)
03.12.2023 13:59 21,9 °C -0,1 °C 45 % 91 % 1022,3 hPa 0,0 l/m² 6,0 km/h (2 Bft) W-SW 252 ° 0 min 18 W/m² -1,4 °C -0,1 °C 8,0 km/h (2 Bft)
03.12.2023 14:01 21,8 °C -0,1 °C 45 % 91 % 1022,4 hPa 0,0 l/m² 6,5 km/h (2 Bft) W-SW 242 ° 0 min 18 W/m² -1,4 °C -0,2 °C 11,3 km/h (2 Bft)
03.12.2023 14:03 21,9 °C -0,1 °C 45 % 91 % 1022,3 hPa 0,0 l/m² 7,7 km/h (2 Bft) W-SW 252 ° 0 min 18 W/m² -1,4 °C -1,5 °C 11,3 km/h (2 Bft)
03.12.2023 14:04 21,9 °C -0,1 °C 45 % 91 % 1022,3 hPa 0,0 l/m² 6,1 km/h (2 Bft) W-SW 250 ° 0 min 18 W/m² -1,4 °C -0,1 °C 8,0 km/h (2 Bft)
03.12.2023 14:05 21,9 °C -0,1 °C 45 % 91 % 1022,4 hPa 0,0 l/m² 6,3 km/h (2 Bft) W-SW 241 ° 0 min 18 W/m² -1,4 °C -0,1 °C 8,0 km/h (2 Bft)
03.12.2023 14:06 21,9 °C -0,1 °C 45 % 91 % 1022,4 hPa 0,0 l/m² 5,8 km/h (2 Bft) W-SW 243 ° 0 min 18 W/m² -1,4 °C -0,1 °C 8,0 km/h (2 Bft)
03.12.2023 14:07 21,9 °C -0,1 °C 45 % 91 % 1022,4 hPa 0,0 l/m² 7,1 km/h (2 Bft) W-SW 244 ° 0 min 18 W/m² -1,4 °C -0,8 °C 9,7 km/h (2 Bft)
03.12.2023 14:08 21,8 °C -0,1 °C 45 % 91 % 1022,4 hPa 0,0 l/m² 6,2 km/h (2 Bft) SW 235 ° 0 min 19 W/m² -1,4 °C -0,1 °C 8,0 km/h (2 Bft)
03.12.2023 14:09 21,9 °C -0,1 °C 45 % 91 % 1022,4 hPa 0,0 l/m² 6,5 km/h (2 Bft) W-SW 243 ° 0 min 19 W/m² -1,4 °C -0,2 °C 8,0 km/h (2 Bft)
03.12.2023 14:11 21,9 °C -0,1 °C 45 % 91 % 1022,4 hPa 0,0 l/m² 6,0 km/h (2 Bft) SW 234 ° 0 min 19 W/m² -1,4 °C -0,1 °C 8,0 km/h (2 Bft)
03.12.2023 14:13 21,9 °C -0,1 °C 45 % 91 % 1022,4 hPa 0,0 l/m² 6,2 km/h (2 Bft) W-SW 248 ° 0 min 19 W/m² -1,4 °C -0,1 °C 9,7 km/h (2 Bft)
03.12.2023 14:14 21,9 °C -0,1 °C 45 % 91 % 1022,4 hPa 0,0 l/m² 6,8 km/h (2 Bft) W-SW 258 ° 0 min 19 W/m² -1,4 °C -0,5 °C 8,0 km/h (2 Bft)
03.12.2023 14:15 21,9 °C -0,1 °C 45 % 91 % 1022,5 hPa 0,0 l/m² 6,0 km/h (2 Bft) W-SW 240 ° 0 min 19 W/m² -1,4 °C -0,1 °C 6,4 km/h (2 Bft)
03.12.2023 14:17 21,8 °C 0,0 °C 45 % 91 % 1022,4 hPa 0,0 l/m² 5,1 km/h (1 Bft) W-SW 249 ° 0 min 19 W/m² -1,3 °C 0,0 °C 8,0 km/h (2 Bft)
03.12.2023 14:18 21,8 °C 0,0 °C 45 % 91 % 1022,4 hPa 0,0 l/m² 4,5 km/h (1 Bft) W-SW 241 ° 0 min 19 W/m² -1,3 °C 0,0 °C 6,4 km/h (2 Bft)
03.12.2023 14:19 21,9 °C 0,0 °C 45 % 91 % 1022,4 hPa 0,0 l/m² 5,2 km/h (1 Bft) W-SW 244 ° 0 min 18 W/m² -1,3 °C 0,0 °C 6,4 km/h (2 Bft)
03.12.2023 14:21 21,9 °C 0,0 °C 45 % 91 % 1022,4 hPa 0,0 l/m² 4,4 km/h (1 Bft) W-SW 247 ° 0 min 18 W/m² -1,3 °C 0,0 °C 6,4 km/h (2 Bft)
03.12.2023 14:23 21,9 °C 0,0 °C 45 % 91 % 1022,4 hPa 0,0 l/m² 3,2 km/h (1 Bft) W-SW 241 ° 0 min 19 W/m² -1,3 °C 0,0 °C 4,8 km/h (1 Bft)
03.12.2023 14:24 21,9 °C 0,1 °C 45 % 91 % 1022,4 hPa 0,0 l/m² 3,4 km/h (1 Bft) W-SW 239 ° 0 min 19 W/m² -1,2 °C 0,1 °C 4,8 km/h (1 Bft)
03.12.2023 14:25 21,8 °C 0,0 °C 45 % 91 % 1022,5 hPa 0,0 l/m² 3,2 km/h (1 Bft) W-SW 240 ° 0 min 19 W/m² -1,3 °C 0,0 °C 4,8 km/h (1 Bft)
03.12.2023 14:27 21,8 °C 0,0 °C 45 % 91 % 1022,5 hPa 0,0 l/m² 3,1 km/h (1 Bft) W-SW 240 ° 0 min 19 W/m² -1,3 °C 0,0 °C 4,8 km/h (1 Bft)
03.12.2023 14:28 21,8 °C 0,0 °C 45 % 91 % 1022,5 hPa 0,0 l/m² 2,0 km/h (1 Bft) W-SW 245 ° 0 min 16 W/m² -1,3 °C 0,0 °C 3,2 km/h (1 Bft)
03.12.2023 14:29 21,8 °C 0,0 °C 45 % 91 % 1022,5 hPa 0,0 l/m² 2,1 km/h (1 Bft) W-SW 246 ° 0 min 16 W/m² -1,3 °C 0,0 °C 3,2 km/h (1 Bft)
03.12.2023 14:31 21,8 °C 0,1 °C 45 % 91 % 1022,5 hPa 0,0 l/m² 2,4 km/h (1 Bft) W-SW 244 ° 0 min 14 W/m² -1,2 °C 0,1 °C 4,8 km/h (1 Bft)
03.12.2023 14:33 21,9 °C 0,1 °C 45 % 91 % 1022,4 hPa 0,0 l/m² 3,1 km/h (1 Bft) W-SW 240 ° 0 min 14 W/m² -1,2 °C 0,1 °C 4,8 km/h (1 Bft)
03.12.2023 14:34 21,9 °C 0,1 °C 45 % 91 % 1022,5 hPa 0,0 l/m² 2,8 km/h (1 Bft) SW 230 ° 0 min 14 W/m² -1,2 °C 0,1 °C 4,8 km/h (1 Bft)
03.12.2023 14:35 21,8 °C 0,1 °C 45 % 91 % 1022,5 hPa 0,0 l/m² 3,9 km/h (1 Bft) SW 236 ° 0 min 14 W/m² -1,2 °C 0,1 °C 4,8 km/h (1 Bft)
03.12.2023 14:36 21,8 °C 0,1 °C 45 % 91 % 1022,5 hPa 0,0 l/m² 3,6 km/h (1 Bft) SW 236 ° 0 min 14 W/m² -1,2 °C 0,1 °C 4,8 km/h (1 Bft)
03.12.2023 14:37 21,8 °C 0,1 °C 45 % 91 % 1022,5 hPa 0,0 l/m² 3,8 km/h (1 Bft) SW 236 ° 0 min 14 W/m² -1,2 °C 0,1 °C 4,8 km/h (1 Bft)
03.12.2023 14:38 21,8 °C 0,1 °C 45 % 91 % 1022,6 hPa 0,0 l/m² 3,9 km/h (1 Bft) W-SW 238 ° 0 min 14 W/m² -1,2 °C 0,1 °C 4,8 km/h (1 Bft)
03.12.2023 14:39 21,8 °C 0,1 °C 45 % 91 % 1022,5 hPa 0,0 l/m² 3,4 km/h (1 Bft) W-SW 244 ° 0 min 14 W/m² -1,2 °C 0,1 °C 4,8 km/h (1 Bft)
03.12.2023 14:41 21,8 °C 0,1 °C 45 % 91 % 1022,6 hPa 0,0 l/m² 4,1 km/h (1 Bft) W-SW 247 ° 0 min 14 W/m² -1,2 °C 0,1 °C 6,4 km/h (2 Bft)
03.12.2023 14:43 21,9 °C 0,1 °C 45 % 91 % 1022,5 hPa 0,0 l/m² 3,8 km/h (1 Bft) W-SW 240 ° 0 min 16 W/m² -1,2 °C 0,1 °C 6,4 km/h (2 Bft)
03.12.2023 14:44 21,8 °C 0,1 °C 45 % 91 % 1022,5 hPa 0,0 l/m² 3,9 km/h (1 Bft) W-SW 242 ° 0 min 16 W/m² -1,2 °C 0,1 °C 4,8 km/h (1 Bft)
03.12.2023 14:45 21,8 °C 0,1 °C 45 % 91 % 1022,6 hPa 0,0 l/m² 4,1 km/h (1 Bft) W-SW 246 ° 0 min 16 W/m² -1,2 °C 0,1 °C 6,4 km/h (2 Bft)
03.12.2023 14:46 21,8 °C 0,1 °C 45 % 91 % 1022,6 hPa 0,0 l/m² 3,5 km/h (1 Bft) W-SW 246 ° 0 min 18 W/m² -1,2 °C 0,1 °C 4,8 km/h (1 Bft)
03.12.2023 14:47 21,9 °C 0,1 °C 45 % 91 % 1022,5 hPa 0,0 l/m² 2,7 km/h (1 Bft) W-SW 247 ° 0 min 18 W/m² -1,2 °C 0,1 °C 4,8 km/h (1 Bft)
03.12.2023 14:48 21,9 °C 0,1 °C 45 % 91 % 1022,6 hPa 0,0 l/m² 2,4 km/h (1 Bft) W-SW 246 ° 0 min 18 W/m² -1,2 °C 0,1 °C 3,2 km/h (1 Bft)
03.12.2023 14:49 21,9 °C 0,1 °C 45 % 91 % 1022,6 hPa 0,0 l/m² 2,4 km/h (1 Bft) W-SW 246 ° 0 min 18 W/m² -1,2 °C 0,1 °C 3,2 km/h (1 Bft)
03.12.2023 14:51 21,8 °C 0,1 °C 45 % 91 % 1022,5 hPa 0,0 l/m² 1,3 km/h (1 Bft) W-SW 246 ° 0 min 18 W/m² -1,2 °C 0,1 °C 3,2 km/h (1 Bft)
03.12.2023 14:53 21,9 °C 0,1 °C 45 % 91 % 1022,6 hPa 0,0 l/m² 2,3 km/h (1 Bft) W-SW 246 ° 0 min 18 W/m² -1,2 °C 0,1 °C 3,2 km/h (1 Bft)
03.12.2023 14:54 21,9 °C 0,1 °C 45 % 91 % 1022,5 hPa 0,0 l/m² 0,8 km/h (0 Bft) W-SW 246 ° 0 min 18 W/m² -1,2 °C 0,1 °C 3,2 km/h (1 Bft)
03.12.2023 14:55 21,9 °C 0,1 °C 45 % 91 % 1022,5 hPa 0,0 l/m² 1,5 km/h (1 Bft) W-SW 244 ° 0 min 18 W/m² -1,2 °C 0,1 °C 3,2 km/h (1 Bft)
03.12.2023 14:56 21,9 °C 0,1 °C 45 % 91 % 1022,6 hPa 0,0 l/m² 0,5 km/h (0 Bft) W-SW 244 ° 0 min 18 W/m² -1,2 °C 0,1 °C 1,6 km/h (1 Bft)
03.12.2023 14:57 21,9 °C 0,1 °C 45 % 91 % 1022,5 hPa 0,0 l/m² 0,0 km/h (0 Bft) W-SW 244 ° 0 min 14 W/m² -1,2 °C 0,1 °C 0,0 km/h (0 Bft)
03.12.2023 14:58 21,9 °C 0,1 °C 45 % 91 % 1022,5 hPa 0,0 l/m² 0,0 km/h (0 Bft) W-SW 244 ° 0 min 14 W/m² -1,2 °C 0,1 °C 0,0 km/h (0 Bft)
03.12.2023 14:59 21,9 °C 0,1 °C 45 % 91 % 1022,5 hPa 0,0 l/m² 0,0 km/h (0 Bft) W-SW 244 ° 0 min 12 W/m² -1,2 °C 0,1 °C 0,0 km/h (0 Bft)
03.12.2023 15:01 21,9 °C 0,1 °C 45 % 91 % 1022,5 hPa 0,2 l/m² 0,6 km/h (0 Bft) W-SW 244 ° 0 min 11 W/m² -1,2 °C 0,1 °C 3,2 km/h (1 Bft)
03.12.2023 15:03 21,9 °C 0,2 °C 45 % 91 % 1022,6 hPa 0,0 l/m² 1,6 km/h (1 Bft) W-SW 242 ° 0 min 11 W/m² -1,1 °C 0,2 °C 4,8 km/h (1 Bft)
03.12.2023 15:04 21,9 °C 0,1 °C 45 % 91 % 1022,5 hPa 0,0 l/m² 3,8 km/h (1 Bft) W-SW 242 ° 0 min 11 W/m² -1,2 °C 0,1 °C 4,8 km/h (1 Bft)
03.12.2023 15:05 21,9 °C 0,1 °C 45 % 91 % 1022,5 hPa 0,0 l/m² 3,7 km/h (1 Bft) W-SW 242 ° 0 min 11 W/m² -1,2 °C 0,1 °C 4,8 km/h (1 Bft)
03.12.2023 15:06 21,9 °C 0,2 °C 45 % 91 % 1022,5 hPa 0,0 l/m² 3,0 km/h (1 Bft) W-SW 242 ° 0 min 9 W/m² -1,1 °C 0,2 °C 4,8 km/h (1 Bft)
03.12.2023 15:07 22,0 °C 0,2 °C 45 % 91 % 1022,6 hPa 0,0 l/m² 2,0 km/h (1 Bft) W-SW 242 ° 0 min 9 W/m² -1,1 °C 0,2 °C 3,2 km/h (1 Bft)
03.12.2023 15:08 21,9 °C 0,1 °C 45 % 91 % 1022,6 hPa 0,0 l/m² 1,6 km/h (1 Bft) W-SW 242 ° 0 min 9 W/m² -1,2 °C 0,1 °C 3,2 km/h (1 Bft)
03.12.2023 15:09 21,9 °C 0,1 °C 45 % 91 % 1022,6 hPa 0,0 l/m² 1,0 km/h (0 Bft) W-SW 242 ° 0 min 9 W/m² -1,2 °C 0,1 °C 3,2 km/h (1 Bft)
03.12.2023 15:11 21,9 °C 0,2 °C 45 % 91 % 1022,6 hPa 0,0 l/m² 1,0 km/h (0 Bft) W-SW 242 ° 0 min 11 W/m² -1,1 °C 0,2 °C 1,6 km/h (1 Bft)
03.12.2023 15:13 21,9 °C 0,1 °C 45 % 91 % 1022,6 hPa 0,0 l/m² 1,5 km/h (1 Bft) W-SW 242 ° 0 min 11 W/m² -1,2 °C 0,1 °C 3,2 km/h (1 Bft)
03.12.2023 15:14 21,9 °C 0,1 °C 45 % 91 % 1022,6 hPa 0,0 l/m² 1,4 km/h (1 Bft) W-SW 242 ° 0 min 11 W/m² -1,2 °C 0,1 °C 3,2 km/h (1 Bft)
03.12.2023 15:15 22,0 °C 0,1 °C 45 % 91 % 1022,6 hPa 0,0 l/m² 0,8 km/h (0 Bft) W-SW 242 ° 0 min 12 W/m² -1,2 °C 0,1 °C 1,6 km/h (1 Bft)
03.12.2023 15:16 22,0 °C 0,1 °C 45 % 91 % 1022,6 hPa 0,0 l/m² 0,6 km/h (0 Bft) W-SW 242 ° 0 min 12 W/m² -1,2 °C 0,1 °C 1,6 km/h (1 Bft)
03.12.2023 15:17 22,0 °C 0,1 °C 45 % 91 % 1022,6 hPa 0,0 l/m² 1,6 km/h (1 Bft) W-SW 242 ° 0 min 12 W/m² -1,2 °C 0,1 °C 3,2 km/h (1 Bft)
03.12.2023 15:18 22,0 °C 0,1 °C 45 % 91 % 1022,6 hPa 0,0 l/m² 0,5 km/h (0 Bft) W-SW 242 ° 0 min 12 W/m² -1,2 °C 0,1 °C 3,2 km/h (1 Bft)
03.12.2023 15:19 22,0 °C 0,1 °C 45 % 91 % 1022,6 hPa 0,0 l/m² 2,4 km/h (1 Bft) W-SW 242 ° 0 min 14 W/m² -1,2 °C 0,1 °C 3,2 km/h (1 Bft)
03.12.2023 15:21 22,0 °C 0,1 °C 45 % 91 % 1022,6 hPa 0,0 l/m² 0,9 km/h (0 Bft) W-SW 242 ° 0 min 26 W/m² -1,2 °C 0,1 °C 3,2 km/h (1 Bft)
03.12.2023 15:22 22,0 °C 0,1 °C 45 % 91 % 1022,6 hPa 0,0 l/m² 1,6 km/h (1 Bft) W-SW 242 ° 0 min 16 W/m² -1,2 °C 0,1 °C 3,2 km/h (1 Bft)
03.12.2023 15:23 22,0 °C 0,1 °C 45 % 92 % 1022,6 hPa 0,0 l/m² 0,9 km/h (0 Bft) W-SW 242 ° 0 min 14 W/m² -1,0 °C 0,1 °C 3,2 km/h (1 Bft)
03.12.2023 15:24 22,0 °C 0,1 °C 45 % 92 % 1022,6 hPa 0,0 l/m² 1,3 km/h (1 Bft) W-SW 242 ° 0 min 12 W/m² -1,0 °C 0,1 °C 3,2 km/h (1 Bft)
03.12.2023 15:25 22,1 °C 0,1 °C 45 % 91 % 1022,5 hPa 0,0 l/m² 0,9 km/h (0 Bft) W-SW 242 ° 0 min 12 W/m² -1,2 °C 0,1 °C 1,6 km/h (1 Bft)
03.12.2023 15:26 22,1 °C 0,1 °C 45 % 92 % 1022,5 hPa 0,0 l/m² 1,1 km/h (1 Bft) W-SW 242 ° 0 min 11 W/m² -1,0 °C 0,1 °C 3,2 km/h (1 Bft)
03.12.2023 15:27 22,0 °C 0,1 °C 45 % 92 % 1022,6 hPa 0,0 l/m² 0,6 km/h (0 Bft) W-SW 242 ° 0 min 16 W/m² -1,0 °C 0,1 °C 1,6 km/h (1 Bft)
03.12.2023 15:28 22,0 °C 0,1 °C 45 % 91 % 1022,7 hPa 0,0 l/m² 1,2 km/h (1 Bft) W-SW 242 ° 0 min 21 W/m² -1,2 °C 0,1 °C 3,2 km/h (1 Bft)
03.12.2023 15:29 22,1 °C 0,1 °C 45 % 92 % 1022,6 hPa 0,0 l/m² 0,6 km/h (0 Bft) W-SW 242 ° 0 min 21 W/m² -1,0 °C 0,1 °C 1,6 km/h (1 Bft)
03.12.2023 15:31 22,1 °C 0,1 °C 45 % 92 % 1022,7 hPa 0,0 l/m² 0,9 km/h (0 Bft) W-SW 242 ° 0 min 23 W/m² -1,0 °C 0,1 °C 1,6 km/h (1 Bft)
03.12.2023 15:33 22,1 °C 0,1 °C 45 % 91 % 1022,8 hPa 0,0 l/m² 1,0 km/h (0 Bft) W-SW 242 ° 0 min 23 W/m² -1,2 °C 0,1 °C 1,6 km/h (1 Bft)
03.12.2023 15:34 22,1 °C 0,1 °C 45 % 92 % 1022,7 hPa 0,0 l/m² 2,0 km/h (1 Bft) W-SW 242 ° 0 min 21 W/m² -1,0 °C 0,1 °C 3,2 km/h (1 Bft)
03.12.2023 15:35 22,1 °C 0,1 °C 45 % 92 % 1022,7 hPa 0,0 l/m² 1,1 km/h (1 Bft) W-SW 242 ° 0 min 19 W/m² -1,0 °C 0,1 °C 1,6 km/h (1 Bft)
03.12.2023 15:36 22,1 °C 0,1 °C 45 % 92 % 1022,7 hPa 0,0 l/m² 1,2 km/h (1 Bft) W-SW 242 ° 0 min 19 W/m² -1,0 °C 0,1 °C 1,6 km/h (1 Bft)
03.12.2023 15:37 22,1 °C 0,1 °C 45 % 92 % 1022,7 hPa 0,0 l/m² 0,2 km/h (0 Bft) W-SW 242 ° 0 min 16 W/m² -1,0 °C 0,1 °C 1,6 km/h (1 Bft)
03.12.2023 15:38 22,1 °C 0,1 °C 45 % 91 % 1022,8 hPa 0,0 l/m² 0,1 km/h (0 Bft) W-SW 242 ° 0 min 9 W/m² -1,2 °C 0,1 °C 1,6 km/h (1 Bft)
03.12.2023 15:39 22,1 °C 0,2 °C 45 % 92 % 1022,8 hPa 0,0 l/m² 0,0 km/h (0 Bft) W-SW 242 ° 0 min 7 W/m² -0,9 °C 0,2 °C 0,0 km/h (0 Bft)
03.12.2023 15:41 22,1 °C 0,1 °C 45 % 92 % 1022,8 hPa 0,0 l/m² 0,0 km/h (0 Bft) W-SW 242 ° 0 min 9 W/m² -1,0 °C 0,1 °C 0,0 km/h (0 Bft)
03.12.2023 15:43 22,1 °C 0,2 °C 45 % 92 % 1022,9 hPa 0,0 l/m² 0,0 km/h (0 Bft) W-SW 242 ° 0 min 9 W/m² -0,9 °C 0,2 °C 0,0 km/h (0 Bft)
03.12.2023 15:46 22,1 °C 0,1 °C 46 % 91 % 1022,8 hPa 0,0 l/m² 0,0 km/h (0 Bft) W-SW 242 ° 0 min 12 W/m² -1,2 °C 0,1 °C 0,0 km/h (0 Bft)
03.12.2023 15:47 22,1 °C 0,1 °C 45 % 92 % 1022,8 hPa 0,0 l/m² 0,0 km/h (0 Bft) W-SW 242 ° 0 min 11 W/m² -1,0 °C 0,1 °C 0,0 km/h (0 Bft)
03.12.2023 15:48 22,1 °C 0,1 °C 46 % 91 % 1022,8 hPa 0,0 l/m² 0,0 km/h (0 Bft) W-SW 242 ° 0 min 11 W/m² -1,2 °C 0,1 °C 0,0 km/h (0 Bft)
03.12.2023 15:49 22,1 °C 0,1 °C 46 % 91 % 1022,8 hPa 0,0 l/m² 0,0 km/h (0 Bft) W-SW 242 ° 0 min 11 W/m² -1,2 °C 0,1 °C 0,0 km/h (0 Bft)
03.12.2023 15:51 22,1 °C 0,1 °C 46 % 91 % 1022,9 hPa 0,0 l/m² 0,0 km/h (0 Bft) W-SW 242 ° 0 min 7 W/m² -1,2 °C 0,1 °C 0,0 km/h (0 Bft)
03.12.2023 15:53 22,1 °C 0,1 °C 46 % 91 % 1022,9 hPa 0,0 l/m² 0,0 km/h (0 Bft) W-SW 242 ° 0 min 5 W/m² -1,2 °C 0,1 °C 0,0 km/h (0 Bft)
03.12.2023 15:54 22,1 °C 0,1 °C 46 % 91 % 1022,9 hPa 0,0 l/m² 0,0 km/h (0 Bft) W-SW 242 ° 0 min 5 W/m² -1,2 °C 0,1 °C 0,0 km/h (0 Bft)
03.12.2023 15:55 22,1 °C 0,1 °C 46 % 91 % 1022,9 hPa 0,0 l/m² 0,0 km/h (0 Bft) W-SW 242 ° 0 min 5 W/m² -1,2 °C 0,1 °C 0,0 km/h (0 Bft)
03.12.2023 15:56 22,1 °C 0,1 °C 46 % 91 % 1022,9 hPa 0,0 l/m² 0,0 km/h (0 Bft) W-SW 242 ° 0 min 0 W/m² -1,2 °C 0,1 °C 0,0 km/h (0 Bft)
03.12.2023 15:57 22,1 °C 0,1 °C 46 % 91 % 1022,8 hPa 0,0 l/m² 0,0 km/h (0 Bft) W-SW 242 ° 0 min 0 W/m² -1,2 °C 0,1 °C 0,0 km/h (0 Bft)
03.12.2023 15:58 22,1 °C 0,1 °C 46 % 91 % 1022,9 hPa 0,0 l/m² 0,0 km/h (0 Bft) W-SW 242 ° 0 min 0 W/m² -1,2 °C 0,1 °C 0,0 km/h (0 Bft)
03.12.2023 15:59 22,1 °C 0,1 °C 46 % 91 % 1022,9 hPa 0,0 l/m² 0,0 km/h (0 Bft) W-SW 242 ° 0 min 0 W/m² -1,2 °C 0,1 °C 0,0 km/h (0 Bft)
03.12.2023 16:01 22,1 °C 0,2 °C 46 % 91 % 1022,9 hPa 0,0 l/m² 0,3 km/h (0 Bft) W-SW 242 ° 0 min 0 W/m² -1,1 °C 0,2 °C 3,2 km/h (1 Bft)
03.12.2023 16:03 22,2 °C 0,1 °C 46 % 91 % 1023,0 hPa 0,0 l/m² 1,6 km/h (1 Bft) SW 216 ° 0 min 0 W/m² -1,2 °C 0,1 °C 4,8 km/h (1 Bft)
03.12.2023 16:04 22,2 °C 0,1 °C 46 % 91 % 1022,9 hPa 0,0 l/m² 0,2 km/h (0 Bft) SW 216 ° 0 min 0 W/m² -1,2 °C 0,1 °C 1,6 km/h (1 Bft)
03.12.2023 16:05 22,2 °C 0,1 °C 46 % 91 % 1022,9 hPa 0,0 l/m² 3,1 km/h (1 Bft) SW 217 ° 0 min 0 W/m² -1,2 °C 0,1 °C 4,8 km/h (1 Bft)
03.12.2023 16:06 22,2 °C 0,1 °C 46 % 91 % 1023,0 hPa 0,0 l/m² 3,5 km/h (1 Bft) SW 217 ° 0 min 0 W/m² -1,2 °C 0,1 °C 6,4 km/h (2 Bft)
03.12.2023 16:07 22,2 °C 0,1 °C 46 % 91 % 1022,9 hPa 0,0 l/m² 2,3 km/h (1 Bft) SW 217 ° 0 min 0 W/m² -1,2 °C 0,1 °C 3,2 km/h (1 Bft)
03.12.2023 16:08 22,2 °C 0,1 °C 46 % 91 % 1022,9 hPa 0,0 l/m² 1,7 km/h (1 Bft) SW 217 ° 0 min 0 W/m² -1,2 °C 0,1 °C 3,2 km/h (1 Bft)
03.12.2023 16:09 22,2 °C 0,1 °C 46 % 91 % 1023,0 hPa 0,0 l/m² 3,5 km/h (1 Bft) SW 217 ° 0 min 0 W/m² -1,2 °C 0,1 °C 4,8 km/h (1 Bft)
03.12.2023 16:11 22,3 °C 0,1 °C 46 % 91 % 1023,0 hPa 0,0 l/m² 5,1 km/h (1 Bft) SW 218 ° 0 min 0 W/m² -1,2 °C 0,1 °C 8,0 km/h (2 Bft)
03.12.2023 16:13 22,3 °C 0,0 °C 46 % 91 % 1023,0 hPa 0,0 l/m² 4,4 km/h (1 Bft) SW 219 ° 0 min 0 W/m² -1,3 °C 0,0 °C 6,4 km/h (2 Bft)
03.12.2023 16:14 22,3 °C 0,0 °C 46 % 91 % 1023,0 hPa 0,0 l/m² 5,3 km/h (1 Bft) SW 226 ° 0 min 0 W/m² -1,3 °C 0,0 °C 8,0 km/h (2 Bft)
03.12.2023 16:15 22,3 °C -0,1 °C 46 % 91 % 1023,0 hPa 0,0 l/m² 4,6 km/h (1 Bft) SW 218 ° 0 min 0 W/m² -1,4 °C -0,1 °C 6,4 km/h (2 Bft)
03.12.2023 16:16 22,3 °C -0,1 °C 46 % 91 % 1023,0 hPa 0,0 l/m² 5,9 km/h (2 Bft) S-SW 212 ° 0 min 0 W/m² -1,4 °C -0,1 °C 8,0 km/h (2 Bft)
03.12.2023 16:17 22,3 °C -0,1 °C 46 % 91 % 1023,0 hPa 0,0 l/m² 6,1 km/h (2 Bft) S-SW 211 ° 0 min 0 W/m² -1,4 °C -0,1 °C 6,4 km/h (2 Bft)
03.12.2023 16:18 22,3 °C -0,1 °C 46 % 91 % 1023,0 hPa 0,0 l/m² 6,9 km/h (2 Bft) S-SW 207 ° 0 min 0 W/m² -1,4 °C -0,6 °C 9,7 km/h (2 Bft)
03.12.2023 16:19 22,3 °C -0,2 °C 46 % 91 % 1023,1 hPa 0,0 l/m² 8,1 km/h (2 Bft) S-SW 206 ° 0 min 0 W/m² -1,5 °C -2,0 °C 9,7 km/h (2 Bft)
03.12.2023 16:21 22,3 °C -0,2 °C 46 % 91 % 1023,1 hPa 0,0 l/m² 7,3 km/h (2 Bft) S-SW 207 ° 0 min 0 W/m² -1,5 °C -1,1 °C 9,7 km/h (2 Bft)
03.12.2023 16:23 22,3 °C -0,3 °C 46 % 91 % 1023,1 hPa 0,0 l/m² 5,8 km/h (2 Bft) S-SW 198 ° 0 min 0 W/m² -1,6 °C -0,3 °C 8,0 km/h (2 Bft)
03.12.2023 16:24 22,3 °C -0,3 °C 46 % 91 % 1023,1 hPa 0,0 l/m² 7,2 km/h (2 Bft) S-SW 208 ° 0 min 0 W/m² -1,6 °C -1,1 °C 8,0 km/h (2 Bft)
03.12.2023 16:25 22,3 °C -0,3 °C 46 % 91 % 1023,2 hPa 0,0 l/m² 5,3 km/h (1 Bft) S-SW 207 ° 0 min 0 W/m² -1,6 °C -0,3 °C 6,4 km/h (2 Bft)
03.12.2023 16:26 22,3 °C -0,3 °C 46 % 91 % 1023,2 hPa 0,0 l/m² 5,3 km/h (1 Bft) S-SW 208 ° 0 min 0 W/m² -1,6 °C -0,3 °C 6,4 km/h (2 Bft)
03.12.2023 16:27 22,3 °C -0,3 °C 46 % 91 % 1023,1 hPa 0,0 l/m² 5,0 km/h (1 Bft) S-SW 211 ° 0 min 0 W/m² -1,6 °C -0,3 °C 6,4 km/h (2 Bft)
03.12.2023 16:28 22,3 °C -0,3 °C 46 % 91 % 1023,1 hPa 0,0 l/m² 4,2 km/h (1 Bft) S-SW 211 ° 0 min 0 W/m² -1,6 °C -0,3 °C 4,8 km/h (1 Bft)
03.12.2023 16:29 22,3 °C -0,3 °C 46 % 91 % 1023,1 hPa 0,0 l/m² 3,7 km/h (1 Bft) S-SW 212 ° 0 min 0 W/m² -1,6 °C -0,3 °C 4,8 km/h (1 Bft)
03.12.2023 16:31 22,3 °C -0,3 °C 46 % 91 % 1023,1 hPa 0,0 l/m² 4,2 km/h (1 Bft) S-SW 212 ° 0 min 0 W/m² -1,6 °C -0,3 °C 6,4 km/h (2 Bft)
03.12.2023 16:33 22,3 °C -0,4 °C 46 % 91 % 1023,1 hPa 0,0 l/m² 3,7 km/h (1 Bft) S-SW 212 ° 0 min 0 W/m² -1,7 °C -0,4 °C 4,8 km/h (1 Bft)
03.12.2023 16:34 22,3 °C -0,4 °C 46 % 91 % 1023,1 hPa 0,0 l/m² 2,3 km/h (1 Bft) S-SW 212 ° 0 min 0 W/m² -1,7 °C -0,4 °C 3,2 km/h (1 Bft)
03.12.2023 16:35 22,3 °C -0,4 °C 46 % 91 % 1023,1 hPa 0,0 l/m² 3,2 km/h (1 Bft) S-SW 212 ° 0 min 0 W/m² -1,7 °C -0,4 °C 4,8 km/h (1 Bft)
03.12.2023 16:36 22,4 °C -0,4 °C 46 % 91 % 1023,1 hPa 0,0 l/m² 4,7 km/h (1 Bft) S-SW 212 ° 0 min 0 W/m² -1,7 °C -0,4 °C 6,4 km/h (2 Bft)
03.12.2023 16:37 22,4 °C -0,4 °C 46 % 91 % 1023,1 hPa 0,0 l/m² 4,9 km/h (1 Bft) S-SW 206 ° 0 min 0 W/m² -1,7 °C -0,4 °C 6,4 km/h (2 Bft)
03.12.2023 16:38 22,4 °C -0,5 °C 46 % 91 % 1023,1 hPa 0,0 l/m² 4,2 km/h (1 Bft) S-SW 207 ° 0 min 0 W/m² -1,8 °C -0,5 °C 6,4 km/h (2 Bft)
03.12.2023 16:39 22,4 °C -0,5 °C 46 % 91 % 1023,1 hPa 0,0 l/m² 3,8 km/h (1 Bft) S-SW 207 ° 0 min 0 W/m² -1,8 °C -0,5 °C 6,4 km/h (2 Bft)
03.12.2023 16:41 22,4 °C -0,6 °C 46 % 90 % 1023,1 hPa 0,0 l/m² 5,0 km/h (1 Bft) S-SW 199 ° 0 min 0 W/m² -2,0 °C -0,6 °C 8,0 km/h (2 Bft)
03.12.2023 16:43 22,4 °C -0,6 °C 46 % 90 % 1023,2 hPa 0,0 l/m² 5,9 km/h (2 Bft) S-SW 200 ° 0 min 0 W/m² -2,0 °C -0,6 °C 8,0 km/h (2 Bft)
03.12.2023 16:44 22,4 °C -0,7 °C 46 % 90 % 1023,2 hPa 0,0 l/m² 4,4 km/h (1 Bft) S-SW 201 ° 0 min 0 W/m² -2,1 °C -0,7 °C 4,8 km/h (1 Bft)
03.12.2023 16:45 22,4 °C -0,7 °C 46 % 90 % 1023,2 hPa 0,0 l/m² 4,2 km/h (1 Bft) S-SW 211 ° 0 min 0 W/m² -2,1 °C -0,7 °C 8,0 km/h (2 Bft)
03.12.2023 16:46 22,4 °C -0,7 °C 46 % 90 % 1023,2 hPa 0,0 l/m² 5,7 km/h (2 Bft) SW 219 ° 0 min 0 W/m² -2,1 °C -0,7 °C 8,0 km/h (2 Bft)
03.12.2023 16:47 22,4 °C -0,7 °C 46 % 90 % 1023,1 hPa 0,0 l/m² 3,8 km/h (1 Bft) SW 219 ° 0 min 0 W/m² -2,1 °C -0,7 °C 4,8 km/h (1 Bft)
03.12.2023 16:48 22,4 °C -0,7 °C 46 % 90 % 1023,2 hPa 0,0 l/m² 2,1 km/h (1 Bft) SW 219 ° 0 min 0 W/m² -2,1 °C -0,7 °C 3,2 km/h (1 Bft)
03.12.2023 16:49 22,4 °C -0,8 °C 46 % 90 % 1023,2 hPa 0,0 l/m² 4,0 km/h (1 Bft) SW 219 ° 0 min 0 W/m² -2,2 °C -0,8 °C 4,8 km/h (1 Bft)
03.12.2023 16:51 22,4 °C -0,8 °C 46 % 91 % 1023,3 hPa 0,0 l/m² 3,1 km/h (1 Bft) SW 217 ° 0 min 0 W/m² -2,1 °C -0,8 °C 4,8 km/h (1 Bft)
03.12.2023 16:53 22,4 °C -0,8 °C 46 % 91 % 1023,3 hPa 0,0 l/m² 4,7 km/h (1 Bft) SW 228 ° 0 min 0 W/m² -2,1 °C -0,8 °C 6,4 km/h (2 Bft)
03.12.2023 16:54 22,4 °C -0,8 °C 46 % 90 % 1023,4 hPa 0,0 l/m² 3,3 km/h (1 Bft) SW 232 ° 0 min 0 W/m² -2,2 °C -0,8 °C 4,8 km/h (1 Bft)
03.12.2023 16:55 22,4 °C -0,8 °C 46 % 90 % 1023,3 hPa 0,0 l/m² 2,5 km/h (1 Bft) W-SW 244 ° 0 min 0 W/m² -2,2 °C -0,8 °C 6,4 km/h (2 Bft)
03.12.2023 16:56 22,4 °C -0,8 °C 46 % 90 % 1023,3 hPa 0,0 l/m² 0,2 km/h (0 Bft) W-SW 244 ° 0 min 0 W/m² -2,2 °C -0,8 °C 1,6 km/h (1 Bft)
03.12.2023 16:57 22,4 °C -0,8 °C 45 % 90 % 1023,4 hPa 0,0 l/m² 0,6 km/h (0 Bft) W-SW 244 ° 0 min 0 W/m² -2,2 °C -0,8 °C 1,6 km/h (1 Bft)
03.12.2023 16:58 22,4 °C -0,8 °C 45 % 91 % 1023,3 hPa 0,0 l/m² 0,7 km/h (0 Bft) W-SW 244 ° 0 min 0 W/m² -2,1 °C -0,8 °C 3,2 km/h (1 Bft)
03.12.2023 16:59 22,4 °C -0,8 °C 45 % 91 % 1023,3 hPa 0,0 l/m² 2,1 km/h (1 Bft) W-SW 243 ° 0 min 0 W/m² -2,1 °C -0,8 °C 3,2 km/h (1 Bft)
03.12.2023 17:01 22,4 °C -0,8 °C 45 % 91 % 1023,4 hPa 0,0 l/m² 0,8 km/h (0 Bft) W-SW 243 ° 0 min 0 W/m² -2,1 °C -0,8 °C 3,2 km/h (1 Bft)
03.12.2023 17:03 22,4 °C -0,8 °C 45 % 91 % 1023,4 hPa 0,0 l/m² 0,7 km/h (0 Bft) W-SW 243 ° 0 min 0 W/m² -2,1 °C -0,8 °C 1,6 km/h (1 Bft)
03.12.2023 17:04 22,4 °C -0,9 °C 45 % 91 % 1023,4 hPa 0,0 l/m² 0,0 km/h (0 Bft) W-SW 243 ° 0 min 0 W/m² -2,2 °C -0,9 °C 0,0 km/h (0 Bft)
03.12.2023 17:05 22,4 °C -0,9 °C 45 % 91 % 1023,4 hPa 0,0 l/m² 0,0 km/h (0 Bft) W-SW 243 ° 0 min 0 W/m² -2,2 °C -0,9 °C 0,0 km/h (0 Bft)
03.12.2023 17:06 22,3 °C -0,9 °C 45 % 91 % 1023,3 hPa 0,0 l/m² 0,9 km/h (0 Bft) W-SW 243 ° 0 min 0 W/m² -2,2 °C -0,9 °C 3,2 km/h (1 Bft)
03.12.2023 17:07 22,4 °C -0,9 °C 45 % 91 % 1023,3 hPa 0,0 l/m² 2,0 km/h (1 Bft) W-SW 242 ° 0 min 0 W/m² -2,2 °C -0,9 °C 3,2 km/h (1 Bft)
03.12.2023 17:08 22,4 °C -0,9 °C 45 % 91 % 1023,3 hPa 0,0 l/m² 0,2 km/h (0 Bft) W-SW 242 ° 0 min 0 W/m² -2,2 °C -0,9 °C 1,6 km/h (1 Bft)
03.12.2023 17:09 22,3 °C -0,9 °C 45 % 91 % 1023,4 hPa 0,0 l/m² 0,4 km/h (0 Bft) W-SW 242 ° 0 min 0 W/m² -2,2 °C -0,9 °C 1,6 km/h (1 Bft)
03.12.2023 17:11 22,3 °C -0,9 °C 45 % 91 % 1023,3 hPa 0,0 l/m² 2,2 km/h (1 Bft) SW 227 ° 0 min 0 W/m² -2,2 °C -0,9 °C 4,8 km/h (1 Bft)
03.12.2023 17:13 22,3 °C -0,9 °C 45 % 91 % 1023,4 hPa 0,0 l/m² 1,6 km/h (1 Bft) SW 227 ° 0 min 0 W/m² -2,2 °C -0,9 °C 3,2 km/h (1 Bft)
03.12.2023 17:14 22,3 °C -0,9 °C 45 % 91 % 1023,4 hPa 0,0 l/m² 2,4 km/h (1 Bft) S 169 ° 0 min 0 W/m² -2,2 °C -0,9 °C 3,2 km/h (1 Bft)
03.12.2023 17:15 22,3 °C -0,9 °C 45 % 91 % 1023,3 hPa 0,0 l/m² 6,2 km/h (2 Bft) S-SO 167 ° 0 min 0 W/m² -2,2 °C -0,9 °C 8,0 km/h (2 Bft)
03.12.2023 17:16 22,3 °C -1,0 °C 45 % 91 % 1023,4 hPa 0,0 l/m² 5,5 km/h (2 Bft) S 173 ° 0 min 0 W/m² -2,3 °C -1,0 °C 8,0 km/h (2 Bft)
03.12.2023 17:17 22,3 °C -1,0 °C 45 % 91 % 1023,4 hPa 0,0 l/m² 1,4 km/h (1 Bft) S 173 ° 0 min 0 W/m² -2,3 °C -1,0 °C 3,2 km/h (1 Bft)
03.12.2023 17:18 22,3 °C -1,0 °C 45 % 91 % 1023,4 hPa 0,0 l/m² 0,6 km/h (0 Bft) S 173 ° 0 min 0 W/m² -2,3 °C -1,0 °C 3,2 km/h (1 Bft)
03.12.2023 17:19 22,3 °C -1,0 °C 45 % 91 % 1023,3 hPa 0,0 l/m² 0,0 km/h (0 Bft) S 173 ° 0 min 0 W/m² -2,3 °C -1,0 °C 0,0 km/h (0 Bft)
03.12.2023 17:21 22,3 °C -1,0 °C 45 % 91 % 1023,4 hPa 0,0 l/m² 1,1 km/h (1 Bft) S-SW 192 ° 0 min 0 W/m² -2,3 °C -1,0 °C 6,4 km/h (2 Bft)
03.12.2023 17:23 22,3 °C -1,1 °C 45 % 91 % 1023,4 hPa 0,0 l/m² 4,8 km/h (1 Bft) S-SW 196 ° 0 min 0 W/m² -2,4 °C -1,1 °C 8,0 km/h (2 Bft)
03.12.2023 17:24 22,3 °C -1,1 °C 45 % 91 % 1023,3 hPa 0,0 l/m² 4,9 km/h (1 Bft) S 178 ° 0 min 0 W/m² -2,4 °C -1,1 °C 6,4 km/h (2 Bft)
03.12.2023 17:25 22,3 °C -1,1 °C 45 % 91 % 1023,4 hPa 0,0 l/m² 3,8 km/h (1 Bft) S-SW 202 ° 0 min 0 W/m² -2,4 °C -1,1 °C 4,8 km/h (1 Bft)
03.12.2023 17:26 22,3 °C -1,1 °C 45 % 91 % 1023,3 hPa 0,0 l/m² 2,9 km/h (1 Bft) S-SW 202 ° 0 min 0 W/m² -2,4 °C -1,1 °C 4,8 km/h (1 Bft)
03.12.2023 17:27 22,3 °C -1,1 °C 45 % 91 % 1023,3 hPa 0,0 l/m² 3,1 km/h (1 Bft) S-SW 202 ° 0 min 0 W/m² -2,4 °C -1,1 °C 4,8 km/h (1 Bft)
03.12.2023 17:28 22,3 °C -1,1 °C 45 % 91 % 1023,4 hPa 0,0 l/m² 3,8 km/h (1 Bft) SW 230 ° 0 min 0 W/m² -2,4 °C -1,1 °C 4,8 km/h (1 Bft)
03.12.2023 17:29 22,3 °C -1,1 °C 45 % 91 % 1023,3 hPa 0,0 l/m² 5,0 km/h (1 Bft) W-SW 248 ° 0 min 0 W/m² -2,4 °C -1,1 °C 6,4 km/h (2 Bft)
03.12.2023 17:31 22,3 °C -1,2 °C 45 % 91 % 1023,3 hPa 0,0 l/m² 4,2 km/h (1 Bft) SW 229 ° 0 min 0 W/m² -2,5 °C -1,2 °C 6,4 km/h (2 Bft)
03.12.2023 17:33 22,2 °C -1,2 °C 45 % 91 % 1023,4 hPa 0,0 l/m² 3,2 km/h (1 Bft) SW 229 ° 0 min 0 W/m² -2,5 °C -1,2 °C 4,8 km/h (1 Bft)
03.12.2023 17:34 22,3 °C -1,2 °C 45 % 91 % 1023,3 hPa 0,0 l/m² 3,6 km/h (1 Bft) SW 230 ° 0 min 0 W/m² -2,5 °C -1,2 °C 4,8 km/h (1 Bft)
03.12.2023 17:35 22,2 °C -1,2 °C 45 % 91 % 1023,4 hPa 0,0 l/m² 4,2 km/h (1 Bft) SW 228 ° 0 min 0 W/m² -2,5 °C -1,2 °C 6,4 km/h (2 Bft)
03.12.2023 17:36 22,2 °C -1,2 °C 45 % 91 % 1023,5 hPa 0,0 l/m² 4,9 km/h (1 Bft) SW 218 ° 0 min 0 W/m² -2,5 °C -1,2 °C 6,4 km/h (2 Bft)
03.12.2023 17:37 22,2 °C -1,2 °C 45 % 91 % 1023,4 hPa 0,0 l/m² 4,0 km/h (1 Bft) SW 217 ° 0 min 0 W/m² -2,5 °C -1,2 °C 4,8 km/h (1 Bft)
03.12.2023 17:38 22,2 °C -1,2 °C 45 % 91 % 1023,5 hPa 0,0 l/m² 5,9 km/h (2 Bft) S 174 ° 0 min 0 W/m² -2,5 °C -1,2 °C 8,0 km/h (2 Bft)
03.12.2023 17:39 22,2 °C -1,3 °C 45 % 91 % 1023,5 hPa 0,0 l/m² 6,1 km/h (2 Bft) S-SW 194 ° 0 min 0 W/m² -2,6 °C -1,3 °C 8,0 km/h (2 Bft)
03.12.2023 17:41 22,2 °C -1,3 °C 45 % 91 % 1023,4 hPa 0,0 l/m² 5,7 km/h (2 Bft) S-SW 205 ° 0 min 0 W/m² -2,6 °C -1,3 °C 8,0 km/h (2 Bft)
03.12.2023 17:43 22,2 °C -1,3 °C 45 % 91 % 1023,5 hPa 0,0 l/m² 4,3 km/h (1 Bft) S-SW 204 ° 0 min 0 W/m² -2,6 °C -1,3 °C 8,0 km/h (2 Bft)
03.12.2023 17:44 22,2 °C -1,3 °C 45 % 91 % 1023,4 hPa 0,0 l/m² 5,1 km/h (1 Bft) S-SW 206 ° 0 min 0 W/m² -2,6 °C -1,3 °C 6,4 km/h (2 Bft)
03.12.2023 17:45 22,2 °C -1,3 °C 45 % 91 % 1023,4 hPa 0,0 l/m² 4,7 km/h (1 Bft) S-SW 208 ° 0 min 0 W/m² -2,6 °C -1,3 °C 6,4 km/h (2 Bft)
03.12.2023 17:46 22,2 °C -1,4 °C 45 % 91 % 1023,4 hPa 0,0 l/m² 2,3 km/h (1 Bft) S-SW 208 ° 0 min 0 W/m² -2,7 °C -1,4 °C 4,8 km/h (1 Bft)
03.12.2023 17:47 22,2 °C -1,4 °C 45 % 91 % 1023,4 hPa 0,0 l/m² 2,9 km/h (1 Bft) S-SW 207 ° 0 min 0 W/m² -2,7 °C -1,4 °C 3,2 km/h (1 Bft)
03.12.2023 17:48 22,2 °C -1,4 °C 45 % 91 % 1023,5 hPa 0,0 l/m² 3,6 km/h (1 Bft) S-SW 208 ° 0 min 0 W/m² -2,7 °C -1,4 °C 4,8 km/h (1 Bft)
03.12.2023 17:49 22,2 °C -1,4 °C 45 % 90 % 1023,4 hPa 0,0 l/m² 3,0 km/h (1 Bft) S-SW 208 ° 0 min 0 W/m² -2,8 °C -1,4 °C 4,8 km/h (1 Bft)
03.12.2023 17:51 22,2 °C -1,4 °C 45 % 90 % 1023,4 hPa 0,0 l/m² 5,2 km/h (1 Bft) S-SW 211 ° 0 min 0 W/m² -2,8 °C -1,4 °C 8,0 km/h (2 Bft)
03.12.2023 17:53 22,2 °C -1,5 °C 45 % 90 % 1023,5 hPa 0,0 l/m² 5,6 km/h (2 Bft) S 190 ° 0 min 0 W/m² -2,9 °C -1,5 °C 6,4 km/h (2 Bft)
03.12.2023 17:54 22,2 °C -1,5 °C 45 % 90 % 1023,5 hPa 0,0 l/m² 4,3 km/h (1 Bft) S-SW 206 ° 0 min 0 W/m² -2,9 °C -1,5 °C 6,4 km/h (2 Bft)
03.12.2023 17:55 22,2 °C -1,6 °C 45 % 90 % 1023,4 hPa 0,0 l/m² 5,8 km/h (2 Bft) S-SW 205 ° 0 min 0 W/m² -3,0 °C -1,6 °C 8,0 km/h (2 Bft)
03.12.2023 17:56 22,2 °C -1,6 °C 45 % 90 % 1023,4 hPa 0,0 l/m² 6,5 km/h (2 Bft) S 189 ° 0 min 0 W/m² -3,0 °C -1,7 °C 9,7 km/h (2 Bft)
03.12.2023 17:57 22,2 °C -1,6 °C 45 % 91 % 1023,5 hPa 0,0 l/m² 4,2 km/h (1 Bft) S 189 ° 0 min 0 W/m² -2,9 °C -1,6 °C 4,8 km/h (1 Bft)
03.12.2023 17:58 22,2 °C -1,6 °C 45 % 90 % 1023,5 hPa 0,0 l/m² 4,3 km/h (1 Bft) SW 219 ° 0 min 0 W/m² -3,0 °C -1,6 °C 6,4 km/h (2 Bft)
03.12.2023 17:59 22,2 °C -1,6 °C 45 % 90 % 1023,5 hPa 0,0 l/m² 5,1 km/h (1 Bft) S-SW 198 ° 0 min 0 W/m² -3,0 °C -1,6 °C 8,0 km/h (2 Bft)
03.12.2023 18:01 22,2 °C -1,6 °C 46 % 90 % 1023,5 hPa 0,0 l/m² 4,2 km/h (1 Bft) S-SW 198 ° 0 min 0 W/m² -3,0 °C -1,6 °C 6,4 km/h (2 Bft)
03.12.2023 18:03 22,2 °C -1,7 °C 46 % 90 % 1023,4 hPa 0,0 l/m² 4,2 km/h (1 Bft) S-SW 208 ° 0 min 0 W/m² -3,1 °C -1,7 °C 8,0 km/h (2 Bft)
03.12.2023 18:04 22,2 °C -1,7 °C 46 % 90 % 1023,4 hPa 0,0 l/m² 5,0 km/h (1 Bft) SW 219 ° 0 min 0 W/m² -3,1 °C -1,7 °C 8,0 km/h (2 Bft)
03.12.2023 18:05 22,2 °C -1,7 °C 46 % 90 % 1023,4 hPa 0,0 l/m² 5,8 km/h (2 Bft) SW 219 ° 0 min 0 W/m² -3,1 °C -1,7 °C 6,4 km/h (2 Bft)
03.12.2023 18:06 22,2 °C -1,7 °C 46 % 90 % 1023,4 hPa 0,0 l/m² 5,1 km/h (1 Bft) SW 217 ° 0 min 0 W/m² -3,1 °C -1,7 °C 6,4 km/h (2 Bft)
03.12.2023 18:07 22,2 °C -1,7 °C 46 % 90 % 1023,4 hPa 0,0 l/m² 4,7 km/h (1 Bft) SW 217 ° 0 min 0 W/m² -3,1 °C -1,7 °C 6,4 km/h (2 Bft)
03.12.2023 18:08 22,2 °C -1,8 °C 46 % 90 % 1023,4 hPa 0,0 l/m² 6,3 km/h (2 Bft) SW 215 ° 0 min 0 W/m² -3,2 °C -1,8 °C 8,0 km/h (2 Bft)
03.12.2023 18:09 22,2 °C -1,8 °C 46 % 90 % 1023,4 hPa 0,0 l/m² 5,9 km/h (2 Bft) SW 221 ° 0 min 0 W/m² -3,2 °C -1,8 °C 8,0 km/h (2 Bft)
03.12.2023 18:11 22,2 °C -1,8 °C 46 % 90 % 1023,4 hPa 0,0 l/m² 5,6 km/h (2 Bft) S-SW 209 ° 0 min 0 W/m² -3,2 °C -1,8 °C 8,0 km/h (2 Bft)
03.12.2023 18:12 22,2 °C -1,8 °C 46 % 90 % 1023,4 hPa 0,0 l/m² 4,2 km/h (1 Bft) S-SW 209 ° 0 min 0 W/m² -3,2 °C -1,8 °C 4,8 km/h (1 Bft)
03.12.2023 18:13 22,2 °C -1,9 °C 46 % 90 % 1023,4 hPa 0,0 l/m² 6,2 km/h (2 Bft) S-SW 196 ° 0 min 0 W/m² -3,3 °C -1,9 °C 6,4 km/h (2 Bft)
03.12.2023 18:14 22,2 °C -1,9 °C 46 % 90 % 1023,4 hPa 0,0 l/m² 5,4 km/h (2 Bft) S-SW 203 ° 0 min 0 W/m² -3,3 °C -1,9 °C 8,0 km/h (2 Bft)
03.12.2023 18:15 22,2 °C -1,9 °C 46 % 90 % 1023,4 hPa 0,0 l/m² 5,0 km/h (1 Bft) S-SW 207 ° 0 min 0 W/m² -3,3 °C -1,9 °C 6,4 km/h (2 Bft)
03.12.2023 18:16 22,2 °C -1,9 °C 46 % 90 % 1023,5 hPa 0,0 l/m² 4,2 km/h (1 Bft) S-SW 207 ° 0 min 0 W/m² -3,3 °C -1,9 °C 4,8 km/h (1 Bft)
03.12.2023 18:17 22,2 °C -1,9 °C 46 % 90 % 1023,4 hPa 0,0 l/m² 4,4 km/h (1 Bft) S-SW 207 ° 0 min 0 W/m² -3,3 °C -1,9 °C 4,8 km/h (1 Bft)
03.12.2023 18:18 22,2 °C -2,0 °C 46 % 90 % 1023,3 hPa 0,0 l/m² 3,5 km/h (1 Bft) S-SW 206 ° 0 min 0 W/m² -3,4 °C -2,0 °C 4,8 km/h (1 Bft)
03.12.2023 18:19 22,2 °C -2,0 °C 46 % 90 % 1023,4 hPa 0,0 l/m² 1,9 km/h (1 Bft) S-SW 206 ° 0 min 0 W/m² -3,4 °C -2,0 °C 3,2 km/h (1 Bft)
03.12.2023 18:21 22,2 °C -2,1 °C 46 % 90 % 1023,4 hPa 0,0 l/m² 0,2 km/h (0 Bft) S-SW 206 ° 0 min 0 W/m² -3,5 °C -2,1 °C 1,6 km/h (1 Bft)
03.12.2023 18:23 22,2 °C -2,2 °C 46 % 90 % 1023,3 hPa 0,0 l/m² 0,0 km/h (0 Bft) S-SW 206 ° 0 min 0 W/m² -3,6 °C -2,2 °C 0,0 km/h (0 Bft)
03.12.2023 18:24 22,1 °C -2,2 °C 46 % 90 % 1023,4 hPa 0,0 l/m² 0,0 km/h (0 Bft) S-SW 206 ° 0 min 0 W/m² -3,6 °C -2,2 °C 0,0 km/h (0 Bft)
03.12.2023 18:25 22,2 °C -2,3 °C 46 % 90 % 1023,5 hPa 0,0 l/m² 0,0 km/h (0 Bft) S-SW 206 ° 0 min 0 W/m² -3,7 °C -2,3 °C 0,0 km/h (0 Bft)
03.12.2023 18:26 22,2 °C -2,3 °C 46 % 90 % 1023,4 hPa 0,0 l/m² 0,0 km/h (0 Bft) S-SW 206 ° 0 min 0 W/m² -3,7 °C -2,3 °C 0,0 km/h (0 Bft)
03.12.2023 18:27 22,2 °C -2,3 °C 46 % 90 % 1023,4 hPa 0,0 l/m² 0,0 km/h (0 Bft) S-SW 206 ° 0 min 0 W/m² -3,7 °C -2,3 °C 0,0 km/h (0 Bft)
03.12.2023 18:28 22,2 °C -2,3 °C 46 % 90 % 1023,5 hPa 0,0 l/m² 0,0 km/h (0 Bft) S-SW 206 ° 0 min 0 W/m² -3,7 °C -2,3 °C 0,0 km/h (0 Bft)
03.12.2023 18:29 22,2 °C -2,3 °C 46 % 90 % 1023,5 hPa 0,0 l/m² 0,0 km/h (0 Bft) S-SW 206 ° 0 min 0 W/m² -3,7 °C -2,3 °C 0,0 km/h (0 Bft)
03.12.2023 18:31 22,2 °C -2,4 °C 46 % 90 % 1023,4 hPa 0,0 l/m² 0,0 km/h (0 Bft) S-SW 206 ° 0 min 0 W/m² -3,8 °C -2,4 °C 1,6 km/h (1 Bft)
03.12.2023 18:33 22,2 °C -2,5 °C 46 % 90 % 1023,5 hPa 0,0 l/m² 0,1 km/h (0 Bft) S-SW 206 ° 0 min 0 W/m² -3,9 °C -2,5 °C 1,6 km/h (1 Bft)
03.12.2023 18:34 22,2 °C -2,5 °C 46 % 90 % 1023,5 hPa 0,0 l/m² 0,0 km/h (0 Bft) S-SW 206 ° 0 min 0 W/m² -3,9 °C -2,5 °C 0,0 km/h (0 Bft)
03.12.2023 18:35 22,2 °C -2,5 °C 46 % 90 % 1023,4 hPa 0,0 l/m² 0,0 km/h (0 Bft) S-SW 206 ° 0 min 0 W/m² -3,9 °C -2,5 °C 0,0 km/h (0 Bft)
03.12.2023 18:37 22,2 °C -2,6 °C 46 % 90 % 1023,5 hPa 0,0 l/m² 0,0 km/h (0 Bft) S-SW 206 ° 0 min 0 W/m² -4,0 °C -2,6 °C 0,0 km/h (0 Bft)
03.12.2023 18:38 22,2 °C -2,6 °C 46 % 90 % 1023,5 hPa 0,0 l/m² 0,0 km/h (0 Bft) S-SW 206 ° 0 min 0 W/m² -4,0 °C -2,6 °C 0,0 km/h (0 Bft)
03.12.2023 18:39 22,2 °C -2,6 °C 46 % 90 % 1023,5 hPa 0,0 l/m² 0,0 km/h (0 Bft) S-SW 206 ° 0 min 0 W/m² -4,0 °C -2,6 °C 0,0 km/h (0 Bft)
03.12.2023 18:41 22,2 °C -2,7 °C 46 % 90 % 1023,5 hPa 0,0 l/m² 0,0 km/h (0 Bft) S-SW 206 ° 0 min 0 W/m² -4,1 °C -2,7 °C 0,0 km/h (0 Bft)
03.12.2023 18:43 22,2 °C -2,7 °C 47 % 90 % 1023,5 hPa 0,0 l/m² 0,3 km/h (0 Bft) S-SW 206 ° 0 min 0 W/m² -4,1 °C -2,7 °C 1,6 km/h (1 Bft)
03.12.2023 18:46 22,2 °C -2,8 °C 47 % 90 % 1023,6 hPa 0,0 l/m² 0,0 km/h (0 Bft) S-SW 206 ° 0 min 0 W/m² -4,2 °C -2,8 °C 1,6 km/h (1 Bft)
03.12.2023 18:47 22,2 °C -2,8 °C 47 % 90 % 1023,5 hPa 0,0 l/m² 0,0 km/h (0 Bft) S-SW 206 ° 0 min 0 W/m² -4,2 °C -2,8 °C 0,0 km/h (0 Bft)
03.12.2023 18:48 22,2 °C -2,8 °C 47 % 90 % 1023,5 hPa 0,0 l/m² 0,0 km/h (0 Bft) S-SW 206 ° 0 min 0 W/m² -4,2 °C -2,8 °C 0,0 km/h (0 Bft)
03.12.2023 18:49 22,2 °C -2,8 °C 47 % 90 % 1023,5 hPa 0,0 l/m² 0,0 km/h (0 Bft) S-SW 206 ° 0 min 0 W/m² -4,2 °C -2,8 °C 0,0 km/h (0 Bft)
03.12.2023 18:51 22,2 °C -2,9 °C 47 % 90 % 1023,5 hPa 0,0 l/m² 0,0 km/h (0 Bft) S-SW 206 ° 0 min 0 W/m² -4,3 °C -2,9 °C 0,0 km/h (0 Bft)
03.12.2023 18:53 22,2 °C -2,9 °C 47 % 90 % 1023,5 hPa 0,0 l/m² 0,0 km/h (0 Bft) S-SW 206 ° 0 min 0 W/m² -4,3 °C -2,9 °C 0,0 km/h (0 Bft)
03.12.2023 18:54 22,2 °C -2,9 °C 47 % 90 % 1023,5 hPa 0,0 l/m² 0,0 km/h (0 Bft) S-SW 206 ° 0 min 0 W/m² -4,3 °C -2,9 °C 0,0 km/h (0 Bft)
03.12.2023 18:55 22,2 °C -2,9 °C 47 % 90 % 1023,4 hPa 0,0 l/m² 0,0 km/h (0 Bft) S-SW 206 ° 0 min 0 W/m² -4,3 °C -2,9 °C 0,0 km/h (0 Bft)
03.12.2023 18:56 22,2 °C -2,9 °C 47 % 90 % 1023,5 hPa 0,0 l/m² 0,0 km/h (0 Bft) S-SW 206 ° 0 min 0 W/m² -4,3 °C -2,9 °C 0,0 km/h (0 Bft)
03.12.2023 18:57 22,2 °C -3,0 °C 47 % 90 % 1023,4 hPa 0,0 l/m² 0,0 km/h (0 Bft) S-SW 206 ° 0 min 0 W/m² -4,4 °C -3,0 °C 0,0 km/h (0 Bft)
03.12.2023 18:58 22,2 °C -3,0 °C 47 % 90 % 1023,5 hPa 0,0 l/m² 0,0 km/h (0 Bft) S-SW 206 ° 0 min 0 W/m² -4,4 °C -3,0 °C 0,0 km/h (0 Bft)
03.12.2023 18:59 22,2 °C -3,0 °C 47 % 90 % 1023,5 hPa 0,0 l/m² 0,0 km/h (0 Bft) S-SW 206 ° 0 min 0 W/m² -4,4 °C -3,0 °C 0,0 km/h (0 Bft)
03.12.2023 19:01 22,2 °C -3,1 °C 47 % 90 % 1023,4 hPa 0,0 l/m² 0,0 km/h (0 Bft) S-SW 206 ° 0 min 0 W/m² -4,5 °C -3,1 °C 0,0 km/h (0 Bft)
03.12.2023 19:03 22,2 °C -3,1 °C 47 % 90 % 1023,5 hPa 0,0 l/m² 0,0 km/h (0 Bft) S-SW 206 ° 0 min 0 W/m² -4,5 °C -3,1 °C 0,0 km/h (0 Bft)
03.12.2023 19:04 22,2 °C -3,1 °C 47 % 90 % 1023,4 hPa 0,0 l/m² 0,0 km/h (0 Bft) S-SW 206 ° 0 min 0 W/m² -4,5 °C -3,1 °C 0,0 km/h (0 Bft)
03.12.2023 19:05 22,2 °C -3,2 °C 47 % 90 % 1023,4 hPa 0,0 l/m² 0,0 km/h (0 Bft) S-SW 206 ° 0 min 0 W/m² -4,6 °C -3,2 °C 0,0 km/h (0 Bft)
03.12.2023 19:06 22,2 °C -3,1 °C 47 % 90 % 1023,4 hPa 0,0 l/m² 0,0 km/h (0 Bft) S-SW 206 ° 0 min 0 W/m² -4,5 °C -3,1 °C 0,0 km/h (0 Bft)
03.12.2023 19:07 22,2 °C -3,2 °C 47 % 90 % 1023,4 hPa 0,0 l/m² 0,5 km/h (0 Bft) S-SW 206 ° 0 min 0 W/m² -4,6 °C -3,2 °C 1,6 km/h (1 Bft)
03.12.2023 19:08 22,2 °C -3,2 °C 47 % 90 % 1023,4 hPa 0,0 l/m² 0,8 km/h (0 Bft) S-SW 206 ° 0 min 0 W/m² -4,6 °C -3,2 °C 1,6 km/h (1 Bft)
03.12.2023 19:09 22,2 °C -3,2 °C 47 % 90 % 1023,4 hPa 0,0 l/m² 1,7 km/h (1 Bft) S-SW 206 ° 0 min 0 W/m² -4,6 °C -3,2 °C 3,2 km/h (1 Bft)
03.12.2023 19:11 22,2 °C -3,2 °C 47 % 90 % 1023,4 hPa 0,0 l/m² 0,4 km/h (0 Bft) S-SW 206 ° 0 min 0 W/m² -4,6 °C -3,2 °C 1,6 km/h (1 Bft)
03.12.2023 19:13 22,2 °C -3,2 °C 47 % 90 % 1023,5 hPa 0,0 l/m² 0,6 km/h (0 Bft) S-SW 206 ° 0 min 0 W/m² -4,6 °C -3,2 °C 1,6 km/h (1 Bft)
03.12.2023 19:14 22,2 °C -3,2 °C 47 % 90 % 1023,5 hPa 0,0 l/m² 0,3 km/h (0 Bft) S-SW 206 ° 0 min 0 W/m² -4,6 °C -3,2 °C 1,6 km/h (1 Bft)
03.12.2023 19:15 22,2 °C -3,3 °C 47 % 90 % 1023,4 hPa 0,0 l/m² 0,7 km/h (0 Bft) S-SW 206 ° 0 min 0 W/m² -4,7 °C -3,3 °C 1,6 km/h (1 Bft)
03.12.2023 19:16 22,2 °C -3,3 °C 47 % 90 % 1023,5 hPa 0,0 l/m² 0,9 km/h (0 Bft) S-SW 206 ° 0 min 0 W/m² -4,7 °C -3,3 °C 3,2 km/h (1 Bft)
03.12.2023 19:17 22,2 °C -3,3 °C 47 % 90 % 1023,4 hPa 0,0 l/m² 0,0 km/h (0 Bft) S-SW 206 ° 0 min 0 W/m² -4,7 °C -3,3 °C 0,0 km/h (0 Bft)
03.12.2023 19:18 22,2 °C -3,3 °C 47 % 90 % 1023,5 hPa 0,0 l/m² 0,0 km/h (0 Bft) S-SW 206 ° 0 min 0 W/m² -4,7 °C -3,3 °C 0,0 km/h (0 Bft)
03.12.2023 19:19 22,1 °C -3,4 °C 47 % 90 % 1023,5 hPa 0,0 l/m² 0,0 km/h (0 Bft) S-SW 206 ° 0 min 0 W/m² -4,8 °C -3,4 °C 0,0 km/h (0 Bft)
03.12.2023 19:21 22,2 °C -3,4 °C 47 % 90 % 1023,4 hPa 0,0 l/m² 0,0 km/h (0 Bft) S-SW 206 ° 0 min 0 W/m² -4,8 °C -3,4 °C 0,0 km/h (0 Bft)
03.12.2023 19:23 22,1 °C -3,5 °C 47 % 90 % 1023,3 hPa 0,0 l/m² 0,0 km/h (0 Bft) S-SW 206 ° 0 min 0 W/m² -4,9 °C -3,5 °C 0,0 km/h (0 Bft)
03.12.2023 19:24 22,2 °C -3,6 °C 47 % 90 % 1023,4 hPa 0,0 l/m² 0,0 km/h (0 Bft) S-SW 206 ° 0 min 0 W/m² -5,0 °C -3,6 °C 0,0 km/h (0 Bft)
03.12.2023 19:25 22,2 °C -3,6 °C 47 % 90 % 1023,4 hPa 0,0 l/m² 0,0 km/h (0 Bft) S-SW 206 ° 0 min 0 W/m² -5,0 °C -3,6 °C 0,0 km/h (0 Bft)
03.12.2023 19:26 22,2 °C -3,7 °C 47 % 90 % 1023,4 hPa 0,0 l/m² 0,0 km/h (0 Bft) S-SW 206 ° 0 min 0 W/m² -5,1 °C -3,7 °C 0,0 km/h (0 Bft)
03.12.2023 19:27 22,2 °C -3,7 °C 47 % 90 % 1023,3 hPa 0,0 l/m² 0,0 km/h (0 Bft) S-SW 206 ° 0 min 0 W/m² -5,1 °C -3,7 °C 0,0 km/h (0 Bft)
03.12.2023 19:28 22,1 °C -3,7 °C 47 % 90 % 1023,4 hPa 0,0 l/m² 0,0 km/h (0 Bft) S-SW 206 ° 0 min 0 W/m² -5,1 °C -3,7 °C 0,0 km/h (0 Bft)
03.12.2023 19:29 22,2 °C -3,8 °C 47 % 90 % 1023,3 hPa 0,0 l/m² 0,0 km/h (0 Bft) S-SW 206 ° 0 min 0 W/m² -5,2 °C -3,8 °C 0,0 km/h (0 Bft)
03.12.2023 19:31 22,1 °C -3,8 °C 47 % 90 % 1023,3 hPa 0,0 l/m² 0,0 km/h (0 Bft) S-SW 206 ° 0 min 0 W/m² -5,2 °C -3,8 °C 0,0 km/h (0 Bft)
03.12.2023 19:33 22,1 °C -3,9 °C 47 % 90 % 1023,3 hPa 0,0 l/m² 0,0 km/h (0 Bft) S-SW 206 ° 0 min 0 W/m² -5,3 °C -3,9 °C 1,6 km/h (1 Bft)
03.12.2023 19:34 22,2 °C -3,9 °C 47 % 90 % 1023,4 hPa 0,0 l/m² 0,0 km/h (0 Bft) S-SW 206 ° 0 min 0 W/m² -5,3 °C -3,9 °C 0,0 km/h (0 Bft)
03.12.2023 19:35 22,2 °C -3,9 °C 47 % 90 % 1023,4 hPa 0,0 l/m² 0,0 km/h (0 Bft) S-SW 206 ° 0 min 0 W/m² -5,3 °C -3,9 °C 0,0 km/h (0 Bft)
03.12.2023 19:36 22,2 °C -4,0 °C 47 % 90 % 1023,4 hPa 0,0 l/m² 0,0 km/h (0 Bft) S-SW 206 ° 0 min 0 W/m² -5,4 °C -4,0 °C 0,0 km/h (0 Bft)
03.12.2023 19:37 22,1 °C -4,0 °C 47 % 90 % 1023,3 hPa 0,0 l/m² 0,0 km/h (0 Bft) S-SW 206 ° 0 min 0 W/m² -5,4 °C -4,0 °C 0,0 km/h (0 Bft)
03.12.2023 19:38 22,2 °C -4,1 °C 47 % 90 % 1023,3 hPa 0,0 l/m² 0,0 km/h (0 Bft) S-SW 206 ° 0 min 0 W/m² -5,5 °C -4,1 °C 0,0 km/h (0 Bft)
03.12.2023 19:39 22,2 °C -4,1 °C 47 % 90 % 1023,4 hPa 0,0 l/m² 0,0 km/h (0 Bft) S-SW 206 ° 0 min 0 W/m² -5,5 °C -4,1 °C 0,0 km/h (0 Bft)
03.12.2023 19:41 22,2 °C -4,2 °C 47 % 90 % 1023,4 hPa 0,0 l/m² 0,0 km/h (0 Bft) S-SW 206 ° 0 min 0 W/m² -5,6 °C -4,2 °C 0,0 km/h (0 Bft)
03.12.2023 19:43 22,1 °C -4,2 °C 47 % 89 % 1023,4 hPa 0,0 l/m² 1,7 km/h (1 Bft) S-SW 206 ° 0 min 0 W/m² -5,7 °C -4,2 °C 3,2 km/h (1 Bft)
03.12.2023 19:44 22,2 °C -4,3 °C 47 % 89 % 1023,4 hPa 0,0 l/m² 0,9 km/h (0 Bft) S-SW 206 ° 0 min 0 W/m² -5,8 °C -4,3 °C 3,2 km/h (1 Bft)
03.12.2023 19:45 22,1 °C -4,3 °C 47 % 89 % 1023,4 hPa 0,0 l/m² 0,3 km/h (0 Bft) S-SW 206 ° 0 min 0 W/m² -5,8 °C -4,3 °C 1,6 km/h (1 Bft)
03.12.2023 19:46 22,1 °C -4,4 °C 47 % 89 % 1023,4 hPa 0,0 l/m² 0,0 km/h (0 Bft) S-SW 206 ° 0 min 0 W/m² -5,9 °C -4,4 °C 0,0 km/h (0 Bft)
03.12.2023 19:47 22,1 °C -4,4 °C 47 % 89 % 1023,5 hPa 0,0 l/m² 0,0 km/h (0 Bft) S-SW 206 ° 0 min 0 W/m² -5,9 °C -4,4 °C 0,0 km/h (0 Bft)
03.12.2023 19:48 22,2 °C -4,4 °C 47 % 90 % 1023,4 hPa 0,0 l/m² 0,2 km/h (0 Bft) S-SW 206 ° 0 min 0 W/m² -5,8 °C -4,4 °C 1,6 km/h (1 Bft)
03.12.2023 19:49 22,1 °C -4,4 °C 47 % 90 % 1023,4 hPa 0,0 l/m² 0,3 km/h (0 Bft) S-SW 206 ° 0 min 0 W/m² -5,8 °C -4,4 °C 1,6 km/h (1 Bft)
03.12.2023 19:51 22,2 °C -4,5 °C 47 % 90 % 1023,5 hPa 0,0 l/m² 0,0 km/h (0 Bft) S-SW 206 ° 0 min 0 W/m² -5,9 °C -4,5 °C 0,0 km/h (0 Bft)
03.12.2023 19:53 22,2 °C -4,6 °C 47 % 89 % 1023,4 hPa 0,0 l/m² 0,4 km/h (0 Bft) S-SW 206 ° 0 min 0 W/m² -6,1 °C -4,6 °C 1,6 km/h (1 Bft)
03.12.2023 19:54 22,2 °C -4,6 °C 47 % 89 % 1023,4 hPa 0,0 l/m² 1,5 km/h (1 Bft) S-SW 206 ° 0 min 0 W/m² -6,1 °C -4,6 °C 3,2 km/h (1 Bft)
03.12.2023 19:55 22,1 °C -4,6 °C 47 % 90 % 1023,4 hPa 0,0 l/m² 2,1 km/h (1 Bft) S-SO 161 ° 0 min 0 W/m² -6,0 °C -4,6 °C 3,2 km/h (1 Bft)
03.12.2023 19:56 22,1 °C -4,6 °C 47 % 90 % 1023,4 hPa 0,0 l/m² 1,8 km/h (1 Bft) S-SO 161 ° 0 min 0 W/m² -6,0 °C -4,6 °C 3,2 km/h (1 Bft)
03.12.2023 19:57 22,1 °C -4,6 °C 47 % 89 % 1023,4 hPa 0,0 l/m² 1,5 km/h (1 Bft) S-SO 161 ° 0 min 0 W/m² -6,1 °C -4,6 °C 1,6 km/h (1 Bft)
03.12.2023 19:58 22,1 °C -4,7 °C 47 % 90 % 1023,4 hPa 0,0 l/m² 0,2 km/h (0 Bft) S-SO 160 ° 0 min 0 W/m² -6,1 °C -4,7 °C 1,6 km/h (1 Bft)
03.12.2023 19:59 22,1 °C -4,7 °C 47 % 90 % 1023,4 hPa 0,0 l/m² 0,2 km/h (0 Bft) S-SO 160 ° 0 min 0 W/m² -6,1 °C -4,7 °C 1,6 km/h (1 Bft)
03.12.2023 20:01 22,1 °C -4,7 °C 47 % 90 % 1023,4 hPa 0,0 l/m² 2,1 km/h (1 Bft) S-SO 160 ° 0 min 0 W/m² -6,1 °C -4,7 °C 6,4 km/h (2 Bft)
03.12.2023 20:03 22,2 °C -4,8 °C 47 % 89 % 1023,4 hPa 0,0 l/m² 3,0 km/h (1 Bft) S-SO 159 ° 0 min 0 W/m² -6,3 °C -4,8 °C 6,4 km/h (2 Bft)
03.12.2023 20:04 22,2 °C -4,8 °C 47 % 89 % 1023,4 hPa 0,0 l/m² 1,0 km/h (0 Bft) S-SO 159 ° 0 min 0 W/m² -6,3 °C -4,8 °C 3,2 km/h (1 Bft)
03.12.2023 20:05 22,1 °C -4,8 °C 47 % 89 % 1023,4 hPa 0,0 l/m² 0,0 km/h (0 Bft) S-SO 159 ° 0 min 0 W/m² -6,3 °C -4,8 °C 0,0 km/h (0 Bft)
03.12.2023 20:06 22,1 °C -4,9 °C 47 % 89 % 1023,4 hPa 0,0 l/m² 0,0 km/h (0 Bft) S-SO 159 ° 0 min 0 W/m² -6,4 °C -4,9 °C 0,0 km/h (0 Bft)
03.12.2023 20:07 22,1 °C -4,9 °C 47 % 89 % 1023,5 hPa 0,0 l/m² 0,0 km/h (0 Bft) S-SO 159 ° 0 min 0 W/m² -6,4 °C -4,9 °C 0,0 km/h (0 Bft)
03.12.2023 20:08 22,2 °C -4,9 °C 47 % 90 % 1023,4 hPa 0,0 l/m² 0,0 km/h (0 Bft) S-SO 159 ° 0 min 0 W/m² -6,3 °C -4,9 °C 0,0 km/h (0 Bft)
03.12.2023 20:09 22,1 °C -4,9 °C 47 % 90 % 1023,4 hPa 0,0 l/m² 0,0 km/h (0 Bft) S-SO 159 ° 0 min 0 W/m² -6,3 °C -4,9 °C 0,0 km/h (0 Bft)
03.12.2023 20:11 22,1 °C -5,0 °C 47 % 90 % 1023,4 hPa 0,0 l/m² 0,0 km/h (0 Bft) S-SO 159 ° 0 min 0 W/m² -6,4 °C -5,0 °C 0,0 km/h (0 Bft)
03.12.2023 20:13 22,1 °C -5,0 °C 47 % 90 % 1023,4 hPa 0,0 l/m² 0,0 km/h (0 Bft) S-SO 159 ° 0 min 0 W/m² -6,4 °C -5,0 °C 0,0 km/h (0 Bft)
03.12.2023 20:14 22,1 °C -5,1 °C 47 % 90 % 1023,4 hPa 0,0 l/m² 0,2 km/h (0 Bft) S-SO 159 ° 0 min 0 W/m² -6,5 °C -5,1 °C 1,6 km/h (1 Bft)
03.12.2023 20:15 22,1 °C -5,1 °C 47 % 90 % 1023,3 hPa 0,0 l/m² 0,1 km/h (0 Bft) S-SO 159 ° 0 min 0 W/m² -6,5 °C -5,1 °C 1,6 km/h (1 Bft)
03.12.2023 20:17 22,1 °C -5,2 °C 47 % 90 % 1023,3 hPa 0,0 l/m² 0,0 km/h (0 Bft) S-SO 159 ° 0 min 0 W/m² -6,6 °C -5,2 °C 0,0 km/h (0 Bft)
03.12.2023 20:18 22,1 °C -5,2 °C 47 % 89 % 1023,3 hPa 0,0 l/m² 0,0 km/h (0 Bft) S-SO 159 ° 0 min 0 W/m² -6,7 °C -5,2 °C 0,0 km/h (0 Bft)
03.12.2023 20:19 22,1 °C -5,2 °C 47 % 90 % 1023,3 hPa 0,0 l/m² 0,0 km/h (0 Bft) S-SO 159 ° 0 min 0 W/m² -6,6 °C -5,2 °C 0,0 km/h (0 Bft)
03.12.2023 20:21 22,1 °C -5,2 °C 47 % 90 % 1023,4 hPa 0,0 l/m² 0,0 km/h (0 Bft) S-SO 159 ° 0 min 0 W/m² -6,6 °C -5,2 °C 0,0 km/h (0 Bft)
03.12.2023 20:23 22,2 °C -5,3 °C 47 % 89 % 1023,3 hPa 0,0 l/m² 0,0 km/h (0 Bft) S-SO 159 ° 0 min 0 W/m² -6,8 °C -5,3 °C 0,0 km/h (0 Bft)
03.12.2023 20:24 22,1 °C -5,3 °C 48 % 89 % 1023,4 hPa 0,0 l/m² 0,0 km/h (0 Bft) S-SO 159 ° 0 min 0 W/m² -6,8 °C -5,3 °C 0,0 km/h (0 Bft)
03.12.2023 20:25 22,1 °C -5,3 °C 48 % 89 % 1023,3 hPa 0,0 l/m² 0,0 km/h (0 Bft) S-SO 159 ° 0 min 0 W/m² -6,8 °C -5,3 °C 0,0 km/h (0 Bft)
03.12.2023 20:26 22,2 °C -5,3 °C 48 % 90 % 1023,4 hPa 0,0 l/m² 0,0 km/h (0 Bft) S-SO 159 ° 0 min 0 W/m² -6,7 °C -5,3 °C 0,0 km/h (0 Bft)
03.12.2023 20:27 22,2 °C -5,4 °C 48 % 90 % 1023,3 hPa 0,0 l/m² 0,0 km/h (0 Bft) S-SO 159 ° 0 min 0 W/m² -6,8 °C -5,4 °C 0,0 km/h (0 Bft)
03.12.2023 20:28 22,1 °C -5,4 °C 48 % 90 % 1023,3 hPa 0,0 l/m² 0,2 km/h (0 Bft) S-SO 159 ° 0 min 0 W/m² -6,8 °C -5,4 °C 1,6 km/h (1 Bft)
03.12.2023 20:29 22,2 °C -5,4 °C 48 % 90 % 1023,4 hPa 0,0 l/m² 1,0 km/h (0 Bft) S-SO 159 ° 0 min 0 W/m² -6,8 °C -5,4 °C 3,2 km/h (1 Bft)
03.12.2023 20:31 22,1 °C -5,5 °C 48 % 90 % 1023,3 hPa 0,0 l/m² 1,3 km/h (1 Bft) S-SO 159 ° 0 min 0 W/m² -6,9 °C -5,5 °C 3,2 km/h (1 Bft)
03.12.2023 20:33 22,1 °C -5,6 °C 48 % 89 % 1023,3 hPa 0,0 l/m² 1,0 km/h (0 Bft) S-SO 159 ° 0 min 0 W/m² -7,1 °C -5,6 °C 3,2 km/h (1 Bft)
03.12.2023 20:34 22,2 °C -5,6 °C 48 % 89 % 1023,3 hPa 0,0 l/m² 1,5 km/h (1 Bft) S-SO 159 ° 0 min 0 W/m² -7,1 °C -5,6 °C 3,2 km/h (1 Bft)
03.12.2023 20:35 22,2 °C -5,7 °C 48 % 89 % 1023,3 hPa 0,0 l/m² 0,8 km/h (0 Bft) S-SO 159 ° 0 min 0 W/m² -7,2 °C -5,7 °C 1,6 km/h (1 Bft)
03.12.2023 20:36 22,2 °C -5,7 °C 48 % 89 % 1023,3 hPa 0,0 l/m² 1,4 km/h (1 Bft) S-SO 159 ° 0 min 0 W/m² -7,2 °C -5,7 °C 1,6 km/h (1 Bft)
03.12.2023 20:37 22,2 °C -5,8 °C 48 % 89 % 1023,3 hPa 0,0 l/m² 0,6 km/h (0 Bft) S-SO 159 ° 0 min 0 W/m² -7,3 °C -5,8 °C 1,6 km/h (1 Bft)
03.12.2023 20:38 22,2 °C -5,8 °C 48 % 89 % 1023,3 hPa 0,0 l/m² 0,0 km/h (0 Bft) S-SO 159 ° 0 min 0 W/m² -7,3 °C -5,8 °C 0,0 km/h (0 Bft)
03.12.2023 20:39 22,2 °C -5,8 °C 48 % 89 % 1023,3 hPa 0,0 l/m² 0,0 km/h (0 Bft) S-SO 159 ° 0 min 0 W/m² -7,3 °C -5,8 °C 0,0 km/h (0 Bft)
03.12.2023 20:41 22,2 °C -5,9 °C 48 % 89 % 1023,2 hPa 0,0 l/m² 0,0 km/h (0 Bft) S-SO 159 ° 0 min 0 W/m² -7,4 °C -5,9 °C 0,0 km/h (0 Bft)
03.12.2023 20:43 22,2 °C -5,9 °C 48 % 89 % 1023,3 hPa 0,0 l/m² 0,0 km/h (0 Bft) S-SO 159 ° 0 min 0 W/m² -7,4 °C -5,9 °C 0,0 km/h (0 Bft)
03.12.2023 20:44 22,2 °C -6,0 °C 48 % 89 % 1023,2 hPa 0,0 l/m² 0,0 km/h (0 Bft) S-SO 159 ° 0 min 0 W/m² -7,5 °C -6,0 °C 0,0 km/h (0 Bft)
03.12.2023 20:45 22,2 °C -6,1 °C 48 % 89 % 1023,2 hPa 0,0 l/m² 0,0 km/h (0 Bft) S-SO 159 ° 0 min 0 W/m² -7,6 °C -6,1 °C 0,0 km/h (0 Bft)
03.12.2023 20:46 22,2 °C -6,1 °C 48 % 89 % 1023,2 hPa 0,0 l/m² 0,0 km/h (0 Bft) S-SO 159 ° 0 min 0 W/m² -7,6 °C -6,1 °C 0,0 km/h (0 Bft)
03.12.2023 20:47 22,2 °C -6,2 °C 48 % 89 % 1023,3 hPa 0,0 l/m² 1,4 km/h (1 Bft) S-SO 159 ° 0 min 0 W/m² -7,7 °C -6,2 °C 3,2 km/h (1 Bft)
03.12.2023 20:48 22,2 °C -6,2 °C 48 % 89 % 1023,3 hPa 0,0 l/m² 1,0 km/h (0 Bft) S-SO 159 ° 0 min 0 W/m² -7,7 °C -6,2 °C 3,2 km/h (1 Bft)
03.12.2023 20:49 22,2 °C -6,2 °C 48 % 89 % 1023,2 hPa 0,0 l/m² 1,8 km/h (1 Bft) S-SO 159 ° 0 min 0 W/m² -7,7 °C -6,2 °C 3,2 km/h (1 Bft)
03.12.2023 20:51 22,2 °C -6,3 °C 48 % 89 % 1023,1 hPa 0,0 l/m² 2,4 km/h (1 Bft) O-SO 118 ° 0 min 0 W/m² -7,8 °C -6,3 °C 3,2 km/h (1 Bft)
03.12.2023 20:53 22,2 °C -6,3 °C 48 % 89 % 1023,2 hPa 0,0 l/m² 1,3 km/h (1 Bft) O-SO 115 ° 0 min 0 W/m² -7,8 °C -6,3 °C 3,2 km/h (1 Bft)
03.12.2023 20:54 22,2 °C -6,3 °C 48 % 89 % 1023,2 hPa 0,0 l/m² 0,2 km/h (0 Bft) O-SO 115 ° 0 min 0 W/m² -7,8 °C -6,3 °C 1,6 km/h (1 Bft)
03.12.2023 20:55 22,2 °C -6,3 °C 48 % 89 % 1023,2 hPa 0,0 l/m² 0,6 km/h (0 Bft) O-SO 114 ° 0 min 0 W/m² -7,8 °C -6,3 °C 3,2 km/h (1 Bft)
03.12.2023 20:56 22,2 °C -6,4 °C 48 % 90 % 1023,2 hPa 0,0 l/m² 1,5 km/h (1 Bft) O-SO 114 ° 0 min 0 W/m² -7,8 °C -6,4 °C 3,2 km/h (1 Bft)
03.12.2023 20:57 22,2 °C -6,4 °C 48 % 90 % 1023,2 hPa 0,0 l/m² 1,4 km/h (1 Bft) O-SO 114 ° 0 min 0 W/m² -7,8 °C -6,4 °C 1,6 km/h (1 Bft)
03.12.2023 20:58 22,2 °C -6,4 °C 48 % 90 % 1023,2 hPa 0,0 l/m² 1,1 km/h (1 Bft) O-SO 114 ° 0 min 0 W/m² -7,8 °C -6,4 °C 1,6 km/h (1 Bft)
03.12.2023 20:59 22,2 °C -6,4 °C 48 % 90 % 1023,2 hPa 0,0 l/m² 0,4 km/h (0 Bft) O-SO 114 ° 0 min 0 W/m² -7,8 °C -6,4 °C 1,6 km/h (1 Bft)
03.12.2023 21:01 22,2 °C -6,4 °C 49 % 90 % 1023,2 hPa 0,0 l/m² 0,3 km/h (0 Bft) O-SO 114 ° 0 min 0 W/m² -7,8 °C -6,4 °C 1,6 km/h (1 Bft)
03.12.2023 21:03 22,2 °C -6,4 °C 49 % 90 % 1023,3 hPa 0,0 l/m² 0,3 km/h (0 Bft) O-SO 114 ° 0 min 0 W/m² -7,8 °C -6,4 °C 1,6 km/h (1 Bft)
03.12.2023 21:04 22,2 °C -6,4 °C 49 % 90 % 1023,2 hPa 0,0 l/m² 0,0 km/h (0 Bft) O-SO 114 ° 0 min 0 W/m² -7,8 °C -6,4 °C 0,0 km/h (0 Bft)
03.12.2023 21:05 22,2 °C -6,5 °C 49 % 90 % 1023,2 hPa 0,0 l/m² 0,0 km/h (0 Bft) O-SO 114 ° 0 min 0 W/m² -7,9 °C -6,5 °C 0,0 km/h (0 Bft)
03.12.2023 21:06 22,2 °C -6,5 °C 49 % 90 % 1023,3 hPa 0,0 l/m² 0,0 km/h (0 Bft) O-SO 114 ° 0 min 0 W/m² -7,9 °C -6,5 °C 0,0 km/h (0 Bft)
03.12.2023 21:07 22,3 °C -6,5 °C 49 % 90 % 1023,2 hPa 0,0 l/m² 0,0 km/h (0 Bft) O-SO 114 ° 0 min 0 W/m² -7,9 °C -6,5 °C 0,0 km/h (0 Bft)
03.12.2023 21:08 22,2 °C -6,5 °C 49 % 90 % 1023,2 hPa 0,0 l/m² 0,0 km/h (0 Bft) O-SO 114 ° 0 min 0 W/m² -7,9 °C -6,5 °C 0,0 km/h (0 Bft)
03.12.2023 21:09 22,2 °C -6,6 °C 49 % 90 % 1023,2 hPa 0,0 l/m² 0,0 km/h (0 Bft) O-SO 114 ° 0 min 0 W/m² -8,0 °C -6,6 °C 0,0 km/h (0 Bft)
03.12.2023 21:11 22,3 °C -6,6 °C 48 % 90 % 1023,1 hPa 0,0 l/m² 0,7 km/h (0 Bft) O-SO 114 ° 0 min 0 W/m² -8,0 °C -6,6 °C 3,2 km/h (1 Bft)
03.12.2023 21:13 22,3 °C -6,6 °C 47 % 90 % 1023,2 hPa 0,0 l/m² 0,2 km/h (0 Bft) O-SO 114 ° 0 min 0 W/m² -8,0 °C -6,6 °C 1,6 km/h (1 Bft)
03.12.2023 21:14 22,3 °C -6,6 °C 47 % 90 % 1023,2 hPa 0,0 l/m² 0,0 km/h (0 Bft) O-SO 114 ° 0 min 0 W/m² -8,0 °C -6,6 °C 0,0 km/h (0 Bft)
03.12.2023 21:15 22,2 °C -6,6 °C 47 % 90 % 1023,2 hPa 0,0 l/m² 0,0 km/h (0 Bft) O-SO 114 ° 0 min 0 W/m² -8,0 °C -6,6 °C 0,0 km/h (0 Bft)
03.12.2023 21:16 22,2 °C -6,6 °C 47 % 90 % 1023,2 hPa 0,0 l/m² 0,0 km/h (0 Bft) O-SO 114 ° 0 min 0 W/m² -8,0 °C -6,6 °C 0,0 km/h (0 Bft)
03.12.2023 21:17 22,3 °C -6,6 °C 47 % 90 % 1023,3 hPa 0,0 l/m² 0,0 km/h (0 Bft) O-SO 114 ° 0 min 0 W/m² -8,0 °C -6,6 °C 0,0 km/h (0 Bft)
03.12.2023 21:18 22,3 °C -6,7 °C 47 % 90 % 1023,2 hPa 0,0 l/m² 0,0 km/h (0 Bft) O-SO 114 ° 0 min 0 W/m² -8,1 °C -6,7 °C 0,0 km/h (0 Bft)
03.12.2023 21:19 22,2 °C -6,7 °C 47 % 90 % 1023,2 hPa 0,0 l/m² 0,0 km/h (0 Bft) O-SO 114 ° 0 min 0 W/m² -8,1 °C -6,7 °C 0,0 km/h (0 Bft)
03.12.2023 21:21 22,2 °C -6,8 °C 47 % 90 % 1023,2 hPa 0,0 l/m² 0,0 km/h (0 Bft) O-SO 114 ° 0 min 0 W/m² -8,2 °C -6,8 °C 0,0 km/h (0 Bft)
03.12.2023 21:23 22,2 °C -6,8 °C 47 % 90 % 1023,1 hPa 0,0 l/m² 0,0 km/h (0 Bft) O-SO 114 ° 0 min 0 W/m² -8,2 °C -6,8 °C 0,0 km/h (0 Bft)
03.12.2023 21:24 22,2 °C -6,8 °C 47 % 90 % 1023,1 hPa 0,0 l/m² 0,0 km/h (0 Bft) O-SO 114 ° 0 min 0 W/m² -8,2 °C -6,8 °C 0,0 km/h (0 Bft)
03.12.2023 21:25 22,2 °C -6,9 °C 47 % 90 % 1023,1 hPa 0,0 l/m² 0,2 km/h (0 Bft) O-SO 114 ° 0 min 0 W/m² -8,3 °C -6,9 °C 1,6 km/h (1 Bft)
03.12.2023 21:26 22,2 °C -6,9 °C 47 % 89 % 1023,1 hPa 0,0 l/m² 0,4 km/h (0 Bft) O-SO 114 ° 0 min 0 W/m² -8,4 °C -6,9 °C 1,6 km/h (1 Bft)
03.12.2023 21:27 22,2 °C -7,1 °C 47 % 89 % 1023,1 hPa 0,0 l/m² 0,1 km/h (0 Bft) O-SO 114 ° 0 min 0 W/m² -8,6 °C -7,1 °C 1,6 km/h (1 Bft)
03.12.2023 21:28 22,2 °C -7,1 °C 47 % 89 % 1023,1 hPa 0,0 l/m² 0,0 km/h (0 Bft) O-SO 114 ° 0 min 0 W/m² -8,6 °C -7,1 °C 0,0 km/h (0 Bft)
03.12.2023 21:29 22,2 °C -7,1 °C 47 % 89 % 1023,1 hPa 0,0 l/m² 0,0 km/h (0 Bft) O-SO 114 ° 0 min 0 W/m² -8,6 °C -7,1 °C 0,0 km/h (0 Bft)
03.12.2023 21:31 22,2 °C -7,1 °C 47 % 90 % 1023,0 hPa 0,0 l/m² 0,0 km/h (0 Bft) O-SO 114 ° 0 min 0 W/m² -8,5 °C -7,1 °C 0,0 km/h (0 Bft)
03.12.2023 21:33 22,2 °C -7,2 °C 47 % 90 % 1023,0 hPa 0,0 l/m² 0,2 km/h (0 Bft) O-SO 114 ° 0 min 0 W/m² -8,6 °C -7,2 °C 1,6 km/h (1 Bft)
03.12.2023 21:34 22,2 °C -7,2 °C 47 % 90 % 1023,1 hPa 0,0 l/m² 2,0 km/h (1 Bft) O-SO 114 ° 0 min 0 W/m² -8,6 °C -7,2 °C 3,2 km/h (1 Bft)
03.12.2023 21:35 22,2 °C -7,2 °C 47 % 89 % 1023,1 hPa 0,0 l/m² 0,6 km/h (0 Bft) O-SO 111 ° 0 min 0 W/m² -8,7 °C -7,2 °C 3,2 km/h (1 Bft)
03.12.2023 21:36 22,2 °C -7,3 °C 47 % 89 % 1023,0 hPa 0,0 l/m² 0,2 km/h (0 Bft) O-SO 111 ° 0 min 0 W/m² -8,8 °C -7,3 °C 1,6 km/h (1 Bft)
03.12.2023 21:37 22,2 °C -7,3 °C 47 % 89 % 1023,1 hPa 0,0 l/m² 0,1 km/h (0 Bft) O-SO 111 ° 0 min 0 W/m² -8,8 °C -7,3 °C 1,6 km/h (1 Bft)
03.12.2023 21:38 22,2 °C -7,3 °C 47 % 90 % 1023,0 hPa 0,0 l/m² 0,0 km/h (0 Bft) O-SO 111 ° 0 min 0 W/m² -8,7 °C -7,3 °C 0,0 km/h (0 Bft)
03.12.2023 21:39 22,3 °C -7,3 °C 47 % 90 % 1023,0 hPa 0,0 l/m² 0,1 km/h (0 Bft) O-SO 111 ° 0 min 0 W/m² -8,7 °C -7,3 °C 1,6 km/h (1 Bft)
03.12.2023 21:41 22,2 °C -7,4 °C 47 % 89 % 1023,0 hPa 0,0 l/m² 1,2 km/h (1 Bft) O-SO 111 ° 0 min 0 W/m² -8,9 °C -7,4 °C 3,2 km/h (1 Bft)
03.12.2023 21:43 22,2 °C -7,4 °C 47 % 90 % 1022,9 hPa 0,0 l/m² 0,1 km/h (0 Bft) O-SO 111 ° 0 min 0 W/m² -8,8 °C -7,4 °C 1,6 km/h (1 Bft)
03.12.2023 21:46 22,2 °C -7,4 °C 48 % 89 % 1022,9 hPa 0,0 l/m² 0,0 km/h (0 Bft) O-SO 111 ° 0 min 0 W/m² -8,9 °C -7,4 °C 1,6 km/h (1 Bft)
03.12.2023 21:47 22,2 °C -7,5 °C 48 % 89 % 1023,0 hPa 0,0 l/m² 1,9 km/h (1 Bft) O-SO 111 ° 0 min 0 W/m² -9,0 °C -7,5 °C 3,2 km/h (1 Bft)
03.12.2023 21:48 22,2 °C -7,5 °C 48 % 89 % 1022,9 hPa 0,0 l/m² 0,9 km/h (0 Bft) O-SO 111 ° 0 min 0 W/m² -9,0 °C -7,5 °C 1,6 km/h (1 Bft)
03.12.2023 21:49 22,2 °C -7,6 °C 48 % 89 % 1023,0 hPa 0,0 l/m² 2,8 km/h (1 Bft) O-SO 111 ° 0 min 0 W/m² -9,1 °C -7,6 °C 3,2 km/h (1 Bft)
03.12.2023 21:51 22,2 °C -7,6 °C 48 % 89 % 1023,0 hPa 0,0 l/m² 1,8 km/h (1 Bft) O-SO 111 ° 0 min 0 W/m² -9,1 °C -7,6 °C 3,2 km/h (1 Bft)
03.12.2023 21:53 22,2 °C -7,6 °C 48 % 89 % 1023,0 hPa 0,0 l/m² 0,2 km/h (0 Bft) O-SO 111 ° 0 min 0 W/m² -9,1 °C -7,6 °C 1,6 km/h (1 Bft)
03.12.2023 21:54 22,3 °C -7,7 °C 48 % 90 % 1023,0 hPa 0,0 l/m² 0,0 km/h (0 Bft) O-SO 111 ° 0 min 0 W/m² -9,0 °C -7,7 °C 0,0 km/h (0 Bft)
03.12.2023 21:55 22,2 °C -7,7 °C 48 % 90 % 1022,9 hPa 0,0 l/m² 0,0 km/h (0 Bft) O-SO 111 ° 0 min 0 W/m² -9,0 °C -7,7 °C 0,0 km/h (0 Bft)
03.12.2023 21:56 22,2 °C -7,7 °C 48 % 90 % 1022,9 hPa 0,0 l/m² 0,2 km/h (0 Bft) O-SO 111 ° 0 min 0 W/m² -9,0 °C -7,7 °C 1,6 km/h (1 Bft)
03.12.2023 21:57 22,2 °C -7,7 °C 48 % 90 % 1022,8 hPa 0,0 l/m² 1,0 km/h (0 Bft) O-SO 111 ° 0 min 0 W/m² -9,0 °C -7,7 °C 1,6 km/h (1 Bft)
03.12.2023 21:58 22,2 °C -7,7 °C 48 % 90 % 1022,8 hPa 0,0 l/m² 0,0 km/h (0 Bft) O-SO 111 ° 0 min 0 W/m² -9,0 °C -7,7 °C 0,0 km/h (0 Bft)
03.12.2023 21:59 22,2 °C -7,8 °C 48 % 90 % 1022,9 hPa 0,0 l/m² 0,0 km/h (0 Bft) O-SO 111 ° 0 min 0 W/m² -9,1 °C -7,8 °C 0,0 km/h (0 Bft)
03.12.2023 22:01 22,2 °C -7,8 °C 48 % 90 % 1022,9 hPa 0,0 l/m² 0,0 km/h (0 Bft) O-SO 111 ° 0 min 0 W/m² -9,1 °C -7,8 °C 0,0 km/h (0 Bft)
03.12.2023 22:03 22,2 °C -7,9 °C 48 % 89 % 1022,8 hPa 0,0 l/m² 1,1 km/h (1 Bft) O-SO 111 ° 0 min 0 W/m² -9,4 °C -7,9 °C 3,2 km/h (1 Bft)
03.12.2023 22:04 22,2 °C -7,9 °C 48 % 89 % 1022,8 hPa 0,0 l/m² 2,3 km/h (1 Bft) O-SO 111 ° 0 min 0 W/m² -9,4 °C -7,9 °C 3,2 km/h (1 Bft)
03.12.2023 22:05 22,2 °C -8,0 °C 48 % 89 % 1022,9 hPa 0,0 l/m² 2,9 km/h (1 Bft) O-SO 111 ° 0 min 0 W/m² -9,5 °C -8,0 °C 3,2 km/h (1 Bft)
03.12.2023 22:06 22,3 °C -8,0 °C 48 % 90 % 1022,9 hPa 0,0 l/m² 1,7 km/h (1 Bft) O-SO 111 ° 0 min 0 W/m² -9,3 °C -8,0 °C 3,2 km/h (1 Bft)
03.12.2023 22:07 22,2 °C -8,0 °C 48 % 90 % 1022,9 hPa 0,0 l/m² 0,6 km/h (0 Bft) O-SO 111 ° 0 min 0 W/m² -9,3 °C -8,0 °C 3,2 km/h (1 Bft)
03.12.2023 22:08 22,2 °C -8,1 °C 48 % 90 % 1022,9 hPa 0,0 l/m² 1,4 km/h (1 Bft) O-SO 111 ° 0 min 0 W/m² -9,4 °C -8,1 °C 3,2 km/h (1 Bft)
03.12.2023 22:09 22,2 °C -8,1 °C 48 % 90 % 1022,9 hPa 0,0 l/m² 3,1 km/h (1 Bft) O-SO 111 ° 0 min 0 W/m² -9,4 °C -8,1 °C 4,8 km/h (1 Bft)
03.12.2023 22:11 22,2 °C -8,2 °C 48 % 90 % 1022,8 hPa 0,0 l/m² 2,8 km/h (1 Bft) O-SO 111 ° 0 min 0 W/m² -9,5 °C -8,2 °C 4,8 km/h (1 Bft)
03.12.2023 22:13 22,2 °C -8,2 °C 48 % 89 % 1022,7 hPa 0,0 l/m² 1,4 km/h (1 Bft) O-SO 111 ° 0 min 0 W/m² -9,7 °C -8,2 °C 3,2 km/h (1 Bft)
03.12.2023 22:14 22,2 °C -8,2 °C 48 % 89 % 1022,7 hPa 0,0 l/m² 0,8 km/h (0 Bft) O-SO 111 ° 0 min 0 W/m² -9,7 °C -8,2 °C 3,2 km/h (1 Bft)
03.12.2023 22:15 22,2 °C -8,2 °C 48 % 90 % 1022,7 hPa 0,0 l/m² 0,8 km/h (0 Bft) O-SO 111 ° 0 min 0 W/m² -9,5 °C -8,2 °C 3,2 km/h (1 Bft)
03.12.2023 22:16 22,2 °C -8,2 °C 48 % 90 % 1022,7 hPa 0,0 l/m² 0,0 km/h (0 Bft) O-SO 111 ° 0 min 0 W/m² -9,5 °C -8,2 °C 0,0 km/h (0 Bft)
03.12.2023 22:17 22,2 °C -8,3 °C 48 % 90 % 1022,7 hPa 0,0 l/m² 0,0 km/h (0 Bft) O-SO 111 ° 0 min 0 W/m² -9,6 °C -8,3 °C 0,0 km/h (0 Bft)
03.12.2023 22:18 22,2 °C -8,2 °C 48 % 90 % 1022,7 hPa 0,0 l/m² 0,0 km/h (0 Bft) O-SO 111 ° 0 min 0 W/m² -9,5 °C -8,2 °C 0,0 km/h (0 Bft)
03.12.2023 22:19 22,2 °C -8,3 °C 48 % 90 % 1022,6 hPa 0,0 l/m² 0,0 km/h (0 Bft) O-SO 111 ° 0 min 0 W/m² -9,6 °C -8,3 °C 0,0 km/h (0 Bft)
03.12.2023 22:21 22,2 °C -8,3 °C 48 % 90 % 1022,5 hPa 0,0 l/m² 0,0 km/h (0 Bft) O-SO 111 ° 0 min 0 W/m² -9,6 °C -8,3 °C 0,0 km/h (0 Bft)
03.12.2023 22:23 22,2 °C -8,4 °C 48 % 89 % 1022,6 hPa 0,0 l/m² 0,0 km/h (0 Bft) O-SO 111 ° 0 min 0 W/m² -9,9 °C -8,4 °C 0,0 km/h (0 Bft)
03.12.2023 22:24 22,2 °C -8,4 °C 48 % 89 % 1022,6 hPa 0,0 l/m² 0,0 km/h (0 Bft) O-SO 111 ° 0 min 0 W/m² -9,9 °C -8,4 °C 0,0 km/h (0 Bft)
03.12.2023 22:25 22,2 °C -8,5 °C 48 % 89 % 1022,6 hPa 0,0 l/m² 0,0 km/h (0 Bft) O-SO 111 ° 0 min 0 W/m² -10,0 °C -8,5 °C 0,0 km/h (0 Bft)
03.12.2023 22:26 22,2 °C -8,6 °C 48 % 90 % 1022,6 hPa 0,0 l/m² 0,0 km/h (0 Bft) O-SO 111 ° 0 min 0 W/m² -9,9 °C -8,6 °C 0,0 km/h (0 Bft)
03.12.2023 22:27 22,2 °C -8,6 °C 48 % 90 % 1022,5 hPa 0,0 l/m² 0,0 km/h (0 Bft) O-SO 111 ° 0 min 0 W/m² -9,9 °C -8,6 °C 0,0 km/h (0 Bft)
03.12.2023 22:28 22,2 °C -8,6 °C 48 % 90 % 1022,5 hPa 0,0 l/m² 0,0 km/h (0 Bft) O-SO 111 ° 0 min 0 W/m² -9,9 °C -8,6 °C 0,0 km/h (0 Bft)
03.12.2023 22:29 22,2 °C -8,6 °C 48 % 90 % 1022,5 hPa 0,0 l/m² 0,0 km/h (0 Bft) O-SO 111 ° 0 min 0 W/m² -9,9 °C -8,6 °C 0,0 km/h (0 Bft)
03.12.2023 22:31 22,2 °C -8,7 °C 49 % 90 % 1022,5 hPa 0,0 l/m² 0,0 km/h (0 Bft) O-SO 111 ° 0 min 0 W/m² -10,0 °C -8,7 °C 0,0 km/h (0 Bft)
03.12.2023 22:33 22,2 °C -8,7 °C 49 % 90 % 1022,6 hPa 0,0 l/m² 0,0 km/h (0 Bft) O-SO 111 ° 0 min 0 W/m² -10,0 °C -8,7 °C 0,0 km/h (0 Bft)
03.12.2023 22:34 22,2 °C -8,7 °C 49 % 90 % 1022,5 hPa 0,0 l/m² 0,0 km/h (0 Bft) O-SO 111 ° 0 min 0 W/m² -10,0 °C -8,7 °C 0,0 km/h (0 Bft)
03.12.2023 22:35 22,2 °C -8,7 °C 49 % 90 % 1022,5 hPa 0,0 l/m² 0,0 km/h (0 Bft) O-SO 111 ° 0 min 0 W/m² -10,0 °C -8,7 °C 0,0 km/h (0 Bft)
03.12.2023 22:36 22,2 °C -8,7 °C 49 % 90 % 1022,4 hPa 0,0 l/m² 0,0 km/h (0 Bft) O-SO 111 ° 0 min 0 W/m² -10,0 °C -8,7 °C 0,0 km/h (0 Bft)
03.12.2023 22:37 22,2 °C -8,7 °C 49 % 90 % 1022,5 hPa 0,0 l/m² 0,0 km/h (0 Bft) O-SO 111 ° 0 min 0 W/m² -10,0 °C -8,7 °C 0,0 km/h (0 Bft)
03.12.2023 22:38 22,2 °C -8,7 °C 49 % 90 % 1022,5 hPa 0,0 l/m² 0,0 km/h (0 Bft) O-SO 111 ° 0 min 0 W/m² -10,0 °C -8,7 °C 0,0 km/h (0 Bft)
03.12.2023 22:39 22,2 °C -8,7 °C 49 % 90 % 1022,5 hPa 0,0 l/m² 0,0 km/h (0 Bft) O-SO 111 ° 0 min 0 W/m² -10,0 °C -8,7 °C 0,0 km/h (0 Bft)
03.12.2023 22:41 22,3 °C -8,7 °C 49 % 90 % 1022,5 hPa 0,0 l/m² 0,0 km/h (0 Bft) O-SO 111 ° 0 min 0 W/m² -10,0 °C -8,7 °C 0,0 km/h (0 Bft)
03.12.2023 22:43 22,2 °C -8,7 °C 49 % 90 % 1022,4 hPa 0,0 l/m² 0,0 km/h (0 Bft) O-SO 111 ° 0 min 0 W/m² -10,0 °C -8,7 °C 0,0 km/h (0 Bft)
03.12.2023 22:44 22,2 °C -8,7 °C 49 % 90 % 1022,4 hPa 0,0 l/m² 0,0 km/h (0 Bft) O-SO 111 ° 0 min 0 W/m² -10,0 °C -8,7 °C 0,0 km/h (0 Bft)
03.12.2023 22:45 22,2 °C -8,8 °C 49 % 90 % 1022,3 hPa 0,0 l/m² 0,0 km/h (0 Bft) O-SO 111 ° 0 min 0 W/m² -10,1 °C -8,8 °C 0,0 km/h (0 Bft)
03.12.2023 22:46 22,2 °C -8,8 °C 49 % 90 % 1022,4 hPa 0,0 l/m² 0,0 km/h (0 Bft) O-SO 111 ° 0 min 0 W/m² -10,1 °C -8,8 °C 0,0 km/h (0 Bft)
03.12.2023 22:47 22,2 °C -8,8 °C 49 % 90 % 1022,4 hPa 0,0 l/m² 0,0 km/h (0 Bft) O-SO 111 ° 0 min 0 W/m² -10,1 °C -8,8 °C 0,0 km/h (0 Bft)
03.12.2023 22:48 22,2 °C -8,8 °C 49 % 90 % 1022,3 hPa 0,0 l/m² 0,0 km/h (0 Bft) O-SO 111 ° 0 min 0 W/m² -10,1 °C -8,8 °C 0,0 km/h (0 Bft)
03.12.2023 22:49 22,2 °C -8,8 °C 49 % 90 % 1022,3 hPa 0,0 l/m² 0,0 km/h (0 Bft) O-SO 111 ° 0 min 0 W/m² -10,1 °C -8,8 °C 0,0 km/h (0 Bft)
03.12.2023 22:51 22,2 °C -8,8 °C 49 % 90 % 1022,2 hPa 0,0 l/m² 0,0 km/h (0 Bft) O-SO 111 ° 0 min 0 W/m² -10,1 °C -8,8 °C 0,0 km/h (0 Bft)
03.12.2023 22:53 22,2 °C -8,8 °C 49 % 90 % 1022,4 hPa 0,0 l/m² 0,0 km/h (0 Bft) O-SO 110 ° 0 min 0 W/m² -10,1 °C -8,8 °C 0,0 km/h (0 Bft)
03.12.2023 22:54 22,2 °C -8,8 °C 49 % 90 % 1022,4 hPa 0,0 l/m² 0,0 km/h (0 Bft) O-SO 111 ° 0 min 0 W/m² -10,1 °C -8,8 °C 0,0 km/h (0 Bft)
03.12.2023 22:55 22,2 °C -8,8 °C 49 % 90 % 1022,3 hPa 0,0 l/m² 0,0 km/h (0 Bft) O-SO 111 ° 0 min 0 W/m² -10,1 °C -8,8 °C 0,0 km/h (0 Bft)
03.12.2023 22:56 22,2 °C -8,8 °C 49 % 90 % 1022,4 hPa 0,0 l/m² 0,0 km/h (0 Bft) O-SO 111 ° 0 min 0 W/m² -10,1 °C -8,8 °C 0,0 km/h (0 Bft)
03.12.2023 22:57 22,2 °C -8,8 °C 49 % 90 % 1022,4 hPa 0,0 l/m² 0,0 km/h (0 Bft) O-SO 111 ° 0 min 0 W/m² -10,1 °C -8,8 °C 0,0 km/h (0 Bft)
03.12.2023 22:58 22,2 °C -8,9 °C 49 % 90 % 1022,5 hPa 0,0 l/m² 0,0 km/h (0 Bft) O-SO 111 ° 0 min 0 W/m² -10,2 °C -8,9 °C 0,0 km/h (0 Bft)
03.12.2023 22:59 22,2 °C -8,9 °C 49 % 90 % 1022,5 hPa 0,0 l/m² 0,0 km/h (0 Bft) O-SO 111 ° 0 min 0 W/m² -10,2 °C -8,9 °C 0,0 km/h (0 Bft)
03.12.2023 23:01 22,2 °C -8,9 °C 49 % 90 % 1022,5 hPa 0,0 l/m² 0,0 km/h (0 Bft) O-SO 111 ° 0 min 0 W/m² -10,2 °C -8,9 °C 0,0 km/h (0 Bft)
03.12.2023 23:03 22,2 °C -8,9 °C 49 % 90 % 1022,4 hPa 0,0 l/m² 0,0 km/h (0 Bft) O-SO 111 ° 0 min 0 W/m² -10,2 °C -8,9 °C 0,0 km/h (0 Bft)
03.12.2023 23:04 22,2 °C -8,9 °C 49 % 90 % 1022,5 hPa 0,0 l/m² 0,0 km/h (0 Bft) O-SO 111 ° 0 min 0 W/m² -10,2 °C -8,9 °C 0,0 km/h (0 Bft)
03.12.2023 23:05 22,2 °C -8,9 °C 49 % 90 % 1022,4 hPa 0,0 l/m² 0,0 km/h (0 Bft) O-SO 111 ° 0 min 0 W/m² -10,2 °C -8,9 °C 0,0 km/h (0 Bft)
03.12.2023 23:06 22,1 °C -8,9 °C 49 % 90 % 1022,4 hPa 0,0 l/m² 0,0 km/h (0 Bft) O-SO 111 ° 0 min 0 W/m² -10,2 °C -8,9 °C 0,0 km/h (0 Bft)
03.12.2023 23:07 22,2 °C -9,0 °C 49 % 90 % 1022,4 hPa 0,0 l/m² 0,0 km/h (0 Bft) O-SO 111 ° 0 min 0 W/m² -10,3 °C -9,0 °C 0,0 km/h (0 Bft)
03.12.2023 23:08 22,2 °C -9,0 °C 49 % 90 % 1022,3 hPa 0,0 l/m² 0,0 km/h (0 Bft) O-SO 111 ° 0 min 0 W/m² -10,3 °C -9,0 °C 0,0 km/h (0 Bft)
03.12.2023 23:09 22,2 °C -9,0 °C 49 % 90 % 1022,4 hPa 0,0 l/m² 0,0 km/h (0 Bft) O-SO 111 ° 0 min 0 W/m² -10,3 °C -9,0 °C 0,0 km/h (0 Bft)
03.12.2023 23:11 22,1 °C -9,1 °C 49 % 90 % 1022,4 hPa 0,0 l/m² 0,0 km/h (0 Bft) O-SO 111 ° 0 min 0 W/m² -10,4 °C -9,1 °C 0,0 km/h (0 Bft)
03.12.2023 23:12 22,1 °C -9,0 °C 49 % 90 % 1022,4 hPa 0,0 l/m² 0,0 km/h (0 Bft) O-SO 111 ° 0 min 0 W/m² -10,3 °C -9,0 °C 0,0 km/h (0 Bft)
03.12.2023 23:14 22,1 °C -9,1 °C 49 % 90 % 1022,4 hPa 0,0 l/m² 0,0 km/h (0 Bft) O-SO 111 ° 0 min 0 W/m² -10,4 °C -9,1 °C 0,0 km/h (0 Bft)
03.12.2023 23:15 22,1 °C -9,1 °C 49 % 90 % 1022,4 hPa 0,0 l/m² 0,0 km/h (0 Bft) O-SO 110 ° 0 min 0 W/m² -10,4 °C -9,1 °C 0,0 km/h (0 Bft)
03.12.2023 23:16 22,1 °C -9,1 °C 49 % 90 % 1022,4 hPa 0,0 l/m² 0,0 km/h (0 Bft) N 0 ° 0 min 0 W/m² -10,4 °C -9,1 °C 0,0 km/h (0 Bft)
03.12.2023 23:17 22,1 °C -9,1 °C 49 % 90 % 1022,4 hPa 0,0 l/m² 0,0 km/h (0 Bft) N 0 ° 0 min 0 W/m² -10,4 °C -9,1 °C 0,0 km/h (0 Bft)
03.12.2023 23:23 22,1 °C -9,1 °C 49 % 90 % 1022,2 hPa 0,0 l/m² 0,0 km/h (0 Bft) O-SO 111 ° 0 min 0 W/m² -10,4 °C -9,1 °C 0,0 km/h (0 Bft)
03.12.2023 23:25 22,1 °C -9,1 °C 49 % 90 % 1022,3 hPa 0,0 l/m² 0,0 km/h (0 Bft) O-SO 111 ° 0 min 0 W/m² -10,4 °C -9,1 °C 0,0 km/h (0 Bft)
03.12.2023 23:27 22,1 °C -9,2 °C 49 % 90 % 1022,3 hPa 0,0 l/m² 0,0 km/h (0 Bft) O-SO 111 ° 0 min 0 W/m² -10,5 °C -9,2 °C 0,0 km/h (0 Bft)
03.12.2023 23:29 22,1 °C -9,2 °C 49 % 90 % 1022,3 hPa 0,0 l/m² 0,0 km/h (0 Bft) O-SO 111 ° 0 min 0 W/m² -10,5 °C -9,2 °C 0,0 km/h (0 Bft)
03.12.2023 23:30 22,1 °C -9,2 °C 49 % 90 % 1022,3 hPa 0,0 l/m² 0,0 km/h (0 Bft) O-SO 111 ° 0 min 0 W/m² -10,5 °C -9,2 °C 0,0 km/h (0 Bft)
03.12.2023 23:31 22,1 °C -9,2 °C 49 % 90 % 1022,2 hPa 0,0 l/m² 0,0 km/h (0 Bft) O-SO 111 ° 0 min 0 W/m² -10,5 °C -9,2 °C 0,0 km/h (0 Bft)
03.12.2023 23:32 22,1 °C -9,2 °C 49 % 90 % 1022,2 hPa 0,0 l/m² 0,0 km/h (0 Bft) O-SO 111 ° 0 min 0 W/m² -10,5 °C -9,2 °C 0,0 km/h (0 Bft)
03.12.2023 23:34 22,1 °C -9,2 °C 49 % 90 % 1022,2 hPa 0,0 l/m² 0,0 km/h (0 Bft) O-SO 111 ° 0 min 0 W/m² -10,5 °C -9,2 °C 0,0 km/h (0 Bft)
03.12.2023 23:35 22,1 °C -9,2 °C 49 % 90 % 1022,2 hPa 0,0 l/m² 0,0 km/h (0 Bft) O-SO 111 ° 0 min 0 W/m² -10,5 °C -9,2 °C 0,0 km/h (0 Bft)
03.12.2023 23:37 22,1 °C -9,2 °C 49 % 90 % 1022,2 hPa 0,0 l/m² 0,0 km/h (0 Bft) O-SO 111 ° 0 min 0 W/m² -10,5 °C -9,2 °C 0,0 km/h (0 Bft)
03.12.2023 23:39 22,1 °C -9,2 °C 49 % 90 % 1022,1 hPa 0,0 l/m² 0,0 km/h (0 Bft) O-SO 111 ° 0 min 0 W/m² -10,5 °C -9,2 °C 0,0 km/h (0 Bft)
03.12.2023 23:40 22,1 °C -9,2 °C 49 % 90 % 1022,1 hPa 0,0 l/m² 0,0 km/h (0 Bft) O-SO 111 ° 0 min 0 W/m² -10,5 °C -9,2 °C 0,0 km/h (0 Bft)
03.12.2023 23:41 22,1 °C -9,2 °C 49 % 90 % 1022,0 hPa 0,0 l/m² 0,0 km/h (0 Bft) O-SO 111 ° 0 min 0 W/m² -10,5 °C -9,2 °C 0,0 km/h (0 Bft)
03.12.2023 23:42 22,1 °C -9,2 °C 49 % 90 % 1022,0 hPa 0,0 l/m² 0,0 km/h (0 Bft) O-SO 110 ° 0 min 0 W/m² -10,5 °C -9,2 °C 0,0 km/h (0 Bft)
03.12.2023 23:44 22,1 °C -9,2 °C 49 % 90 % 1022,1 hPa 0,0 l/m² 0,0 km/h (0 Bft) O-SO 111 ° 0 min 0 W/m² -10,5 °C -9,2 °C 0,0 km/h (0 Bft)
03.12.2023 23:45 22,1 °C -9,2 °C 49 % 90 % 1022,1 hPa 0,0 l/m² 0,0 km/h (0 Bft) O-SO 111 ° 0 min 0 W/m² -10,5 °C -9,2 °C 0,0 km/h (0 Bft)
03.12.2023 23:47 22,1 °C -9,2 °C 49 % 90 % 1022,1 hPa 0,0 l/m² 0,0 km/h (0 Bft) O-SO 110 ° 0 min 0 W/m² -10,5 °C -9,2 °C 0,0 km/h (0 Bft)
03.12.2023 23:49 22,1 °C -9,2 °C 49 % 90 % 1022,0 hPa 0,0 l/m² 0,0 km/h (0 Bft) O-SO 111 ° 0 min 0 W/m² -10,5 °C -9,2 °C 0,0 km/h (0 Bft)
03.12.2023 23:50 22,2 °C -9,2 °C 49 % 90 % 1022,0 hPa 0,0 l/m² 0,0 km/h (0 Bft) O-SO 111 ° 0 min 0 W/m² -10,5 °C -9,2 °C 0,0 km/h (0 Bft)
03.12.2023 23:51 22,1 °C -9,1 °C 49 % 90 % 1022,0 hPa 0,0 l/m² 0,0 km/h (0 Bft) O-SO 111 ° 0 min 0 W/m² -10,4 °C -9,1 °C 0,0 km/h (0 Bft)
03.12.2023 23:52 22,1 °C -9,1 °C 49 % 90 % 1022,0 hPa 0,0 l/m² 0,0 km/h (0 Bft) O-SO 110 ° 0 min 0 W/m² -10,4 °C -9,1 °C 0,0 km/h (0 Bft)
03.12.2023 23:54 22,1 °C -9,1 °C 49 % 91 % 1022,0 hPa 0,0 l/m² 0,6 km/h (0 Bft) O-SO 111 ° 0 min 0 W/m² -10,3 °C -9,1 °C 3,2 km/h (1 Bft)
03.12.2023 23:55 22,1 °C -9,1 °C 49 % 91 % 1022,0 hPa 0,0 l/m² 0,7 km/h (0 Bft) O-SO 111 ° 0 min 0 W/m² -10,3 °C -9,1 °C 1,6 km/h (1 Bft)
03.12.2023 23:57 22,2 °C -9,1 °C 49 % 91 % 1022,0 hPa 0,0 l/m² 0,2 km/h (0 Bft) O-SO 111 ° 0 min 0 W/m² -10,3 °C -9,1 °C 1,6 km/h (1 Bft)
03.12.2023 23:59 22,1 °C -9,1 °C 49 % 91 % 1021,9 hPa 0,0 l/m² 2,0 km/h (1 Bft) O-SO 111 ° 0 min 0 W/m² -10,3 °C -9,1 °C 3,2 km/h (1 Bft)
_ Min-Zeit 02:17 23:50 10:04 22:25 00:03 - 23:52 - - - - 23:50 23:50 23:52
Minimum _ 21,4 °C -9,2 °C 42 % 89 % 1017,5 hPa - 0,0 km/h (0 Bft) - - - - -10,5 °C -9,2 °C 0,0 km/h (0 Bft)
_ Max-Zeit 17:08 12:49 23:59 09:05 18:46 15:01 13:18 - - 12:41 12:38 12:44 12:39 13:43
Maximum _ 22,4 °C 0,3 °C 49 % 94 % 1023,6 hPa 0,2 l/m² 13,4 km/h
W-SW (3 Bft)
- - 2 min 104 W/m² -0,8 °C 0,3 °C 16,1 km/h
SW (3 Bft)
Durchschnitt _ 21,9 °C -2,8 °C 45 % 91 % 1021,3 hPa #0,2 l/m² 2,4 km/h (1 Bft) W-SW - #12 min. 8 W/m² -4,0 °C -2,9 °C 3,8 km/h (1 Bft)
© 2009 Mathias Hoßbach